<?xml version="1.0" encoding="UTF-8" standalone="yes"?>
<gpx
 xmlns="http://www.topografix.com/GPX/1/1"
 creator="OziExplorer Version 3956f - http://www.oziexplorer.com"
 version="1.1"
 xmlns:xsi="http://www.w3.org/2001/XMLSchema-instance"
 xsi:schemaLocation="http://www.topografix.com/GPX/1/1 http://www.topografix.com/GPX/1/1/gpx.xsd">
<metadata>
 <time>2024-01-10T14:36:58Z</time>
 <bounds minlat="31.147650" minlon="35.194590" maxlat="31.248282" maxlon="35.370220"/>
</metadata>
<wpt lat="31.2190700" lon="35.3168100">
 <time>2024-01-10T15:21:45.532Z</time>
 <name>SokrNaDor#31</name>
 <sym>Flag, Red</sym>
</wpt>
<wpt lat="31.2081900" lon="35.3504900">
 <time>2024-01-10T15:21:45.551Z</time>
 <name>Tatspit</name>
 <sym>Flag, Red</sym>
</wpt>
<wpt lat="31.2314900" lon="35.3465800">
 <time>2024-01-10T15:21:45.551Z</time>
 <name>Tatspit</name>
 <sym>Flag, Red</sym>
</wpt>
<wpt lat="31.2482818" lon="35.1982600">
 <time>2024-01-10T13:24:27.958Z</time>
 <name>Start</name>
 <sym>Flag, Red</sym>
</wpt>
<wpt lat="31.1480435" lon="35.3699750">
 <time>2024-01-10T14:35:08.250Z</time>
 <name>Fin</name>
 <sym>Flag, Red</sym>
</wpt>
<trk>
 <name>AradYairZohar</name>
 <desc>AradYairZohar</desc>
<trkseg>
<trkpt lat="31.2480800" lon="35.1981600">
<ele>555.280029</ele>
<time>2024-01-10T16:36:58.912Z</time>
</trkpt>
<trkpt lat="31.2479900" lon="35.1981500">
<ele>554.849976</ele>
<time>2024-01-10T16:36:58.912Z</time>
</trkpt>
<trkpt lat="31.2479100" lon="35.1981500">
<ele>554.279968</ele>
<time>2024-01-10T16:36:58.912Z</time>
</trkpt>
<trkpt lat="31.2478800" lon="35.1981300">
<ele>554.080017</ele>
<time>2024-01-10T16:36:58.912Z</time>
</trkpt>
<trkpt lat="31.2478500" lon="35.1981200">
<ele>553.830017</ele>
<time>2024-01-10T16:36:58.912Z</time>
</trkpt>
<trkpt lat="31.2478000" lon="35.1980500">
<ele>553.239990</ele>
<time>2024-01-10T16:36:58.912Z</time>
</trkpt>
<trkpt lat="31.2477600" lon="35.1977200">
<ele>552.989990</ele>
<time>2024-01-10T16:36:58.913Z</time>
</trkpt>
<trkpt lat="31.2477000" lon="35.1976000">
<ele>552.820007</ele>
<time>2024-01-10T16:36:58.913Z</time>
</trkpt>
<trkpt lat="31.2476500" lon="35.1975800">
<ele>552.669983</ele>
<time>2024-01-10T16:36:58.913Z</time>
</trkpt>
<trkpt lat="31.2475700" lon="35.1975600">
<ele>552.409973</ele>
<time>2024-01-10T16:36:58.913Z</time>
</trkpt>
<trkpt lat="31.2471600" lon="35.1975700">
<ele>551.049988</ele>
<time>2024-01-10T16:36:58.913Z</time>
</trkpt>
<trkpt lat="31.2471200" lon="35.1975700">
<ele>551.090027</ele>
<time>2024-01-10T16:36:58.913Z</time>
</trkpt>
<trkpt lat="31.2469800" lon="35.1975400">
<ele>551.500000</ele>
<time>2024-01-10T16:36:58.913Z</time>
</trkpt>
<trkpt lat="31.2467300" lon="35.1975600">
<ele>552.460022</ele>
<time>2024-01-10T16:36:58.913Z</time>
</trkpt>
<trkpt lat="31.2462900" lon="35.1975500">
<ele>555.659973</ele>
<time>2024-01-10T16:36:58.913Z</time>
</trkpt>
<trkpt lat="31.2460900" lon="35.1974800">
<ele>557.229980</ele>
<time>2024-01-10T16:36:58.913Z</time>
</trkpt>
<trkpt lat="31.2457900" lon="35.1974100">
<ele>560.919983</ele>
<time>2024-01-10T16:36:58.913Z</time>
</trkpt>
<trkpt lat="31.2453600" lon="35.1972700">
<ele>565.869995</ele>
<time>2024-01-10T16:36:58.913Z</time>
</trkpt>
<trkpt lat="31.2451800" lon="35.1972300">
<ele>568.690002</ele>
<time>2024-01-10T16:36:58.913Z</time>
</trkpt>
<trkpt lat="31.2450000" lon="35.1971700">
<ele>572.380005</ele>
<time>2024-01-10T16:36:58.913Z</time>
</trkpt>
<trkpt lat="31.2444000" lon="35.1970000">
<ele>569.899963</ele>
<time>2024-01-10T16:36:58.913Z</time>
</trkpt>
<trkpt lat="31.2438500" lon="35.1968000">
<ele>570.330017</ele>
<time>2024-01-10T16:36:58.913Z</time>
</trkpt>
<trkpt lat="31.2434500" lon="35.1966900">
<ele>567.369995</ele>
<time>2024-01-10T16:36:58.913Z</time>
</trkpt>
<trkpt lat="31.2432500" lon="35.1966200">
<ele>566.830017</ele>
<time>2024-01-10T16:36:58.913Z</time>
</trkpt>
<trkpt lat="31.2428500" lon="35.1965300">
<ele>570.579956</ele>
<time>2024-01-10T16:36:58.913Z</time>
</trkpt>
<trkpt lat="31.2427300" lon="35.1964700">
<ele>571.510010</ele>
<time>2024-01-10T16:36:58.913Z</time>
</trkpt>
<trkpt lat="31.2421700" lon="35.1963100">
<ele>564.919983</ele>
<time>2024-01-10T16:36:58.914Z</time>
</trkpt>
<trkpt lat="31.2421000" lon="35.1962700">
<ele>564.010010</ele>
<time>2024-01-10T16:36:58.914Z</time>
</trkpt>
<trkpt lat="31.2416800" lon="35.1961700">
<ele>563.570007</ele>
<time>2024-01-10T16:36:58.914Z</time>
</trkpt>
<trkpt lat="31.2413100" lon="35.1960500">
<ele>563.559998</ele>
<time>2024-01-10T16:36:58.914Z</time>
</trkpt>
<trkpt lat="31.2411200" lon="35.1959600">
<ele>563.010010</ele>
<time>2024-01-10T16:36:58.914Z</time>
</trkpt>
<trkpt lat="31.2406400" lon="35.1958200">
<ele>565.750000</ele>
<time>2024-01-10T16:36:58.914Z</time>
</trkpt>
<trkpt lat="31.2403300" lon="35.1957400">
<ele>561.339966</ele>
<time>2024-01-10T16:36:58.914Z</time>
</trkpt>
<trkpt lat="31.2399600" lon="35.1956300">
<ele>557.840027</ele>
<time>2024-01-10T16:36:58.914Z</time>
</trkpt>
<trkpt lat="31.2393600" lon="35.1954700">
<ele>566.109985</ele>
<time>2024-01-10T16:36:58.914Z</time>
</trkpt>
<trkpt lat="31.2382200" lon="35.1951200">
<ele>562.450012</ele>
<time>2024-01-10T16:36:58.914Z</time>
</trkpt>
<trkpt lat="31.2376400" lon="35.1949200">
<ele>568.700012</ele>
<time>2024-01-10T16:36:58.914Z</time>
</trkpt>
<trkpt lat="31.2374800" lon="35.1948900">
<ele>571.399963</ele>
<time>2024-01-10T16:36:58.914Z</time>
</trkpt>
<trkpt lat="31.2372600" lon="35.1948100">
<ele>574.640015</ele>
<time>2024-01-10T16:36:58.914Z</time>
</trkpt>
<trkpt lat="31.2367200" lon="35.1946400">
<ele>579.590027</ele>
<time>2024-01-10T16:36:58.914Z</time>
</trkpt>
<trkpt lat="31.2363900" lon="35.1946100">
<ele>580.000000</ele>
<time>2024-01-10T16:36:58.914Z</time>
</trkpt>
<trkpt lat="31.2358700" lon="35.1945900">
<ele>575.459961</ele>
<time>2024-01-10T16:36:58.914Z</time>
</trkpt>
<trkpt lat="31.2352400" lon="35.1946400">
<ele>567.059998</ele>
<time>2024-01-10T16:36:58.914Z</time>
</trkpt>
<trkpt lat="31.2350100" lon="35.1947100">
<ele>567.880005</ele>
<time>2024-01-10T16:36:58.914Z</time>
</trkpt>
<trkpt lat="31.2349100" lon="35.1947400">
<ele>567.570007</ele>
<time>2024-01-10T16:36:58.914Z</time>
</trkpt>
<trkpt lat="31.2347600" lon="35.1948100">
<ele>566.989990</ele>
<time>2024-01-10T16:36:58.915Z</time>
</trkpt>
<trkpt lat="31.2346500" lon="35.1948600">
<ele>567.640015</ele>
<time>2024-01-10T16:36:58.915Z</time>
</trkpt>
<trkpt lat="31.2345000" lon="35.1949800">
<ele>569.510010</ele>
<time>2024-01-10T16:36:58.915Z</time>
</trkpt>
<trkpt lat="31.2343300" lon="35.1950600">
<ele>569.400024</ele>
<time>2024-01-10T16:36:58.915Z</time>
</trkpt>
<trkpt lat="31.2342200" lon="35.1951500">
<ele>570.029968</ele>
<time>2024-01-10T16:36:58.915Z</time>
</trkpt>
<trkpt lat="31.2338400" lon="35.1955000">
<ele>571.539978</ele>
<time>2024-01-10T16:36:58.915Z</time>
</trkpt>
<trkpt lat="31.2337800" lon="35.1955800">
<ele>572.640015</ele>
<time>2024-01-10T16:36:58.915Z</time>
</trkpt>
<trkpt lat="31.2336500" lon="35.1957000">
<ele>573.599976</ele>
<time>2024-01-10T16:36:58.915Z</time>
</trkpt>
<trkpt lat="31.2334400" lon="35.1959900">
<ele>574.860046</ele>
<time>2024-01-10T16:36:58.915Z</time>
</trkpt>
<trkpt lat="31.2333400" lon="35.1960900">
<ele>575.770020</ele>
<time>2024-01-10T16:36:58.915Z</time>
</trkpt>
<trkpt lat="31.2332400" lon="35.1962200">
<ele>575.640015</ele>
<time>2024-01-10T16:36:58.915Z</time>
</trkpt>
<trkpt lat="31.2331200" lon="35.1963900">
<ele>574.940002</ele>
<time>2024-01-10T16:36:58.915Z</time>
</trkpt>
<trkpt lat="31.2329400" lon="35.1967600">
<ele>576.480042</ele>
<time>2024-01-10T16:36:58.915Z</time>
</trkpt>
<trkpt lat="31.2328500" lon="35.1969800">
<ele>578.100037</ele>
<time>2024-01-10T16:36:58.915Z</time>
</trkpt>
<trkpt lat="31.2327500" lon="35.1971100">
<ele>578.790039</ele>
<time>2024-01-10T16:36:58.915Z</time>
</trkpt>
<trkpt lat="31.2326900" lon="35.1971300">
<ele>579.000000</ele>
<time>2024-01-10T16:36:58.915Z</time>
</trkpt>
<trkpt lat="31.2325800" lon="35.1971300">
<ele>579.000000</ele>
<time>2024-01-10T16:36:58.915Z</time>
</trkpt>
<trkpt lat="31.2324700" lon="35.1971300">
<ele>579.109985</ele>
<time>2024-01-10T16:36:58.915Z</time>
</trkpt>
<trkpt lat="31.2323800" lon="35.1971000">
<ele>579.250000</ele>
<time>2024-01-10T16:36:58.915Z</time>
</trkpt>
<trkpt lat="31.2323100" lon="35.1968600">
<ele>578.650024</ele>
<time>2024-01-10T16:36:58.915Z</time>
</trkpt>
<trkpt lat="31.2321600" lon="35.1966300">
<ele>579.979980</ele>
<time>2024-01-10T16:36:58.916Z</time>
</trkpt>
<trkpt lat="31.2319400" lon="35.1966000">
<ele>583.720032</ele>
<time>2024-01-10T16:36:58.916Z</time>
</trkpt>
<trkpt lat="31.2317400" lon="35.1966900">
<ele>581.780029</ele>
<time>2024-01-10T16:36:58.916Z</time>
</trkpt>
<trkpt lat="31.2314100" lon="35.1966900">
<ele>582.730042</ele>
<time>2024-01-10T16:36:58.916Z</time>
</trkpt>
<trkpt lat="31.2309400" lon="35.1967200">
<ele>585.820007</ele>
<time>2024-01-10T16:36:58.916Z</time>
</trkpt>
<trkpt lat="31.2307000" lon="35.1968900">
<ele>589.080017</ele>
<time>2024-01-10T16:36:58.916Z</time>
</trkpt>
<trkpt lat="31.2304500" lon="35.1972100">
<ele>592.500000</ele>
<time>2024-01-10T16:36:58.916Z</time>
</trkpt>
<trkpt lat="31.2303100" lon="35.1976400">
<ele>591.119995</ele>
<time>2024-01-10T16:36:58.916Z</time>
</trkpt>
<trkpt lat="31.2301800" lon="35.1982600">
<ele>591.049988</ele>
<time>2024-01-10T16:36:58.916Z</time>
</trkpt>
<trkpt lat="31.2299800" lon="35.1987900">
<ele>590.250000</ele>
<time>2024-01-10T16:36:58.916Z</time>
</trkpt>
<trkpt lat="31.2297700" lon="35.1990700">
<ele>590.650024</ele>
<time>2024-01-10T16:36:58.916Z</time>
</trkpt>
<trkpt lat="31.2297100" lon="35.1993600">
<ele>593.070007</ele>
<time>2024-01-10T16:36:58.916Z</time>
</trkpt>
<trkpt lat="31.2296700" lon="35.1994900">
<ele>594.010010</ele>
<time>2024-01-10T16:36:58.916Z</time>
</trkpt>
<trkpt lat="31.2296200" lon="35.1999000">
<ele>595.000000</ele>
<time>2024-01-10T16:36:58.916Z</time>
</trkpt>
<trkpt lat="31.2295400" lon="35.2000900">
<ele>595.530029</ele>
<time>2024-01-10T16:36:58.916Z</time>
</trkpt>
<trkpt lat="31.2293900" lon="35.2005500">
<ele>598.780029</ele>
<time>2024-01-10T16:36:58.916Z</time>
</trkpt>
<trkpt lat="31.2293100" lon="35.2010200">
<ele>596.479980</ele>
<time>2024-01-10T16:36:58.916Z</time>
</trkpt>
<trkpt lat="31.2291100" lon="35.2015300">
<ele>592.179993</ele>
<time>2024-01-10T16:36:58.917Z</time>
</trkpt>
<trkpt lat="31.2290000" lon="35.2018000">
<ele>588.349976</ele>
<time>2024-01-10T16:36:58.917Z</time>
</trkpt>
<trkpt lat="31.2287400" lon="35.2020600">
<ele>589.010010</ele>
<time>2024-01-10T16:36:58.917Z</time>
</trkpt>
<trkpt lat="31.2286100" lon="35.2023000">
<ele>585.080017</ele>
<time>2024-01-10T16:36:58.917Z</time>
</trkpt>
<trkpt lat="31.2285000" lon="35.2025900">
<ele>584.090027</ele>
<time>2024-01-10T16:36:58.917Z</time>
</trkpt>
<trkpt lat="31.2284700" lon="35.2028300">
<ele>584.029968</ele>
<time>2024-01-10T16:36:58.917Z</time>
</trkpt>
<trkpt lat="31.2284600" lon="35.2030300">
<ele>585.890015</ele>
<time>2024-01-10T16:36:58.917Z</time>
</trkpt>
<trkpt lat="31.2284400" lon="35.2033600">
<ele>589.000000</ele>
<time>2024-01-10T16:36:58.917Z</time>
</trkpt>
<trkpt lat="31.2282700" lon="35.2036600">
<ele>590.500000</ele>
<time>2024-01-10T16:36:58.917Z</time>
</trkpt>
<trkpt lat="31.2281500" lon="35.2038900">
<ele>591.349976</ele>
<time>2024-01-10T16:36:58.917Z</time>
</trkpt>
<trkpt lat="31.2281000" lon="35.2039700">
<ele>591.590027</ele>
<time>2024-01-10T16:36:58.917Z</time>
</trkpt>
<trkpt lat="31.2279400" lon="35.2043200">
<ele>593.470032</ele>
<time>2024-01-10T16:36:58.917Z</time>
</trkpt>
<trkpt lat="31.2278800" lon="35.2044100">
<ele>594.549988</ele>
<time>2024-01-10T16:36:58.917Z</time>
</trkpt>
<trkpt lat="31.2277700" lon="35.2046100">
<ele>597.320007</ele>
<time>2024-01-10T16:36:58.917Z</time>
</trkpt>
<trkpt lat="31.2277400" lon="35.2046500">
<ele>597.619995</ele>
<time>2024-01-10T16:36:58.917Z</time>
</trkpt>
<trkpt lat="31.2276300" lon="35.2048600">
<ele>599.160034</ele>
<time>2024-01-10T16:36:58.917Z</time>
</trkpt>
<trkpt lat="31.2274300" lon="35.2053200">
<ele>600.660034</ele>
<time>2024-01-10T16:36:58.917Z</time>
</trkpt>
<trkpt lat="31.2274100" lon="35.2053600">
<ele>600.280029</ele>
<time>2024-01-10T16:36:58.917Z</time>
</trkpt>
<trkpt lat="31.2273100" lon="35.2055200">
<ele>598.900024</ele>
<time>2024-01-10T16:36:58.918Z</time>
</trkpt>
<trkpt lat="31.2272600" lon="35.2055500">
<ele>598.390015</ele>
<time>2024-01-10T16:36:58.918Z</time>
</trkpt>
<trkpt lat="31.2270400" lon="35.2058800">
<ele>598.869995</ele>
<time>2024-01-10T16:36:58.918Z</time>
</trkpt>
<trkpt lat="31.2268100" lon="35.2063600">
<ele>601.289978</ele>
<time>2024-01-10T16:36:58.918Z</time>
</trkpt>
<trkpt lat="31.2267100" lon="35.2067400">
<ele>605.099976</ele>
<time>2024-01-10T16:36:58.918Z</time>
</trkpt>
<trkpt lat="31.2266300" lon="35.2069300">
<ele>605.799988</ele>
<time>2024-01-10T16:36:58.918Z</time>
</trkpt>
<trkpt lat="31.2265600" lon="35.2070600">
<ele>604.600037</ele>
<time>2024-01-10T16:36:58.918Z</time>
</trkpt>
<trkpt lat="31.2265400" lon="35.2070800">
<ele>604.109985</ele>
<time>2024-01-10T16:36:58.918Z</time>
</trkpt>
<trkpt lat="31.2265100" lon="35.2071300">
<ele>603.450012</ele>
<time>2024-01-10T16:36:58.918Z</time>
</trkpt>
<trkpt lat="31.2264800" lon="35.2071600">
<ele>602.649963</ele>
<time>2024-01-10T16:36:58.918Z</time>
</trkpt>
<trkpt lat="31.2264500" lon="35.2072500">
<ele>602.239990</ele>
<time>2024-01-10T16:36:58.918Z</time>
</trkpt>
<trkpt lat="31.2264300" lon="35.2076100">
<ele>605.840027</ele>
<time>2024-01-10T16:36:58.918Z</time>
</trkpt>
<trkpt lat="31.2263900" lon="35.2077300">
<ele>607.159973</ele>
<time>2024-01-10T16:36:58.918Z</time>
</trkpt>
<trkpt lat="31.2263300" lon="35.2078400">
<ele>607.239990</ele>
<time>2024-01-10T16:36:58.918Z</time>
</trkpt>
<trkpt lat="31.2262900" lon="35.2078800">
<ele>606.739990</ele>
<time>2024-01-10T16:36:58.918Z</time>
</trkpt>
<trkpt lat="31.2262200" lon="35.2079200">
<ele>605.590027</ele>
<time>2024-01-10T16:36:58.918Z</time>
</trkpt>
<trkpt lat="31.2261400" lon="35.2079700">
<ele>604.419983</ele>
<time>2024-01-10T16:36:58.918Z</time>
</trkpt>
<trkpt lat="31.2260800" lon="35.2080300">
<ele>603.880005</ele>
<time>2024-01-10T16:36:58.918Z</time>
</trkpt>
<trkpt lat="31.2260400" lon="35.2080700">
<ele>603.329956</ele>
<time>2024-01-10T16:36:58.918Z</time>
</trkpt>
<trkpt lat="31.2258500" lon="35.2082800">
<ele>600.799988</ele>
<time>2024-01-10T16:36:58.918Z</time>
</trkpt>
<trkpt lat="31.2257200" lon="35.2084600">
<ele>600.380005</ele>
<time>2024-01-10T16:36:58.918Z</time>
</trkpt>
<trkpt lat="31.2256800" lon="35.2084700">
<ele>599.659973</ele>
<time>2024-01-10T16:36:58.919Z</time>
</trkpt>
<trkpt lat="31.2255900" lon="35.2085400">
<ele>598.719971</ele>
<time>2024-01-10T16:36:58.919Z</time>
</trkpt>
<trkpt lat="31.2255500" lon="35.2086700">
<ele>599.390015</ele>
<time>2024-01-10T16:36:58.919Z</time>
</trkpt>
<trkpt lat="31.2255300" lon="35.2087500">
<ele>599.860046</ele>
<time>2024-01-10T16:36:58.919Z</time>
</trkpt>
<trkpt lat="31.2254500" lon="35.2088400">
<ele>600.200012</ele>
<time>2024-01-10T16:36:58.919Z</time>
</trkpt>
<trkpt lat="31.2254200" lon="35.2088800">
<ele>600.429993</ele>
<time>2024-01-10T16:36:58.919Z</time>
</trkpt>
<trkpt lat="31.2254000" lon="35.2089100">
<ele>600.849976</ele>
<time>2024-01-10T16:36:58.919Z</time>
</trkpt>
<trkpt lat="31.2253100" lon="35.2090800">
<ele>603.640015</ele>
<time>2024-01-10T16:36:58.919Z</time>
</trkpt>
<trkpt lat="31.2251000" lon="35.2093400">
<ele>604.330017</ele>
<time>2024-01-10T16:36:58.919Z</time>
</trkpt>
<trkpt lat="31.2250500" lon="35.2094500">
<ele>604.619995</ele>
<time>2024-01-10T16:36:58.919Z</time>
</trkpt>
<trkpt lat="31.2250000" lon="35.2095600">
<ele>605.659973</ele>
<time>2024-01-10T16:36:58.919Z</time>
</trkpt>
<trkpt lat="31.2249700" lon="35.2096700">
<ele>607.309998</ele>
<time>2024-01-10T16:36:58.919Z</time>
</trkpt>
<trkpt lat="31.2249400" lon="35.2097300">
<ele>608.080017</ele>
<time>2024-01-10T16:36:58.919Z</time>
</trkpt>
<trkpt lat="31.2248100" lon="35.2098900">
<ele>609.400024</ele>
<time>2024-01-10T16:36:58.919Z</time>
</trkpt>
<trkpt lat="31.2247900" lon="35.2099300">
<ele>609.679993</ele>
<time>2024-01-10T16:36:58.919Z</time>
</trkpt>
<trkpt lat="31.2247600" lon="35.2101000">
<ele>611.260010</ele>
<time>2024-01-10T16:36:58.919Z</time>
</trkpt>
<trkpt lat="31.2247600" lon="35.2102200">
<ele>612.619995</ele>
<time>2024-01-10T16:36:58.919Z</time>
</trkpt>
<trkpt lat="31.2247600" lon="35.2114300">
<ele>625.770020</ele>
<time>2024-01-10T16:36:58.919Z</time>
</trkpt>
<trkpt lat="31.2247700" lon="35.2115400">
<ele>627.539978</ele>
<time>2024-01-10T16:36:58.920Z</time>
</trkpt>
<trkpt lat="31.2248200" lon="35.2118000">
<ele>630.369995</ele>
<time>2024-01-10T16:36:58.920Z</time>
</trkpt>
<trkpt lat="31.2249400" lon="35.2119600">
<ele>631.369995</ele>
<time>2024-01-10T16:36:58.920Z</time>
</trkpt>
<trkpt lat="31.2251000" lon="35.2120400">
<ele>630.510010</ele>
<time>2024-01-10T16:36:58.920Z</time>
</trkpt>
<trkpt lat="31.2251800" lon="35.2120900">
<ele>629.939941</ele>
<time>2024-01-10T16:36:58.920Z</time>
</trkpt>
<trkpt lat="31.2254400" lon="35.2122900">
<ele>629.140015</ele>
<time>2024-01-10T16:36:58.920Z</time>
</trkpt>
<trkpt lat="31.2254700" lon="35.2123400">
<ele>629.290039</ele>
<time>2024-01-10T16:36:58.920Z</time>
</trkpt>
<trkpt lat="31.2255300" lon="35.2124500">
<ele>629.739990</ele>
<time>2024-01-10T16:36:58.920Z</time>
</trkpt>
<trkpt lat="31.2256100" lon="35.2126800">
<ele>630.440002</ele>
<time>2024-01-10T16:36:58.920Z</time>
</trkpt>
<trkpt lat="31.2257300" lon="35.2129700">
<ele>630.919983</ele>
<time>2024-01-10T16:36:58.920Z</time>
</trkpt>
<trkpt lat="31.2257500" lon="35.2130000">
<ele>631.080017</ele>
<time>2024-01-10T16:36:58.920Z</time>
</trkpt>
<trkpt lat="31.2258200" lon="35.2130600">
<ele>631.819946</ele>
<time>2024-01-10T16:36:58.920Z</time>
</trkpt>
<trkpt lat="31.2259600" lon="35.2132400">
<ele>629.299988</ele>
<time>2024-01-10T16:36:58.920Z</time>
</trkpt>
<trkpt lat="31.2260200" lon="35.2133400">
<ele>629.370056</ele>
<time>2024-01-10T16:36:58.920Z</time>
</trkpt>
<trkpt lat="31.2261100" lon="35.2134500">
<ele>630.669983</ele>
<time>2024-01-10T16:36:58.920Z</time>
</trkpt>
<trkpt lat="31.2262600" lon="35.2136700">
<ele>633.050049</ele>
<time>2024-01-10T16:36:58.920Z</time>
</trkpt>
<trkpt lat="31.2263400" lon="35.2137900">
<ele>635.250000</ele>
<time>2024-01-10T16:36:58.921Z</time>
</trkpt>
<trkpt lat="31.2264600" lon="35.2139500">
<ele>636.510010</ele>
<time>2024-01-10T16:36:58.921Z</time>
</trkpt>
<trkpt lat="31.2265900" lon="35.2141500">
<ele>635.220032</ele>
<time>2024-01-10T16:36:58.921Z</time>
</trkpt>
<trkpt lat="31.2266100" lon="35.2141800">
<ele>635.099976</ele>
<time>2024-01-10T16:36:58.921Z</time>
</trkpt>
<trkpt lat="31.2266500" lon="35.2142200">
<ele>634.800049</ele>
<time>2024-01-10T16:36:58.921Z</time>
</trkpt>
<trkpt lat="31.2266600" lon="35.2142500">
<ele>634.679993</ele>
<time>2024-01-10T16:36:58.921Z</time>
</trkpt>
<trkpt lat="31.2267100" lon="35.2142800">
<ele>633.559998</ele>
<time>2024-01-10T16:36:58.921Z</time>
</trkpt>
<trkpt lat="31.2267700" lon="35.2143700">
<ele>631.940002</ele>
<time>2024-01-10T16:36:58.921Z</time>
</trkpt>
<trkpt lat="31.2268900" lon="35.2147200">
<ele>628.009949</ele>
<time>2024-01-10T16:36:58.921Z</time>
</trkpt>
<trkpt lat="31.2269300" lon="35.2147400">
<ele>627.690002</ele>
<time>2024-01-10T16:36:58.921Z</time>
</trkpt>
<trkpt lat="31.2269900" lon="35.2151900">
<ele>620.440002</ele>
<time>2024-01-10T16:36:58.921Z</time>
</trkpt>
<trkpt lat="31.2271200" lon="35.2156900">
<ele>618.529968</ele>
<time>2024-01-10T16:36:58.921Z</time>
</trkpt>
<trkpt lat="31.2273000" lon="35.2161100">
<ele>615.169983</ele>
<time>2024-01-10T16:36:58.921Z</time>
</trkpt>
<trkpt lat="31.2275100" lon="35.2165700">
<ele>614.450012</ele>
<time>2024-01-10T16:36:58.921Z</time>
</trkpt>
<trkpt lat="31.2275900" lon="35.2167800">
<ele>612.910034</ele>
<time>2024-01-10T16:36:58.921Z</time>
</trkpt>
<trkpt lat="31.2277500" lon="35.2173900">
<ele>610.600037</ele>
<time>2024-01-10T16:36:58.921Z</time>
</trkpt>
<trkpt lat="31.2277800" lon="35.2174800">
<ele>610.049988</ele>
<time>2024-01-10T16:36:58.921Z</time>
</trkpt>
<trkpt lat="31.2279600" lon="35.2178500">
<ele>606.770020</ele>
<time>2024-01-10T16:36:58.921Z</time>
</trkpt>
<trkpt lat="31.2282300" lon="35.2184200">
<ele>605.850037</ele>
<time>2024-01-10T16:36:58.921Z</time>
</trkpt>
<trkpt lat="31.2283600" lon="35.2188800">
<ele>603.090027</ele>
<time>2024-01-10T16:36:58.921Z</time>
</trkpt>
<trkpt lat="31.2283800" lon="35.2192700">
<ele>599.219971</ele>
<time>2024-01-10T16:36:58.922Z</time>
</trkpt>
<trkpt lat="31.2283800" lon="35.2194600">
<ele>597.380005</ele>
<time>2024-01-10T16:36:58.922Z</time>
</trkpt>
<trkpt lat="31.2283700" lon="35.2196500">
<ele>597.909973</ele>
<time>2024-01-10T16:36:58.922Z</time>
</trkpt>
<trkpt lat="31.2283500" lon="35.2197700">
<ele>598.369995</ele>
<time>2024-01-10T16:36:58.922Z</time>
</trkpt>
<trkpt lat="31.2282100" lon="35.2200900">
<ele>598.630005</ele>
<time>2024-01-10T16:36:58.922Z</time>
</trkpt>
<trkpt lat="31.2281200" lon="35.2204000">
<ele>598.940002</ele>
<time>2024-01-10T16:36:58.922Z</time>
</trkpt>
<trkpt lat="31.2280900" lon="35.2204300">
<ele>599.359985</ele>
<time>2024-01-10T16:36:58.922Z</time>
</trkpt>
<trkpt lat="31.2280400" lon="35.2205800">
<ele>600.849976</ele>
<time>2024-01-10T16:36:58.922Z</time>
</trkpt>
<trkpt lat="31.2279800" lon="35.2207100">
<ele>600.789978</ele>
<time>2024-01-10T16:36:58.922Z</time>
</trkpt>
<trkpt lat="31.2279100" lon="35.2207800">
<ele>601.119995</ele>
<time>2024-01-10T16:36:58.922Z</time>
</trkpt>
<trkpt lat="31.2276800" lon="35.2209000">
<ele>601.799988</ele>
<time>2024-01-10T16:36:58.922Z</time>
</trkpt>
<trkpt lat="31.2275000" lon="35.2210300">
<ele>602.290039</ele>
<time>2024-01-10T16:36:58.922Z</time>
</trkpt>
<trkpt lat="31.2273800" lon="35.2211200">
<ele>604.140015</ele>
<time>2024-01-10T16:36:58.922Z</time>
</trkpt>
<trkpt lat="31.2272900" lon="35.2212100">
<ele>605.690002</ele>
<time>2024-01-10T16:36:58.922Z</time>
</trkpt>
<trkpt lat="31.2271800" lon="35.2212900">
<ele>607.200012</ele>
<time>2024-01-10T16:36:58.922Z</time>
</trkpt>
<trkpt lat="31.2270100" lon="35.2213900">
<ele>608.520020</ele>
<time>2024-01-10T16:36:58.922Z</time>
</trkpt>
<trkpt lat="31.2269700" lon="35.2214300">
<ele>608.720032</ele>
<time>2024-01-10T16:36:58.922Z</time>
</trkpt>
<trkpt lat="31.2269300" lon="35.2214500">
<ele>608.960022</ele>
<time>2024-01-10T16:36:58.922Z</time>
</trkpt>
<trkpt lat="31.2268900" lon="35.2215000">
<ele>608.880005</ele>
<time>2024-01-10T16:36:58.922Z</time>
</trkpt>
<trkpt lat="31.2268200" lon="35.2216300">
<ele>608.940002</ele>
<time>2024-01-10T16:36:58.922Z</time>
</trkpt>
<trkpt lat="31.2267700" lon="35.2217600">
<ele>607.659973</ele>
<time>2024-01-10T16:36:58.922Z</time>
</trkpt>
<trkpt lat="31.2266800" lon="35.2221600">
<ele>606.690002</ele>
<time>2024-01-10T16:36:58.922Z</time>
</trkpt>
<trkpt lat="31.2266200" lon="35.2226000">
<ele>606.799988</ele>
<time>2024-01-10T16:36:58.923Z</time>
</trkpt>
<trkpt lat="31.2265100" lon="35.2229100">
<ele>606.969971</ele>
<time>2024-01-10T16:36:58.923Z</time>
</trkpt>
<trkpt lat="31.2264900" lon="35.2230900">
<ele>605.909973</ele>
<time>2024-01-10T16:36:58.923Z</time>
</trkpt>
<trkpt lat="31.2264900" lon="35.2233100">
<ele>605.909973</ele>
<time>2024-01-10T16:36:58.923Z</time>
</trkpt>
<trkpt lat="31.2264900" lon="35.2235200">
<ele>605.789978</ele>
<time>2024-01-10T16:36:58.923Z</time>
</trkpt>
<trkpt lat="31.2265000" lon="35.2235800">
<ele>605.799988</ele>
<time>2024-01-10T16:36:58.923Z</time>
</trkpt>
<trkpt lat="31.2265300" lon="35.2236400">
<ele>605.760010</ele>
<time>2024-01-10T16:36:58.923Z</time>
</trkpt>
<trkpt lat="31.2265900" lon="35.2237400">
<ele>605.599976</ele>
<time>2024-01-10T16:36:58.923Z</time>
</trkpt>
<trkpt lat="31.2267900" lon="35.2239200">
<ele>608.599976</ele>
<time>2024-01-10T16:36:58.923Z</time>
</trkpt>
<trkpt lat="31.2268700" lon="35.2240400">
<ele>610.250000</ele>
<time>2024-01-10T16:36:58.923Z</time>
</trkpt>
<trkpt lat="31.2269000" lon="35.2241200">
<ele>610.909973</ele>
<time>2024-01-10T16:36:58.923Z</time>
</trkpt>
<trkpt lat="31.2269200" lon="35.2242600">
<ele>611.970032</ele>
<time>2024-01-10T16:36:58.923Z</time>
</trkpt>
<trkpt lat="31.2269400" lon="35.2243300">
<ele>613.040039</ele>
<time>2024-01-10T16:36:58.923Z</time>
</trkpt>
<trkpt lat="31.2271000" lon="35.2247200">
<ele>614.799988</ele>
<time>2024-01-10T16:36:58.923Z</time>
</trkpt>
<trkpt lat="31.2271500" lon="35.2250300">
<ele>615.950012</ele>
<time>2024-01-10T16:36:58.923Z</time>
</trkpt>
<trkpt lat="31.2272500" lon="35.2252600">
<ele>617.809998</ele>
<time>2024-01-10T16:36:58.923Z</time>
</trkpt>
<trkpt lat="31.2272900" lon="35.2253600">
<ele>617.289978</ele>
<time>2024-01-10T16:36:58.923Z</time>
</trkpt>
<trkpt lat="31.2274000" lon="35.2255900">
<ele>616.179993</ele>
<time>2024-01-10T16:36:58.923Z</time>
</trkpt>
<trkpt lat="31.2274600" lon="35.2257500">
<ele>615.739990</ele>
<time>2024-01-10T16:36:58.923Z</time>
</trkpt>
<trkpt lat="31.2275000" lon="35.2260600">
<ele>616.000000</ele>
<time>2024-01-10T16:36:58.923Z</time>
</trkpt>
<trkpt lat="31.2275200" lon="35.2264600">
<ele>613.649963</ele>
<time>2024-01-10T16:36:58.923Z</time>
</trkpt>
<trkpt lat="31.2275500" lon="35.2266800">
<ele>612.500000</ele>
<time>2024-01-10T16:36:58.924Z</time>
</trkpt>
<trkpt lat="31.2275600" lon="35.2267900">
<ele>611.330017</ele>
<time>2024-01-10T16:36:58.924Z</time>
</trkpt>
<trkpt lat="31.2275900" lon="35.2270600">
<ele>608.970032</ele>
<time>2024-01-10T16:36:58.924Z</time>
</trkpt>
<trkpt lat="31.2276300" lon="35.2273200">
<ele>608.899963</ele>
<time>2024-01-10T16:36:58.924Z</time>
</trkpt>
<trkpt lat="31.2278200" lon="35.2277200">
<ele>613.030029</ele>
<time>2024-01-10T16:36:58.924Z</time>
</trkpt>
<trkpt lat="31.2278000" lon="35.2283000">
<ele>610.119995</ele>
<time>2024-01-10T16:36:58.924Z</time>
</trkpt>
<trkpt lat="31.2276600" lon="35.2287700">
<ele>608.669983</ele>
<time>2024-01-10T16:36:58.924Z</time>
</trkpt>
<trkpt lat="31.2255900" lon="35.2298300">
<ele>601.190002</ele>
<time>2024-01-10T16:36:58.924Z</time>
</trkpt>
<trkpt lat="31.2251400" lon="35.2301400">
<ele>608.950012</ele>
<time>2024-01-10T16:36:58.924Z</time>
</trkpt>
<trkpt lat="31.2250100" lon="35.2302000">
<ele>611.540039</ele>
<time>2024-01-10T16:36:58.924Z</time>
</trkpt>
<trkpt lat="31.2245600" lon="35.2301500">
<ele>610.959961</ele>
<time>2024-01-10T16:36:58.924Z</time>
</trkpt>
<trkpt lat="31.2241900" lon="35.2301700">
<ele>607.269958</ele>
<time>2024-01-10T16:36:58.924Z</time>
</trkpt>
<trkpt lat="31.2238000" lon="35.2300900">
<ele>603.179993</ele>
<time>2024-01-10T16:36:58.924Z</time>
</trkpt>
<trkpt lat="31.2242100" lon="35.2302100">
<ele>606.260010</ele>
<time>2024-01-10T16:36:58.924Z</time>
</trkpt>
<trkpt lat="31.2246200" lon="35.2301900">
<ele>610.659973</ele>
<time>2024-01-10T16:36:58.924Z</time>
</trkpt>
<trkpt lat="31.2250100" lon="35.2302500">
<ele>610.959961</ele>
<time>2024-01-10T16:36:58.924Z</time>
</trkpt>
<trkpt lat="31.2251700" lon="35.2310400">
<ele>597.039978</ele>
<time>2024-01-10T16:36:58.924Z</time>
</trkpt>
<trkpt lat="31.2252300" lon="35.2315900">
<ele>599.960022</ele>
<time>2024-01-10T16:36:58.924Z</time>
</trkpt>
<trkpt lat="31.2252300" lon="35.2312600">
<ele>597.280029</ele>
<time>2024-01-10T16:36:58.924Z</time>
</trkpt>
<trkpt lat="31.2251100" lon="35.2308600">
<ele>598.570007</ele>
<time>2024-01-10T16:36:58.924Z</time>
</trkpt>
<trkpt lat="31.2250400" lon="35.2305200">
<ele>604.700012</ele>
<time>2024-01-10T16:36:58.924Z</time>
</trkpt>
<trkpt lat="31.2250400" lon="35.2302800">
<ele>609.520020</ele>
<time>2024-01-10T16:36:58.924Z</time>
</trkpt>
<trkpt lat="31.2248000" lon="35.2302300">
<ele>611.169983</ele>
<time>2024-01-10T16:36:58.924Z</time>
</trkpt>
<trkpt lat="31.2250300" lon="35.2302500">
<ele>610.279968</ele>
<time>2024-01-10T16:36:58.924Z</time>
</trkpt>
<trkpt lat="31.2251600" lon="35.2301000">
<ele>609.369995</ele>
<time>2024-01-10T16:36:58.924Z</time>
</trkpt>
<trkpt lat="31.2263000" lon="35.2294400">
<ele>591.980042</ele>
<time>2024-01-10T16:36:58.924Z</time>
</trkpt>
<trkpt lat="31.2277000" lon="35.2287800">
<ele>608.669983</ele>
<time>2024-01-10T16:36:58.924Z</time>
</trkpt>
<trkpt lat="31.2278500" lon="35.2282300">
<ele>610.369995</ele>
<time>2024-01-10T16:36:58.925Z</time>
</trkpt>
<trkpt lat="31.2278900" lon="35.2278300">
<ele>612.950012</ele>
<time>2024-01-10T16:36:58.925Z</time>
</trkpt>
<trkpt lat="31.2284500" lon="35.2281000">
<ele>601.510010</ele>
<time>2024-01-10T16:36:58.925Z</time>
</trkpt>
<trkpt lat="31.2284800" lon="35.2281300">
<ele>600.359985</ele>
<time>2024-01-10T16:36:58.925Z</time>
</trkpt>
<trkpt lat="31.2285400" lon="35.2281900">
<ele>597.979980</ele>
<time>2024-01-10T16:36:58.925Z</time>
</trkpt>
<trkpt lat="31.2286300" lon="35.2282700">
<ele>594.510010</ele>
<time>2024-01-10T16:36:58.925Z</time>
</trkpt>
<trkpt lat="31.2288200" lon="35.2283000">
<ele>590.359985</ele>
<time>2024-01-10T16:36:58.925Z</time>
</trkpt>
<trkpt lat="31.2289700" lon="35.2283100">
<ele>586.979980</ele>
<time>2024-01-10T16:36:58.925Z</time>
</trkpt>
<trkpt lat="31.2291500" lon="35.2283100">
<ele>582.500000</ele>
<time>2024-01-10T16:36:58.925Z</time>
</trkpt>
<trkpt lat="31.2294200" lon="35.2283300">
<ele>580.109985</ele>
<time>2024-01-10T16:36:58.925Z</time>
</trkpt>
<trkpt lat="31.2295700" lon="35.2283500">
<ele>581.580017</ele>
<time>2024-01-10T16:36:58.925Z</time>
</trkpt>
<trkpt lat="31.2297200" lon="35.2284000">
<ele>582.539978</ele>
<time>2024-01-10T16:36:58.925Z</time>
</trkpt>
<trkpt lat="31.2298700" lon="35.2284700">
<ele>581.299988</ele>
<time>2024-01-10T16:36:58.925Z</time>
</trkpt>
<trkpt lat="31.2299900" lon="35.2285800">
<ele>580.280029</ele>
<time>2024-01-10T16:36:58.925Z</time>
</trkpt>
<trkpt lat="31.2301000" lon="35.2287000">
<ele>576.750000</ele>
<time>2024-01-10T16:36:58.925Z</time>
</trkpt>
<trkpt lat="31.2304600" lon="35.2290400">
<ele>568.600037</ele>
<time>2024-01-10T16:36:58.925Z</time>
</trkpt>
<trkpt lat="31.2305000" lon="35.2290900">
<ele>567.900024</ele>
<time>2024-01-10T16:36:58.925Z</time>
</trkpt>
<trkpt lat="31.2306900" lon="35.2295000">
<ele>561.690002</ele>
<time>2024-01-10T16:36:58.925Z</time>
</trkpt>
<trkpt lat="31.2307900" lon="35.2296500">
<ele>562.059998</ele>
<time>2024-01-10T16:36:58.925Z</time>
</trkpt>
<trkpt lat="31.2308400" lon="35.2297100">
<ele>562.200012</ele>
<time>2024-01-10T16:36:58.925Z</time>
</trkpt>
<trkpt lat="31.2309000" lon="35.2297600">
<ele>561.630005</ele>
<time>2024-01-10T16:36:58.925Z</time>
</trkpt>
<trkpt lat="31.2310700" lon="35.2298400">
<ele>561.450012</ele>
<time>2024-01-10T16:36:58.926Z</time>
</trkpt>
<trkpt lat="31.2312000" lon="35.2299300">
<ele>561.549988</ele>
<time>2024-01-10T16:36:58.926Z</time>
</trkpt>
<trkpt lat="31.2312600" lon="35.2300000">
<ele>561.609985</ele>
<time>2024-01-10T16:36:58.926Z</time>
</trkpt>
<trkpt lat="31.2313500" lon="35.2301500">
<ele>561.349976</ele>
<time>2024-01-10T16:36:58.926Z</time>
</trkpt>
<trkpt lat="31.2316400" lon="35.2309900">
<ele>556.130005</ele>
<time>2024-01-10T16:36:58.926Z</time>
</trkpt>
<trkpt lat="31.2316700" lon="35.2310600">
<ele>557.669983</ele>
<time>2024-01-10T16:36:58.926Z</time>
</trkpt>
<trkpt lat="31.2317700" lon="35.2318500">
<ele>556.260010</ele>
<time>2024-01-10T16:36:58.926Z</time>
</trkpt>
<trkpt lat="31.2320700" lon="35.2329700">
<ele>541.649963</ele>
<time>2024-01-10T16:36:58.926Z</time>
</trkpt>
<trkpt lat="31.2320700" lon="35.2331000">
<ele>541.769958</ele>
<time>2024-01-10T16:36:58.926Z</time>
</trkpt>
<trkpt lat="31.2320700" lon="35.2335600">
<ele>545.450012</ele>
<time>2024-01-10T16:36:58.926Z</time>
</trkpt>
<trkpt lat="31.2320600" lon="35.2336600">
<ele>545.910034</ele>
<time>2024-01-10T16:36:58.926Z</time>
</trkpt>
<trkpt lat="31.2318600" lon="35.2343500">
<ele>543.380005</ele>
<time>2024-01-10T16:36:58.926Z</time>
</trkpt>
<trkpt lat="31.2318000" lon="35.2345900">
<ele>542.920044</ele>
<time>2024-01-10T16:36:58.926Z</time>
</trkpt>
<trkpt lat="31.2317600" lon="35.2353000">
<ele>540.409973</ele>
<time>2024-01-10T16:36:58.926Z</time>
</trkpt>
<trkpt lat="31.2317700" lon="35.2354800">
<ele>538.489990</ele>
<time>2024-01-10T16:36:58.926Z</time>
</trkpt>
<trkpt lat="31.2318100" lon="35.2358100">
<ele>536.309998</ele>
<time>2024-01-10T16:36:58.926Z</time>
</trkpt>
<trkpt lat="31.2318600" lon="35.2359700">
<ele>536.530029</ele>
<time>2024-01-10T16:36:58.926Z</time>
</trkpt>
<trkpt lat="31.2318800" lon="35.2360000">
<ele>536.869995</ele>
<time>2024-01-10T16:36:58.926Z</time>
</trkpt>
<trkpt lat="31.2319700" lon="35.2360600">
<ele>537.650024</ele>
<time>2024-01-10T16:36:58.926Z</time>
</trkpt>
<trkpt lat="31.2320300" lon="35.2361600">
<ele>535.750000</ele>
<time>2024-01-10T16:36:58.926Z</time>
</trkpt>
<trkpt lat="31.2320800" lon="35.2362600">
<ele>533.739990</ele>
<time>2024-01-10T16:36:58.926Z</time>
</trkpt>
<trkpt lat="31.2322200" lon="35.2367200">
<ele>527.210022</ele>
<time>2024-01-10T16:36:58.926Z</time>
</trkpt>
<trkpt lat="31.2322300" lon="35.2369000">
<ele>527.659973</ele>
<time>2024-01-10T16:36:58.927Z</time>
</trkpt>
<trkpt lat="31.2322300" lon="35.2371500">
<ele>532.269958</ele>
<time>2024-01-10T16:36:58.927Z</time>
</trkpt>
<trkpt lat="31.2322200" lon="35.2372800">
<ele>535.010010</ele>
<time>2024-01-10T16:36:58.927Z</time>
</trkpt>
<trkpt lat="31.2321800" lon="35.2373300">
<ele>535.510010</ele>
<time>2024-01-10T16:36:58.927Z</time>
</trkpt>
<trkpt lat="31.2321400" lon="35.2373500">
<ele>535.519958</ele>
<time>2024-01-10T16:36:58.927Z</time>
</trkpt>
<trkpt lat="31.2321200" lon="35.2374200">
<ele>536.869995</ele>
<time>2024-01-10T16:36:58.927Z</time>
</trkpt>
<trkpt lat="31.2321200" lon="35.2375100">
<ele>538.729980</ele>
<time>2024-01-10T16:36:58.927Z</time>
</trkpt>
<trkpt lat="31.2321500" lon="35.2375700">
<ele>539.380005</ele>
<time>2024-01-10T16:36:58.927Z</time>
</trkpt>
<trkpt lat="31.2321800" lon="35.2376800">
<ele>540.340027</ele>
<time>2024-01-10T16:36:58.927Z</time>
</trkpt>
<trkpt lat="31.2321800" lon="35.2377300">
<ele>540.760010</ele>
<time>2024-01-10T16:36:58.927Z</time>
</trkpt>
<trkpt lat="31.2321600" lon="35.2376700">
<ele>540.270020</ele>
<time>2024-01-10T16:36:58.927Z</time>
</trkpt>
<trkpt lat="31.2321400" lon="35.2376300">
<ele>539.919983</ele>
<time>2024-01-10T16:36:58.927Z</time>
</trkpt>
<trkpt lat="31.2321300" lon="35.2376000">
<ele>539.630005</ele>
<time>2024-01-10T16:36:58.927Z</time>
</trkpt>
<trkpt lat="31.2321300" lon="35.2375500">
<ele>539.150024</ele>
<time>2024-01-10T16:36:58.927Z</time>
</trkpt>
<trkpt lat="31.2322000" lon="35.2372500">
<ele>534.200012</ele>
<time>2024-01-10T16:36:58.927Z</time>
</trkpt>
<trkpt lat="31.2322100" lon="35.2370700">
<ele>530.609985</ele>
<time>2024-01-10T16:36:58.927Z</time>
</trkpt>
<trkpt lat="31.2322100" lon="35.2367900">
<ele>527.500000</ele>
<time>2024-01-10T16:36:58.927Z</time>
</trkpt>
<trkpt lat="31.2321800" lon="35.2367300">
<ele>527.549988</ele>
<time>2024-01-10T16:36:58.927Z</time>
</trkpt>
<trkpt lat="31.2318900" lon="35.2367200">
<ele>528.320007</ele>
<time>2024-01-10T16:36:58.927Z</time>
</trkpt>
<trkpt lat="31.2318400" lon="35.2367300">
<ele>527.229980</ele>
<time>2024-01-10T16:36:58.927Z</time>
</trkpt>
<trkpt lat="31.2317800" lon="35.2368400">
<ele>525.309998</ele>
<time>2024-01-10T16:36:58.927Z</time>
</trkpt>
<trkpt lat="31.2316600" lon="35.2369500">
<ele>522.849976</ele>
<time>2024-01-10T16:36:58.927Z</time>
</trkpt>
<trkpt lat="31.2313500" lon="35.2372500">
<ele>521.099976</ele>
<time>2024-01-10T16:36:58.927Z</time>
</trkpt>
<trkpt lat="31.2308600" lon="35.2379100">
<ele>513.059998</ele>
<time>2024-01-10T16:36:58.927Z</time>
</trkpt>
<trkpt lat="31.2308000" lon="35.2381000">
<ele>512.859985</ele>
<time>2024-01-10T16:36:58.927Z</time>
</trkpt>
<trkpt lat="31.2307800" lon="35.2385200">
<ele>510.600006</ele>
<time>2024-01-10T16:36:58.927Z</time>
</trkpt>
<trkpt lat="31.2307800" lon="35.2385800">
<ele>509.950012</ele>
<time>2024-01-10T16:36:58.927Z</time>
</trkpt>
<trkpt lat="31.2308100" lon="35.2387200">
<ele>508.330017</ele>
<time>2024-01-10T16:36:58.928Z</time>
</trkpt>
<trkpt lat="31.2308500" lon="35.2388000">
<ele>507.459991</ele>
<time>2024-01-10T16:36:58.928Z</time>
</trkpt>
<trkpt lat="31.2310100" lon="35.2390400">
<ele>505.930023</ele>
<time>2024-01-10T16:36:58.928Z</time>
</trkpt>
<trkpt lat="31.2311200" lon="35.2391800">
<ele>504.780029</ele>
<time>2024-01-10T16:36:58.928Z</time>
</trkpt>
<trkpt lat="31.2313700" lon="35.2394700">
<ele>500.719971</ele>
<time>2024-01-10T16:36:58.928Z</time>
</trkpt>
<trkpt lat="31.2314200" lon="35.2395700">
<ele>499.589996</ele>
<time>2024-01-10T16:36:58.928Z</time>
</trkpt>
<trkpt lat="31.2314500" lon="35.2398600">
<ele>495.130005</ele>
<time>2024-01-10T16:36:58.928Z</time>
</trkpt>
<trkpt lat="31.2316100" lon="35.2401700">
<ele>491.989990</ele>
<time>2024-01-10T16:36:58.928Z</time>
</trkpt>
<trkpt lat="31.2318900" lon="35.2406000">
<ele>487.170013</ele>
<time>2024-01-10T16:36:58.928Z</time>
</trkpt>
<trkpt lat="31.2319800" lon="35.2407400">
<ele>483.830017</ele>
<time>2024-01-10T16:36:58.928Z</time>
</trkpt>
<trkpt lat="31.2320900" lon="35.2408300">
<ele>479.399994</ele>
<time>2024-01-10T16:36:58.928Z</time>
</trkpt>
<trkpt lat="31.2325400" lon="35.2410000">
<ele>472.429993</ele>
<time>2024-01-10T16:36:58.928Z</time>
</trkpt>
<trkpt lat="31.2326500" lon="35.2410700">
<ele>471.929993</ele>
<time>2024-01-10T16:36:58.928Z</time>
</trkpt>
<trkpt lat="31.2326600" lon="35.2411200">
<ele>471.770020</ele>
<time>2024-01-10T16:36:58.928Z</time>
</trkpt>
<trkpt lat="31.2326600" lon="35.2412600">
<ele>470.470001</ele>
<time>2024-01-10T16:36:58.928Z</time>
</trkpt>
<trkpt lat="31.2326500" lon="35.2413200">
<ele>470.010010</ele>
<time>2024-01-10T16:36:58.928Z</time>
</trkpt>
<trkpt lat="31.2325800" lon="35.2414400">
<ele>469.429993</ele>
<time>2024-01-10T16:36:58.928Z</time>
</trkpt>
<trkpt lat="31.2325200" lon="35.2414900">
<ele>469.609985</ele>
<time>2024-01-10T16:36:58.928Z</time>
</trkpt>
<trkpt lat="31.2322500" lon="35.2418900">
<ele>463.450012</ele>
<time>2024-01-10T16:36:58.928Z</time>
</trkpt>
<trkpt lat="31.2321300" lon="35.2420600">
<ele>461.670013</ele>
<time>2024-01-10T16:36:58.928Z</time>
</trkpt>
<trkpt lat="31.2320900" lon="35.2421100">
<ele>461.100006</ele>
<time>2024-01-10T16:36:58.928Z</time>
</trkpt>
<trkpt lat="31.2320500" lon="35.2421600">
<ele>460.519989</ele>
<time>2024-01-10T16:36:58.928Z</time>
</trkpt>
<trkpt lat="31.2319900" lon="35.2422000">
<ele>459.660004</ele>
<time>2024-01-10T16:36:58.928Z</time>
</trkpt>
<trkpt lat="31.2318900" lon="35.2422800">
<ele>457.489990</ele>
<time>2024-01-10T16:36:58.928Z</time>
</trkpt>
<trkpt lat="31.2317600" lon="35.2423400">
<ele>453.750000</ele>
<time>2024-01-10T16:36:58.928Z</time>
</trkpt>
<trkpt lat="31.2315600" lon="35.2423900">
<ele>448.899994</ele>
<time>2024-01-10T16:36:58.928Z</time>
</trkpt>
<trkpt lat="31.2310200" lon="35.2424400">
<ele>437.860016</ele>
<time>2024-01-10T16:36:58.928Z</time>
</trkpt>
<trkpt lat="31.2309900" lon="35.2425900">
<ele>436.639984</ele>
<time>2024-01-10T16:36:58.929Z</time>
</trkpt>
<trkpt lat="31.2309800" lon="35.2427500">
<ele>436.159973</ele>
<time>2024-01-10T16:36:58.929Z</time>
</trkpt>
<trkpt lat="31.2310000" lon="35.2430500">
<ele>434.640015</ele>
<time>2024-01-10T16:36:58.929Z</time>
</trkpt>
<trkpt lat="31.2310000" lon="35.2431300">
<ele>434.170013</ele>
<time>2024-01-10T16:36:58.929Z</time>
</trkpt>
<trkpt lat="31.2310100" lon="35.2433000">
<ele>433.379974</ele>
<time>2024-01-10T16:36:58.929Z</time>
</trkpt>
<trkpt lat="31.2310100" lon="35.2435100">
<ele>431.040009</ele>
<time>2024-01-10T16:36:58.929Z</time>
</trkpt>
<trkpt lat="31.2310200" lon="35.2438300">
<ele>425.559998</ele>
<time>2024-01-10T16:36:58.929Z</time>
</trkpt>
<trkpt lat="31.2310300" lon="35.2441400">
<ele>421.560028</ele>
<time>2024-01-10T16:36:58.929Z</time>
</trkpt>
<trkpt lat="31.2311500" lon="35.2445200">
<ele>416.590027</ele>
<time>2024-01-10T16:36:58.929Z</time>
</trkpt>
<trkpt lat="31.2311800" lon="35.2445700">
<ele>415.430023</ele>
<time>2024-01-10T16:36:58.929Z</time>
</trkpt>
<trkpt lat="31.2312000" lon="35.2446200">
<ele>414.150024</ele>
<time>2024-01-10T16:36:58.929Z</time>
</trkpt>
<trkpt lat="31.2312700" lon="35.2447300">
<ele>410.540009</ele>
<time>2024-01-10T16:36:58.929Z</time>
</trkpt>
<trkpt lat="31.2316100" lon="35.2448400">
<ele>399.049988</ele>
<time>2024-01-10T16:36:58.929Z</time>
</trkpt>
<trkpt lat="31.2317800" lon="35.2448500">
<ele>397.299988</ele>
<time>2024-01-10T16:36:58.929Z</time>
</trkpt>
<trkpt lat="31.2318700" lon="35.2448500">
<ele>397.480011</ele>
<time>2024-01-10T16:36:58.929Z</time>
</trkpt>
<trkpt lat="31.2319400" lon="35.2448300">
<ele>397.830017</ele>
<time>2024-01-10T16:36:58.929Z</time>
</trkpt>
<trkpt lat="31.2320200" lon="35.2447800">
<ele>398.429993</ele>
<time>2024-01-10T16:36:58.929Z</time>
</trkpt>
<trkpt lat="31.2320600" lon="35.2447700">
<ele>398.559998</ele>
<time>2024-01-10T16:36:58.929Z</time>
</trkpt>
<trkpt lat="31.2321500" lon="35.2447700">
<ele>398.610016</ele>
<time>2024-01-10T16:36:58.929Z</time>
</trkpt>
<trkpt lat="31.2322600" lon="35.2448700">
<ele>397.660004</ele>
<time>2024-01-10T16:36:58.929Z</time>
</trkpt>
<trkpt lat="31.2324300" lon="35.2452300">
<ele>391.980011</ele>
<time>2024-01-10T16:36:58.929Z</time>
</trkpt>
<trkpt lat="31.2324700" lon="35.2453000">
<ele>390.449982</ele>
<time>2024-01-10T16:36:58.929Z</time>
</trkpt>
<trkpt lat="31.2325500" lon="35.2454300">
<ele>386.710022</ele>
<time>2024-01-10T16:36:58.929Z</time>
</trkpt>
<trkpt lat="31.2326500" lon="35.2455000">
<ele>385.029999</ele>
<time>2024-01-10T16:36:58.929Z</time>
</trkpt>
<trkpt lat="31.2327300" lon="35.2455400">
<ele>384.230011</ele>
<time>2024-01-10T16:36:58.929Z</time>
</trkpt>
<trkpt lat="31.2327800" lon="35.2455600">
<ele>383.920013</ele>
<time>2024-01-10T16:36:58.929Z</time>
</trkpt>
<trkpt lat="31.2327900" lon="35.2455900">
<ele>383.429993</ele>
<time>2024-01-10T16:36:58.930Z</time>
</trkpt>
<trkpt lat="31.2328000" lon="35.2458400">
<ele>379.919983</ele>
<time>2024-01-10T16:36:58.930Z</time>
</trkpt>
<trkpt lat="31.2326700" lon="35.2461600">
<ele>376.180023</ele>
<time>2024-01-10T16:36:58.930Z</time>
</trkpt>
<trkpt lat="31.2325700" lon="35.2462500">
<ele>375.750000</ele>
<time>2024-01-10T16:36:58.930Z</time>
</trkpt>
<trkpt lat="31.2325200" lon="35.2462700">
<ele>375.629974</ele>
<time>2024-01-10T16:36:58.930Z</time>
</trkpt>
<trkpt lat="31.2317900" lon="35.2463300">
<ele>352.709991</ele>
<time>2024-01-10T16:36:58.930Z</time>
</trkpt>
<trkpt lat="31.2311000" lon="35.2463300">
<ele>349.070007</ele>
<time>2024-01-10T16:36:58.930Z</time>
</trkpt>
<trkpt lat="31.2305400" lon="35.2464400">
<ele>342.759979</ele>
<time>2024-01-10T16:36:58.930Z</time>
</trkpt>
<trkpt lat="31.2296300" lon="35.2465400">
<ele>352.240021</ele>
<time>2024-01-10T16:36:58.930Z</time>
</trkpt>
<trkpt lat="31.2295300" lon="35.2465800">
<ele>352.320007</ele>
<time>2024-01-10T16:36:58.930Z</time>
</trkpt>
<trkpt lat="31.2293400" lon="35.2466700">
<ele>351.640015</ele>
<time>2024-01-10T16:36:58.930Z</time>
</trkpt>
<trkpt lat="31.2291900" lon="35.2467900">
<ele>352.299988</ele>
<time>2024-01-10T16:36:58.930Z</time>
</trkpt>
<trkpt lat="31.2290800" lon="35.2468900">
<ele>351.910004</ele>
<time>2024-01-10T16:36:58.930Z</time>
</trkpt>
<trkpt lat="31.2290600" lon="35.2469200">
<ele>351.850006</ele>
<time>2024-01-10T16:36:58.930Z</time>
</trkpt>
<trkpt lat="31.2290200" lon="35.2469800">
<ele>351.559998</ele>
<time>2024-01-10T16:36:58.930Z</time>
</trkpt>
<trkpt lat="31.2289900" lon="35.2470600">
<ele>351.500000</ele>
<time>2024-01-10T16:36:58.930Z</time>
</trkpt>
<trkpt lat="31.2286900" lon="35.2472700">
<ele>344.379974</ele>
<time>2024-01-10T16:36:58.930Z</time>
</trkpt>
<trkpt lat="31.2285200" lon="35.2475700">
<ele>341.489990</ele>
<time>2024-01-10T16:36:58.930Z</time>
</trkpt>
<trkpt lat="31.2285000" lon="35.2476600">
<ele>341.450012</ele>
<time>2024-01-10T16:36:58.930Z</time>
</trkpt>
<trkpt lat="31.2286200" lon="35.2482100">
<ele>344.120026</ele>
<time>2024-01-10T16:36:58.930Z</time>
</trkpt>
<trkpt lat="31.2286400" lon="35.2482700">
<ele>344.609985</ele>
<time>2024-01-10T16:36:58.930Z</time>
</trkpt>
<trkpt lat="31.2287900" lon="35.2484700">
<ele>339.499969</ele>
<time>2024-01-10T16:36:58.930Z</time>
</trkpt>
<trkpt lat="31.2289700" lon="35.2486100">
<ele>333.849976</ele>
<time>2024-01-10T16:36:58.930Z</time>
</trkpt>
<trkpt lat="31.2290400" lon="35.2487100">
<ele>331.040009</ele>
<time>2024-01-10T16:36:58.930Z</time>
</trkpt>
<trkpt lat="31.2290700" lon="35.2488600">
<ele>327.910004</ele>
<time>2024-01-10T16:36:58.930Z</time>
</trkpt>
<trkpt lat="31.2290800" lon="35.2491900">
<ele>322.399994</ele>
<time>2024-01-10T16:36:58.930Z</time>
</trkpt>
<trkpt lat="31.2290800" lon="35.2493500">
<ele>321.320007</ele>
<time>2024-01-10T16:36:58.930Z</time>
</trkpt>
<trkpt lat="31.2289100" lon="35.2496800">
<ele>317.860016</ele>
<time>2024-01-10T16:36:58.931Z</time>
</trkpt>
<trkpt lat="31.2288500" lon="35.2498500">
<ele>318.339996</ele>
<time>2024-01-10T16:36:58.931Z</time>
</trkpt>
<trkpt lat="31.2287600" lon="35.2499600">
<ele>319.330017</ele>
<time>2024-01-10T16:36:58.931Z</time>
</trkpt>
<trkpt lat="31.2287300" lon="35.2500000">
<ele>319.719971</ele>
<time>2024-01-10T16:36:58.931Z</time>
</trkpt>
<trkpt lat="31.2287200" lon="35.2501300">
<ele>320.109985</ele>
<time>2024-01-10T16:36:58.931Z</time>
</trkpt>
<trkpt lat="31.2287100" lon="35.2504700">
<ele>323.589996</ele>
<time>2024-01-10T16:36:58.931Z</time>
</trkpt>
<trkpt lat="31.2287100" lon="35.2505700">
<ele>325.049988</ele>
<time>2024-01-10T16:36:58.931Z</time>
</trkpt>
<trkpt lat="31.2287000" lon="35.2506100">
<ele>325.499969</ele>
<time>2024-01-10T16:36:58.931Z</time>
</trkpt>
<trkpt lat="31.2287100" lon="35.2508100">
<ele>327.029999</ele>
<time>2024-01-10T16:36:58.931Z</time>
</trkpt>
<trkpt lat="31.2287300" lon="35.2510700">
<ele>325.159973</ele>
<time>2024-01-10T16:36:58.931Z</time>
</trkpt>
<trkpt lat="31.2287600" lon="35.2511900">
<ele>323.750000</ele>
<time>2024-01-10T16:36:58.931Z</time>
</trkpt>
<trkpt lat="31.2287800" lon="35.2515600">
<ele>321.479980</ele>
<time>2024-01-10T16:36:58.931Z</time>
</trkpt>
<trkpt lat="31.2287700" lon="35.2517500">
<ele>320.679993</ele>
<time>2024-01-10T16:36:58.931Z</time>
</trkpt>
<trkpt lat="31.2287200" lon="35.2522100">
<ele>317.160004</ele>
<time>2024-01-10T16:36:58.931Z</time>
</trkpt>
<trkpt lat="31.2287100" lon="35.2525000">
<ele>314.220001</ele>
<time>2024-01-10T16:36:58.931Z</time>
</trkpt>
<trkpt lat="31.2286700" lon="35.2533200">
<ele>311.089996</ele>
<time>2024-01-10T16:36:58.931Z</time>
</trkpt>
<trkpt lat="31.2287000" lon="35.2534000">
<ele>310.760010</ele>
<time>2024-01-10T16:36:58.931Z</time>
</trkpt>
<trkpt lat="31.2287400" lon="35.2534500">
<ele>310.579987</ele>
<time>2024-01-10T16:36:58.931Z</time>
</trkpt>
<trkpt lat="31.2287900" lon="35.2534800">
<ele>310.470001</ele>
<time>2024-01-10T16:36:58.931Z</time>
</trkpt>
<trkpt lat="31.2288200" lon="35.2535000">
<ele>310.399994</ele>
<time>2024-01-10T16:36:58.931Z</time>
</trkpt>
<trkpt lat="31.2289800" lon="35.2535500">
<ele>310.950012</ele>
<time>2024-01-10T16:36:58.931Z</time>
</trkpt>
<trkpt lat="31.2294400" lon="35.2537200">
<ele>313.369995</ele>
<time>2024-01-10T16:36:58.931Z</time>
</trkpt>
<trkpt lat="31.2294600" lon="35.2537400">
<ele>313.640015</ele>
<time>2024-01-10T16:36:58.931Z</time>
</trkpt>
<trkpt lat="31.2296100" lon="35.2539400">
<ele>315.300018</ele>
<time>2024-01-10T16:36:58.931Z</time>
</trkpt>
<trkpt lat="31.2296600" lon="35.2540300">
<ele>315.950012</ele>
<time>2024-01-10T16:36:58.931Z</time>
</trkpt>
<trkpt lat="31.2296800" lon="35.2540500">
<ele>316.190002</ele>
<time>2024-01-10T16:36:58.931Z</time>
</trkpt>
<trkpt lat="31.2298200" lon="35.2542100">
<ele>316.690002</ele>
<time>2024-01-10T16:36:58.931Z</time>
</trkpt>
<trkpt lat="31.2298600" lon="35.2542500">
<ele>316.399994</ele>
<time>2024-01-10T16:36:58.932Z</time>
</trkpt>
<trkpt lat="31.2299000" lon="35.2543000">
<ele>316.039978</ele>
<time>2024-01-10T16:36:58.932Z</time>
</trkpt>
<trkpt lat="31.2300400" lon="35.2544800">
<ele>315.130005</ele>
<time>2024-01-10T16:36:58.932Z</time>
</trkpt>
<trkpt lat="31.2301300" lon="35.2546300">
<ele>315.669983</ele>
<time>2024-01-10T16:36:58.932Z</time>
</trkpt>
<trkpt lat="31.2301500" lon="35.2546600">
<ele>315.780029</ele>
<time>2024-01-10T16:36:58.932Z</time>
</trkpt>
<trkpt lat="31.2301900" lon="35.2547100">
<ele>315.959991</ele>
<time>2024-01-10T16:36:58.932Z</time>
</trkpt>
<trkpt lat="31.2302300" lon="35.2547800">
<ele>315.789978</ele>
<time>2024-01-10T16:36:58.932Z</time>
</trkpt>
<trkpt lat="31.2303700" lon="35.2549300">
<ele>314.920013</ele>
<time>2024-01-10T16:36:58.932Z</time>
</trkpt>
<trkpt lat="31.2304000" lon="35.2549600">
<ele>314.700012</ele>
<time>2024-01-10T16:36:58.932Z</time>
</trkpt>
<trkpt lat="31.2304300" lon="35.2549900">
<ele>314.490021</ele>
<time>2024-01-10T16:36:58.932Z</time>
</trkpt>
<trkpt lat="31.2304900" lon="35.2550500">
<ele>314.100006</ele>
<time>2024-01-10T16:36:58.932Z</time>
</trkpt>
<trkpt lat="31.2305300" lon="35.2550700">
<ele>313.859985</ele>
<time>2024-01-10T16:36:58.932Z</time>
</trkpt>
<trkpt lat="31.2306400" lon="35.2551500">
<ele>313.460022</ele>
<time>2024-01-10T16:36:58.932Z</time>
</trkpt>
<trkpt lat="31.2307700" lon="35.2553100">
<ele>312.940002</ele>
<time>2024-01-10T16:36:58.932Z</time>
</trkpt>
<trkpt lat="31.2308400" lon="35.2553900">
<ele>312.600006</ele>
<time>2024-01-10T16:36:58.932Z</time>
</trkpt>
<trkpt lat="31.2310800" lon="35.2556300">
<ele>311.519989</ele>
<time>2024-01-10T16:36:58.932Z</time>
</trkpt>
<trkpt lat="31.2311500" lon="35.2556700">
<ele>311.429993</ele>
<time>2024-01-10T16:36:58.932Z</time>
</trkpt>
<trkpt lat="31.2312600" lon="35.2557800">
<ele>311.789978</ele>
<time>2024-01-10T16:36:58.932Z</time>
</trkpt>
<trkpt lat="31.2313800" lon="35.2558800">
<ele>312.589996</ele>
<time>2024-01-10T16:36:58.932Z</time>
</trkpt>
<trkpt lat="31.2315700" lon="35.2560100">
<ele>310.600006</ele>
<time>2024-01-10T16:36:58.932Z</time>
</trkpt>
<trkpt lat="31.2316100" lon="35.2560700">
<ele>310.260010</ele>
<time>2024-01-10T16:36:58.932Z</time>
</trkpt>
<trkpt lat="31.2316800" lon="35.2561400">
<ele>309.649994</ele>
<time>2024-01-10T16:36:58.933Z</time>
</trkpt>
<trkpt lat="31.2317700" lon="35.2562200">
<ele>308.890015</ele>
<time>2024-01-10T16:36:58.933Z</time>
</trkpt>
<trkpt lat="31.2320200" lon="35.2564300">
<ele>308.920013</ele>
<time>2024-01-10T16:36:58.933Z</time>
</trkpt>
<trkpt lat="31.2321700" lon="35.2565900">
<ele>307.820007</ele>
<time>2024-01-10T16:36:58.933Z</time>
</trkpt>
<trkpt lat="31.2322100" lon="35.2566300">
<ele>307.339996</ele>
<time>2024-01-10T16:36:58.933Z</time>
</trkpt>
<trkpt lat="31.2323000" lon="35.2567200">
<ele>305.779999</ele>
<time>2024-01-10T16:36:58.933Z</time>
</trkpt>
<trkpt lat="31.2323300" lon="35.2567500">
<ele>305.239990</ele>
<time>2024-01-10T16:36:58.933Z</time>
</trkpt>
<trkpt lat="31.2325100" lon="35.2569000">
<ele>302.309998</ele>
<time>2024-01-10T16:36:58.933Z</time>
</trkpt>
<trkpt lat="31.2325600" lon="35.2569600">
<ele>301.940002</ele>
<time>2024-01-10T16:36:58.933Z</time>
</trkpt>
<trkpt lat="31.2327500" lon="35.2571500">
<ele>301.259979</ele>
<time>2024-01-10T16:36:58.933Z</time>
</trkpt>
<trkpt lat="31.2328400" lon="35.2572500">
<ele>301.020020</ele>
<time>2024-01-10T16:36:58.933Z</time>
</trkpt>
<trkpt lat="31.2330700" lon="35.2574600">
<ele>301.940002</ele>
<time>2024-01-10T16:36:58.933Z</time>
</trkpt>
<trkpt lat="31.2332000" lon="35.2576000">
<ele>304.320007</ele>
<time>2024-01-10T16:36:58.933Z</time>
</trkpt>
<trkpt lat="31.2333300" lon="35.2576500">
<ele>306.660004</ele>
<time>2024-01-10T16:36:58.933Z</time>
</trkpt>
<trkpt lat="31.2338100" lon="35.2576600">
<ele>298.479980</ele>
<time>2024-01-10T16:36:58.933Z</time>
</trkpt>
<trkpt lat="31.2339000" lon="35.2576600">
<ele>296.630005</ele>
<time>2024-01-10T16:36:58.933Z</time>
</trkpt>
<trkpt lat="31.2339800" lon="35.2576400">
<ele>295.690002</ele>
<time>2024-01-10T16:36:58.933Z</time>
</trkpt>
<trkpt lat="31.2340100" lon="35.2576100">
<ele>295.050018</ele>
<time>2024-01-10T16:36:58.933Z</time>
</trkpt>
<trkpt lat="31.2341600" lon="35.2575300">
<ele>292.500000</ele>
<time>2024-01-10T16:36:58.933Z</time>
</trkpt>
<trkpt lat="31.2342300" lon="35.2575000">
<ele>293.140015</ele>
<time>2024-01-10T16:36:58.933Z</time>
</trkpt>
<trkpt lat="31.2342700" lon="35.2575000">
<ele>293.859985</ele>
<time>2024-01-10T16:36:58.934Z</time>
</trkpt>
<trkpt lat="31.2342900" lon="35.2575000">
<ele>294.220001</ele>
<time>2024-01-10T16:36:58.934Z</time>
</trkpt>
<trkpt lat="31.2343200" lon="35.2576000">
<ele>295.600006</ele>
<time>2024-01-10T16:36:58.934Z</time>
</trkpt>
<trkpt lat="31.2343300" lon="35.2577900">
<ele>297.220001</ele>
<time>2024-01-10T16:36:58.934Z</time>
</trkpt>
<trkpt lat="31.2343600" lon="35.2579600">
<ele>297.729980</ele>
<time>2024-01-10T16:36:58.934Z</time>
</trkpt>
<trkpt lat="31.2344700" lon="35.2581100">
<ele>296.880005</ele>
<time>2024-01-10T16:36:58.934Z</time>
</trkpt>
<trkpt lat="31.2346200" lon="35.2582400">
<ele>296.549988</ele>
<time>2024-01-10T16:36:58.934Z</time>
</trkpt>
<trkpt lat="31.2346800" lon="35.2582900">
<ele>296.290009</ele>
<time>2024-01-10T16:36:58.934Z</time>
</trkpt>
<trkpt lat="31.2347300" lon="35.2583500">
<ele>295.940002</ele>
<time>2024-01-10T16:36:58.934Z</time>
</trkpt>
<trkpt lat="31.2347600" lon="35.2584200">
<ele>295.690002</ele>
<time>2024-01-10T16:36:58.934Z</time>
</trkpt>
<trkpt lat="31.2348400" lon="35.2589800">
<ele>293.850006</ele>
<time>2024-01-10T16:36:58.934Z</time>
</trkpt>
<trkpt lat="31.2349300" lon="35.2595400">
<ele>293.059998</ele>
<time>2024-01-10T16:36:58.934Z</time>
</trkpt>
<trkpt lat="31.2349900" lon="35.2597900">
<ele>291.739990</ele>
<time>2024-01-10T16:36:58.934Z</time>
</trkpt>
<trkpt lat="31.2350500" lon="35.2602400">
<ele>291.679993</ele>
<time>2024-01-10T16:36:58.934Z</time>
</trkpt>
<trkpt lat="31.2350700" lon="35.2602800">
<ele>291.790009</ele>
<time>2024-01-10T16:36:58.934Z</time>
</trkpt>
<trkpt lat="31.2351500" lon="35.2604600">
<ele>294.329987</ele>
<time>2024-01-10T16:36:58.934Z</time>
</trkpt>
<trkpt lat="31.2355100" lon="35.2609300">
<ele>296.260010</ele>
<time>2024-01-10T16:36:58.934Z</time>
</trkpt>
<trkpt lat="31.2356300" lon="35.2612200">
<ele>292.670013</ele>
<time>2024-01-10T16:36:58.934Z</time>
</trkpt>
<trkpt lat="31.2360200" lon="35.2625900">
<ele>290.750000</ele>
<time>2024-01-10T16:36:58.934Z</time>
</trkpt>
<trkpt lat="31.2362100" lon="35.2631100">
<ele>290.250000</ele>
<time>2024-01-10T16:36:58.934Z</time>
</trkpt>
<trkpt lat="31.2363800" lon="35.2635000">
<ele>290.850006</ele>
<time>2024-01-10T16:36:58.934Z</time>
</trkpt>
<trkpt lat="31.2364600" lon="35.2636900">
<ele>291.380005</ele>
<time>2024-01-10T16:36:58.935Z</time>
</trkpt>
<trkpt lat="31.2366700" lon="35.2640300">
<ele>290.420013</ele>
<time>2024-01-10T16:36:58.935Z</time>
</trkpt>
<trkpt lat="31.2367600" lon="35.2642500">
<ele>287.179993</ele>
<time>2024-01-10T16:36:58.935Z</time>
</trkpt>
<trkpt lat="31.2368500" lon="35.2645500">
<ele>282.169983</ele>
<time>2024-01-10T16:36:58.935Z</time>
</trkpt>
<trkpt lat="31.2369400" lon="35.2652400">
<ele>277.170013</ele>
<time>2024-01-10T16:36:58.935Z</time>
</trkpt>
<trkpt lat="31.2370400" lon="35.2655300">
<ele>274.529999</ele>
<time>2024-01-10T16:36:58.935Z</time>
</trkpt>
<trkpt lat="31.2371200" lon="35.2656800">
<ele>274.920013</ele>
<time>2024-01-10T16:36:58.935Z</time>
</trkpt>
<trkpt lat="31.2372000" lon="35.2657600">
<ele>275.600006</ele>
<time>2024-01-10T16:36:58.935Z</time>
</trkpt>
<trkpt lat="31.2372900" lon="35.2658500">
<ele>275.730011</ele>
<time>2024-01-10T16:36:58.935Z</time>
</trkpt>
<trkpt lat="31.2373400" lon="35.2659200">
<ele>275.529999</ele>
<time>2024-01-10T16:36:58.935Z</time>
</trkpt>
<trkpt lat="31.2374800" lon="35.2663900">
<ele>275.779999</ele>
<time>2024-01-10T16:36:58.935Z</time>
</trkpt>
<trkpt lat="31.2375100" lon="35.2665100">
<ele>275.820007</ele>
<time>2024-01-10T16:36:58.935Z</time>
</trkpt>
<trkpt lat="31.2375100" lon="35.2670500">
<ele>275.459991</ele>
<time>2024-01-10T16:36:58.935Z</time>
</trkpt>
<trkpt lat="31.2375300" lon="35.2676100">
<ele>278.390015</ele>
<time>2024-01-10T16:36:58.935Z</time>
</trkpt>
<trkpt lat="31.2375300" lon="35.2677100">
<ele>278.350006</ele>
<time>2024-01-10T16:36:58.935Z</time>
</trkpt>
<trkpt lat="31.2375300" lon="35.2678400">
<ele>278.800018</ele>
<time>2024-01-10T16:36:58.935Z</time>
</trkpt>
<trkpt lat="31.2374300" lon="35.2680300">
<ele>279.789978</ele>
<time>2024-01-10T16:36:58.935Z</time>
</trkpt>
<trkpt lat="31.2373400" lon="35.2681400">
<ele>280.040009</ele>
<time>2024-01-10T16:36:58.935Z</time>
</trkpt>
<trkpt lat="31.2371400" lon="35.2684300">
<ele>276.559998</ele>
<time>2024-01-10T16:36:58.935Z</time>
</trkpt>
<trkpt lat="31.2370500" lon="35.2686000">
<ele>273.989990</ele>
<time>2024-01-10T16:36:58.935Z</time>
</trkpt>
<trkpt lat="31.2370300" lon="35.2686300">
<ele>273.230011</ele>
<time>2024-01-10T16:36:58.935Z</time>
</trkpt>
<trkpt lat="31.2369000" lon="35.2689000">
<ele>265.880005</ele>
<time>2024-01-10T16:36:58.935Z</time>
</trkpt>
<trkpt lat="31.2367600" lon="35.2691700">
<ele>266.970001</ele>
<time>2024-01-10T16:36:58.936Z</time>
</trkpt>
<trkpt lat="31.2366600" lon="35.2693300">
<ele>267.320007</ele>
<time>2024-01-10T16:36:58.936Z</time>
</trkpt>
<trkpt lat="31.2366200" lon="35.2693800">
<ele>267.239990</ele>
<time>2024-01-10T16:36:58.936Z</time>
</trkpt>
<trkpt lat="31.2364000" lon="35.2697000">
<ele>266.269989</ele>
<time>2024-01-10T16:36:58.936Z</time>
</trkpt>
<trkpt lat="31.2363400" lon="35.2697700">
<ele>266.329987</ele>
<time>2024-01-10T16:36:58.936Z</time>
</trkpt>
<trkpt lat="31.2361300" lon="35.2701100">
<ele>267.339996</ele>
<time>2024-01-10T16:36:58.936Z</time>
</trkpt>
<trkpt lat="31.2360500" lon="35.2702300">
<ele>267.540009</ele>
<time>2024-01-10T16:36:58.936Z</time>
</trkpt>
<trkpt lat="31.2360100" lon="35.2702600">
<ele>267.299988</ele>
<time>2024-01-10T16:36:58.936Z</time>
</trkpt>
<trkpt lat="31.2358600" lon="35.2703200">
<ele>266.809998</ele>
<time>2024-01-10T16:36:58.936Z</time>
</trkpt>
<trkpt lat="31.2357900" lon="35.2704000">
<ele>267.500000</ele>
<time>2024-01-10T16:36:58.936Z</time>
</trkpt>
<trkpt lat="31.2357300" lon="35.2705000">
<ele>267.790009</ele>
<time>2024-01-10T16:36:58.936Z</time>
</trkpt>
<trkpt lat="31.2356400" lon="35.2705700">
<ele>266.760010</ele>
<time>2024-01-10T16:36:58.936Z</time>
</trkpt>
<trkpt lat="31.2355800" lon="35.2706300">
<ele>266.760010</ele>
<time>2024-01-10T16:36:58.936Z</time>
</trkpt>
<trkpt lat="31.2355500" lon="35.2706500">
<ele>266.750000</ele>
<time>2024-01-10T16:36:58.936Z</time>
</trkpt>
<trkpt lat="31.2353700" lon="35.2707900">
<ele>269.640015</ele>
<time>2024-01-10T16:36:58.936Z</time>
</trkpt>
<trkpt lat="31.2352900" lon="35.2708300">
<ele>269.989990</ele>
<time>2024-01-10T16:36:58.936Z</time>
</trkpt>
<trkpt lat="31.2352100" lon="35.2709600">
<ele>270.500000</ele>
<time>2024-01-10T16:36:58.936Z</time>
</trkpt>
<trkpt lat="31.2349500" lon="35.2714900">
<ele>273.089996</ele>
<time>2024-01-10T16:36:58.936Z</time>
</trkpt>
<trkpt lat="31.2349400" lon="35.2716300">
<ele>273.010010</ele>
<time>2024-01-10T16:36:58.936Z</time>
</trkpt>
<trkpt lat="31.2349400" lon="35.2719000">
<ele>274.260010</ele>
<time>2024-01-10T16:36:58.936Z</time>
</trkpt>
<trkpt lat="31.2349600" lon="35.2720500">
<ele>275.160004</ele>
<time>2024-01-10T16:36:58.936Z</time>
</trkpt>
<trkpt lat="31.2350000" lon="35.2724600">
<ele>274.289978</ele>
<time>2024-01-10T16:36:58.936Z</time>
</trkpt>
<trkpt lat="31.2350600" lon="35.2727500">
<ele>274.930023</ele>
<time>2024-01-10T16:36:58.936Z</time>
</trkpt>
<trkpt lat="31.2351100" lon="35.2728800">
<ele>276.040009</ele>
<time>2024-01-10T16:36:58.936Z</time>
</trkpt>
<trkpt lat="31.2351900" lon="35.2732300">
<ele>275.919983</ele>
<time>2024-01-10T16:36:58.936Z</time>
</trkpt>
<trkpt lat="31.2351900" lon="35.2733900">
<ele>276.109985</ele>
<time>2024-01-10T16:36:58.936Z</time>
</trkpt>
<trkpt lat="31.2351900" lon="35.2737200">
<ele>278.019989</ele>
<time>2024-01-10T16:36:58.936Z</time>
</trkpt>
<trkpt lat="31.2351700" lon="35.2739300">
<ele>280.119995</ele>
<time>2024-01-10T16:36:58.937Z</time>
</trkpt>
<trkpt lat="31.2351400" lon="35.2740600">
<ele>281.359985</ele>
<time>2024-01-10T16:36:58.937Z</time>
</trkpt>
<trkpt lat="31.2350200" lon="35.2744500">
<ele>278.460022</ele>
<time>2024-01-10T16:36:58.937Z</time>
</trkpt>
<trkpt lat="31.2349500" lon="35.2745900">
<ele>276.579987</ele>
<time>2024-01-10T16:36:58.937Z</time>
</trkpt>
<trkpt lat="31.2347900" lon="35.2748800">
<ele>271.890015</ele>
<time>2024-01-10T16:36:58.937Z</time>
</trkpt>
<trkpt lat="31.2347400" lon="35.2749300">
<ele>270.899994</ele>
<time>2024-01-10T16:36:58.937Z</time>
</trkpt>
<trkpt lat="31.2346200" lon="35.2749900">
<ele>271.619995</ele>
<time>2024-01-10T16:36:58.937Z</time>
</trkpt>
<trkpt lat="31.2344600" lon="35.2752700">
<ele>269.890015</ele>
<time>2024-01-10T16:36:58.937Z</time>
</trkpt>
<trkpt lat="31.2343500" lon="35.2753700">
<ele>269.360016</ele>
<time>2024-01-10T16:36:58.937Z</time>
</trkpt>
<trkpt lat="31.2342600" lon="35.2754300">
<ele>269.250000</ele>
<time>2024-01-10T16:36:58.937Z</time>
</trkpt>
<trkpt lat="31.2339300" lon="35.2757300">
<ele>263.920013</ele>
<time>2024-01-10T16:36:58.937Z</time>
</trkpt>
<trkpt lat="31.2338900" lon="35.2757600">
<ele>263.320007</ele>
<time>2024-01-10T16:36:58.937Z</time>
</trkpt>
<trkpt lat="31.2338300" lon="35.2758400">
<ele>262.369995</ele>
<time>2024-01-10T16:36:58.937Z</time>
</trkpt>
<trkpt lat="31.2337100" lon="35.2761000">
<ele>260.750000</ele>
<time>2024-01-10T16:36:58.937Z</time>
</trkpt>
<trkpt lat="31.2336800" lon="35.2761300">
<ele>260.730011</ele>
<time>2024-01-10T16:36:58.937Z</time>
</trkpt>
<trkpt lat="31.2336100" lon="35.2761900">
<ele>260.739990</ele>
<time>2024-01-10T16:36:58.937Z</time>
</trkpt>
<trkpt lat="31.2334600" lon="35.2763100">
<ele>262.380005</ele>
<time>2024-01-10T16:36:58.937Z</time>
</trkpt>
<trkpt lat="31.2332800" lon="35.2765100">
<ele>263.359985</ele>
<time>2024-01-10T16:36:58.937Z</time>
</trkpt>
<trkpt lat="31.2332300" lon="35.2765700">
<ele>263.860016</ele>
<time>2024-01-10T16:36:58.937Z</time>
</trkpt>
<trkpt lat="31.2332000" lon="35.2765900">
<ele>264.179993</ele>
<time>2024-01-10T16:36:58.937Z</time>
</trkpt>
<trkpt lat="31.2330400" lon="35.2767400">
<ele>265.080017</ele>
<time>2024-01-10T16:36:58.937Z</time>
</trkpt>
<trkpt lat="31.2330000" lon="35.2767700">
<ele>264.509979</ele>
<time>2024-01-10T16:36:58.937Z</time>
</trkpt>
<trkpt lat="31.2327600" lon="35.2770800">
<ele>261.140015</ele>
<time>2024-01-10T16:36:58.937Z</time>
</trkpt>
<trkpt lat="31.2326100" lon="35.2773100">
<ele>259.260010</ele>
<time>2024-01-10T16:36:58.937Z</time>
</trkpt>
<trkpt lat="31.2325600" lon="35.2774200">
<ele>258.429993</ele>
<time>2024-01-10T16:36:58.937Z</time>
</trkpt>
<trkpt lat="31.2325100" lon="35.2775600">
<ele>257.500000</ele>
<time>2024-01-10T16:36:58.937Z</time>
</trkpt>
<trkpt lat="31.2322900" lon="35.2782900">
<ele>250.919998</ele>
<time>2024-01-10T16:36:58.937Z</time>
</trkpt>
<trkpt lat="31.2321900" lon="35.2784400">
<ele>251.009995</ele>
<time>2024-01-10T16:36:58.938Z</time>
</trkpt>
<trkpt lat="31.2320000" lon="35.2786700">
<ele>251.330002</ele>
<time>2024-01-10T16:36:58.938Z</time>
</trkpt>
<trkpt lat="31.2319500" lon="35.2787300">
<ele>251.050003</ele>
<time>2024-01-10T16:36:58.938Z</time>
</trkpt>
<trkpt lat="31.2318400" lon="35.2788600">
<ele>251.830002</ele>
<time>2024-01-10T16:36:58.938Z</time>
</trkpt>
<trkpt lat="31.2317800" lon="35.2789000">
<ele>252.250000</ele>
<time>2024-01-10T16:36:58.938Z</time>
</trkpt>
<trkpt lat="31.2315400" lon="35.2791700">
<ele>252.979996</ele>
<time>2024-01-10T16:36:58.938Z</time>
</trkpt>
<trkpt lat="31.2313400" lon="35.2793200">
<ele>251.340012</ele>
<time>2024-01-10T16:36:58.938Z</time>
</trkpt>
<trkpt lat="31.2312700" lon="35.2793500">
<ele>251.020004</ele>
<time>2024-01-10T16:36:58.938Z</time>
</trkpt>
<trkpt lat="31.2311400" lon="35.2793700">
<ele>250.800003</ele>
<time>2024-01-10T16:36:58.938Z</time>
</trkpt>
<trkpt lat="31.2310500" lon="35.2793700">
<ele>250.750000</ele>
<time>2024-01-10T16:36:58.938Z</time>
</trkpt>
<trkpt lat="31.2308300" lon="35.2793700">
<ele>250.539993</ele>
<time>2024-01-10T16:36:58.938Z</time>
</trkpt>
<trkpt lat="31.2305700" lon="35.2793400">
<ele>251.110001</ele>
<time>2024-01-10T16:36:58.938Z</time>
</trkpt>
<trkpt lat="31.2304400" lon="35.2793700">
<ele>249.139999</ele>
<time>2024-01-10T16:36:58.938Z</time>
</trkpt>
<trkpt lat="31.2304100" lon="35.2793900">
<ele>248.490005</ele>
<time>2024-01-10T16:36:58.938Z</time>
</trkpt>
<trkpt lat="31.2303700" lon="35.2794800">
<ele>247.110001</ele>
<time>2024-01-10T16:36:58.938Z</time>
</trkpt>
<trkpt lat="31.2303000" lon="35.2797500">
<ele>244.289993</ele>
<time>2024-01-10T16:36:58.938Z</time>
</trkpt>
<trkpt lat="31.2302800" lon="35.2797800">
<ele>243.829987</ele>
<time>2024-01-10T16:36:58.938Z</time>
</trkpt>
<trkpt lat="31.2302700" lon="35.2801600">
<ele>242.279999</ele>
<time>2024-01-10T16:36:58.938Z</time>
</trkpt>
<trkpt lat="31.2302400" lon="35.2802300">
<ele>241.399994</ele>
<time>2024-01-10T16:36:58.938Z</time>
</trkpt>
<trkpt lat="31.2301700" lon="35.2802900">
<ele>239.559998</ele>
<time>2024-01-10T16:36:58.938Z</time>
</trkpt>
<trkpt lat="31.2299800" lon="35.2803700">
<ele>235.410004</ele>
<time>2024-01-10T16:36:58.938Z</time>
</trkpt>
<trkpt lat="31.2296600" lon="35.2805100">
<ele>235.099991</ele>
<time>2024-01-10T16:36:58.938Z</time>
</trkpt>
<trkpt lat="31.2295600" lon="35.2805300">
<ele>234.600006</ele>
<time>2024-01-10T16:36:58.938Z</time>
</trkpt>
<trkpt lat="31.2294000" lon="35.2805200">
<ele>234.739990</ele>
<time>2024-01-10T16:36:58.938Z</time>
</trkpt>
<trkpt lat="31.2293400" lon="35.2805400">
<ele>235.240005</ele>
<time>2024-01-10T16:36:58.938Z</time>
</trkpt>
<trkpt lat="31.2293000" lon="35.2805800">
<ele>235.470001</ele>
<time>2024-01-10T16:36:58.938Z</time>
</trkpt>
<trkpt lat="31.2292800" lon="35.2808500">
<ele>234.519989</ele>
<time>2024-01-10T16:36:58.939Z</time>
</trkpt>
<trkpt lat="31.2292200" lon="35.2810600">
<ele>233.490005</ele>
<time>2024-01-10T16:36:58.939Z</time>
</trkpt>
<trkpt lat="31.2291400" lon="35.2811200">
<ele>233.309998</ele>
<time>2024-01-10T16:36:58.939Z</time>
</trkpt>
<trkpt lat="31.2289900" lon="35.2811500">
<ele>234.869995</ele>
<time>2024-01-10T16:36:58.939Z</time>
</trkpt>
<trkpt lat="31.2289600" lon="35.2811600">
<ele>235.149994</ele>
<time>2024-01-10T16:36:58.939Z</time>
</trkpt>
<trkpt lat="31.2289400" lon="35.2811800">
<ele>235.289993</ele>
<time>2024-01-10T16:36:58.939Z</time>
</trkpt>
<trkpt lat="31.2289100" lon="35.2812000">
<ele>235.500000</ele>
<time>2024-01-10T16:36:58.939Z</time>
</trkpt>
<trkpt lat="31.2288900" lon="35.2812500">
<ele>235.490005</ele>
<time>2024-01-10T16:36:58.939Z</time>
</trkpt>
<trkpt lat="31.2288900" lon="35.2812900">
<ele>235.350006</ele>
<time>2024-01-10T16:36:58.939Z</time>
</trkpt>
<trkpt lat="31.2288900" lon="35.2814700">
<ele>234.410004</ele>
<time>2024-01-10T16:36:58.939Z</time>
</trkpt>
<trkpt lat="31.2289000" lon="35.2816300">
<ele>233.259995</ele>
<time>2024-01-10T16:36:58.939Z</time>
</trkpt>
<trkpt lat="31.2289400" lon="35.2821100">
<ele>230.000000</ele>
<time>2024-01-10T16:36:58.939Z</time>
</trkpt>
<trkpt lat="31.2289900" lon="35.2822100">
<ele>228.979996</ele>
<time>2024-01-10T16:36:58.939Z</time>
</trkpt>
<trkpt lat="31.2290700" lon="35.2822700">
<ele>227.809998</ele>
<time>2024-01-10T16:36:58.939Z</time>
</trkpt>
<trkpt lat="31.2291600" lon="35.2823300">
<ele>226.669998</ele>
<time>2024-01-10T16:36:58.939Z</time>
</trkpt>
<trkpt lat="31.2292300" lon="35.2823900">
<ele>226.119995</ele>
<time>2024-01-10T16:36:58.939Z</time>
</trkpt>
<trkpt lat="31.2292700" lon="35.2825700">
<ele>225.410004</ele>
<time>2024-01-10T16:36:58.939Z</time>
</trkpt>
<trkpt lat="31.2292700" lon="35.2827300">
<ele>225.779999</ele>
<time>2024-01-10T16:36:58.939Z</time>
</trkpt>
<trkpt lat="31.2292300" lon="35.2829300">
<ele>226.570007</ele>
<time>2024-01-10T16:36:58.939Z</time>
</trkpt>
<trkpt lat="31.2292000" lon="35.2833600">
<ele>225.880005</ele>
<time>2024-01-10T16:36:58.939Z</time>
</trkpt>
<trkpt lat="31.2291400" lon="35.2836600">
<ele>224.809998</ele>
<time>2024-01-10T16:36:58.939Z</time>
</trkpt>
<trkpt lat="31.2291300" lon="35.2838400">
<ele>223.399994</ele>
<time>2024-01-10T16:36:58.939Z</time>
</trkpt>
<trkpt lat="31.2289600" lon="35.2850400">
<ele>215.619995</ele>
<time>2024-01-10T16:36:58.939Z</time>
</trkpt>
<trkpt lat="31.2288900" lon="35.2853100">
<ele>214.880005</ele>
<time>2024-01-10T16:36:58.939Z</time>
</trkpt>
<trkpt lat="31.2285500" lon="35.2860900">
<ele>214.160004</ele>
<time>2024-01-10T16:36:58.939Z</time>
</trkpt>
<trkpt lat="31.2285100" lon="35.2862500">
<ele>214.639999</ele>
<time>2024-01-10T16:36:58.939Z</time>
</trkpt>
<trkpt lat="31.2284800" lon="35.2864100">
<ele>214.930008</ele>
<time>2024-01-10T16:36:58.939Z</time>
</trkpt>
<trkpt lat="31.2283700" lon="35.2868200">
<ele>217.229996</ele>
<time>2024-01-10T16:36:58.940Z</time>
</trkpt>
<trkpt lat="31.2282800" lon="35.2872900">
<ele>218.100006</ele>
<time>2024-01-10T16:36:58.940Z</time>
</trkpt>
<trkpt lat="31.2282400" lon="35.2874400">
<ele>217.990005</ele>
<time>2024-01-10T16:36:58.940Z</time>
</trkpt>
<trkpt lat="31.2282200" lon="35.2874800">
<ele>217.789993</ele>
<time>2024-01-10T16:36:58.940Z</time>
</trkpt>
<trkpt lat="31.2282000" lon="35.2875100">
<ele>217.559998</ele>
<time>2024-01-10T16:36:58.940Z</time>
</trkpt>
<trkpt lat="31.2280900" lon="35.2875800">
<ele>216.589996</ele>
<time>2024-01-10T16:36:58.940Z</time>
</trkpt>
<trkpt lat="31.2280500" lon="35.2876200">
<ele>216.490005</ele>
<time>2024-01-10T16:36:58.940Z</time>
</trkpt>
<trkpt lat="31.2279900" lon="35.2877000">
<ele>217.149994</ele>
<time>2024-01-10T16:36:58.940Z</time>
</trkpt>
<trkpt lat="31.2279400" lon="35.2880700">
<ele>217.970001</ele>
<time>2024-01-10T16:36:58.940Z</time>
</trkpt>
<trkpt lat="31.2278700" lon="35.2882500">
<ele>217.360001</ele>
<time>2024-01-10T16:36:58.940Z</time>
</trkpt>
<trkpt lat="31.2277400" lon="35.2886400">
<ele>214.079987</ele>
<time>2024-01-10T16:36:58.940Z</time>
</trkpt>
<trkpt lat="31.2277100" lon="35.2887100">
<ele>213.900009</ele>
<time>2024-01-10T16:36:58.940Z</time>
</trkpt>
<trkpt lat="31.2276100" lon="35.2889100">
<ele>212.170013</ele>
<time>2024-01-10T16:36:58.940Z</time>
</trkpt>
<trkpt lat="31.2273600" lon="35.2894700">
<ele>212.170013</ele>
<time>2024-01-10T16:36:58.940Z</time>
</trkpt>
<trkpt lat="31.2273300" lon="35.2895400">
<ele>211.070007</ele>
<time>2024-01-10T16:36:58.940Z</time>
</trkpt>
<trkpt lat="31.2273000" lon="35.2896100">
<ele>209.799988</ele>
<time>2024-01-10T16:36:58.940Z</time>
</trkpt>
<trkpt lat="31.2272100" lon="35.2902300">
<ele>204.259995</ele>
<time>2024-01-10T16:36:58.940Z</time>
</trkpt>
<trkpt lat="31.2270700" lon="35.2905100">
<ele>205.850006</ele>
<time>2024-01-10T16:36:58.940Z</time>
</trkpt>
<trkpt lat="31.2270400" lon="35.2905600">
<ele>206.009995</ele>
<time>2024-01-10T16:36:58.940Z</time>
</trkpt>
<trkpt lat="31.2269900" lon="35.2906100">
<ele>206.059998</ele>
<time>2024-01-10T16:36:58.940Z</time>
</trkpt>
<trkpt lat="31.2269100" lon="35.2906900">
<ele>206.389999</ele>
<time>2024-01-10T16:36:58.940Z</time>
</trkpt>
<trkpt lat="31.2268000" lon="35.2907900">
<ele>206.130005</ele>
<time>2024-01-10T16:36:58.940Z</time>
</trkpt>
<trkpt lat="31.2266600" lon="35.2909600">
<ele>203.600006</ele>
<time>2024-01-10T16:36:58.940Z</time>
</trkpt>
<trkpt lat="31.2264900" lon="35.2913000">
<ele>200.979996</ele>
<time>2024-01-10T16:36:58.940Z</time>
</trkpt>
<trkpt lat="31.2264300" lon="35.2914000">
<ele>200.449997</ele>
<time>2024-01-10T16:36:58.940Z</time>
</trkpt>
<trkpt lat="31.2264000" lon="35.2914500">
<ele>200.130005</ele>
<time>2024-01-10T16:36:58.940Z</time>
</trkpt>
<trkpt lat="31.2263300" lon="35.2915900">
<ele>199.419998</ele>
<time>2024-01-10T16:36:58.940Z</time>
</trkpt>
<trkpt lat="31.2262500" lon="35.2917500">
<ele>197.899994</ele>
<time>2024-01-10T16:36:58.941Z</time>
</trkpt>
<trkpt lat="31.2260100" lon="35.2920400">
<ele>194.929993</ele>
<time>2024-01-10T16:36:58.941Z</time>
</trkpt>
<trkpt lat="31.2259700" lon="35.2920800">
<ele>195.240005</ele>
<time>2024-01-10T16:36:58.941Z</time>
</trkpt>
<trkpt lat="31.2258500" lon="35.2923300">
<ele>194.879990</ele>
<time>2024-01-10T16:36:58.941Z</time>
</trkpt>
<trkpt lat="31.2257900" lon="35.2925300">
<ele>193.310013</ele>
<time>2024-01-10T16:36:58.941Z</time>
</trkpt>
<trkpt lat="31.2257700" lon="35.2926600">
<ele>192.710007</ele>
<time>2024-01-10T16:36:58.941Z</time>
</trkpt>
<trkpt lat="31.2257600" lon="35.2929900">
<ele>191.799988</ele>
<time>2024-01-10T16:36:58.941Z</time>
</trkpt>
<trkpt lat="31.2257500" lon="35.2931700">
<ele>192.690002</ele>
<time>2024-01-10T16:36:58.941Z</time>
</trkpt>
<trkpt lat="31.2257300" lon="35.2932100">
<ele>192.880005</ele>
<time>2024-01-10T16:36:58.941Z</time>
</trkpt>
<trkpt lat="31.2256600" lon="35.2933300">
<ele>193.110001</ele>
<time>2024-01-10T16:36:58.941Z</time>
</trkpt>
<trkpt lat="31.2255600" lon="35.2934500">
<ele>192.430008</ele>
<time>2024-01-10T16:36:58.941Z</time>
</trkpt>
<trkpt lat="31.2254800" lon="35.2936800">
<ele>193.120010</ele>
<time>2024-01-10T16:36:58.941Z</time>
</trkpt>
<trkpt lat="31.2254600" lon="35.2939500">
<ele>191.589996</ele>
<time>2024-01-10T16:36:58.941Z</time>
</trkpt>
<trkpt lat="31.2254500" lon="35.2941900">
<ele>190.000000</ele>
<time>2024-01-10T16:36:58.941Z</time>
</trkpt>
<trkpt lat="31.2254400" lon="35.2944400">
<ele>188.690002</ele>
<time>2024-01-10T16:36:58.941Z</time>
</trkpt>
<trkpt lat="31.2254200" lon="35.2944800">
<ele>188.629990</ele>
<time>2024-01-10T16:36:58.941Z</time>
</trkpt>
<trkpt lat="31.2253600" lon="35.2945200">
<ele>189.190002</ele>
<time>2024-01-10T16:36:58.941Z</time>
</trkpt>
<trkpt lat="31.2252200" lon="35.2946600">
<ele>189.540009</ele>
<time>2024-01-10T16:36:58.941Z</time>
</trkpt>
<trkpt lat="31.2251400" lon="35.2947500">
<ele>188.949997</ele>
<time>2024-01-10T16:36:58.941Z</time>
</trkpt>
<trkpt lat="31.2250500" lon="35.2948300">
<ele>188.929993</ele>
<time>2024-01-10T16:36:58.941Z</time>
</trkpt>
<trkpt lat="31.2250000" lon="35.2948700">
<ele>189.000000</ele>
<time>2024-01-10T16:36:58.941Z</time>
</trkpt>
<trkpt lat="31.2249200" lon="35.2949700">
<ele>188.490005</ele>
<time>2024-01-10T16:36:58.941Z</time>
</trkpt>
<trkpt lat="31.2248800" lon="35.2950200">
<ele>188.240005</ele>
<time>2024-01-10T16:36:58.941Z</time>
</trkpt>
<trkpt lat="31.2247000" lon="35.2952100">
<ele>188.410004</ele>
<time>2024-01-10T16:36:58.941Z</time>
</trkpt>
<trkpt lat="31.2246300" lon="35.2952400">
<ele>188.199997</ele>
<time>2024-01-10T16:36:58.941Z</time>
</trkpt>
<trkpt lat="31.2244800" lon="35.2952500">
<ele>187.320007</ele>
<time>2024-01-10T16:36:58.941Z</time>
</trkpt>
<trkpt lat="31.2243600" lon="35.2952700">
<ele>185.849991</ele>
<time>2024-01-10T16:36:58.941Z</time>
</trkpt>
<trkpt lat="31.2238900" lon="35.2953700">
<ele>183.669998</ele>
<time>2024-01-10T16:36:58.942Z</time>
</trkpt>
<trkpt lat="31.2238200" lon="35.2953600">
<ele>184.419998</ele>
<time>2024-01-10T16:36:58.942Z</time>
</trkpt>
<trkpt lat="31.2237700" lon="35.2953400">
<ele>185.289993</ele>
<time>2024-01-10T16:36:58.942Z</time>
</trkpt>
<trkpt lat="31.2236300" lon="35.2952200">
<ele>188.919998</ele>
<time>2024-01-10T16:36:58.942Z</time>
</trkpt>
<trkpt lat="31.2236100" lon="35.2951000">
<ele>191.190002</ele>
<time>2024-01-10T16:36:58.942Z</time>
</trkpt>
<trkpt lat="31.2236000" lon="35.2950600">
<ele>191.850006</ele>
<time>2024-01-10T16:36:58.942Z</time>
</trkpt>
<trkpt lat="31.2235900" lon="35.2949500">
<ele>193.750000</ele>
<time>2024-01-10T16:36:58.942Z</time>
</trkpt>
<trkpt lat="31.2235800" lon="35.2948800">
<ele>194.940002</ele>
<time>2024-01-10T16:36:58.942Z</time>
</trkpt>
<trkpt lat="31.2233100" lon="35.2948700">
<ele>193.259995</ele>
<time>2024-01-10T16:36:58.942Z</time>
</trkpt>
<trkpt lat="31.2232700" lon="35.2948600">
<ele>193.290009</ele>
<time>2024-01-10T16:36:58.942Z</time>
</trkpt>
<trkpt lat="31.2232400" lon="35.2948500">
<ele>193.339996</ele>
<time>2024-01-10T16:36:58.942Z</time>
</trkpt>
<trkpt lat="31.2232000" lon="35.2948200">
<ele>193.619995</ele>
<time>2024-01-10T16:36:58.942Z</time>
</trkpt>
<trkpt lat="31.2231400" lon="35.2947100">
<ele>194.649994</ele>
<time>2024-01-10T16:36:58.942Z</time>
</trkpt>
<trkpt lat="31.2231200" lon="35.2946800">
<ele>194.620010</ele>
<time>2024-01-10T16:36:58.942Z</time>
</trkpt>
<trkpt lat="31.2230800" lon="35.2946300">
<ele>194.510010</ele>
<time>2024-01-10T16:36:58.942Z</time>
</trkpt>
<trkpt lat="31.2230000" lon="35.2946000">
<ele>193.949997</ele>
<time>2024-01-10T16:36:58.942Z</time>
</trkpt>
<trkpt lat="31.2229200" lon="35.2945900">
<ele>193.270004</ele>
<time>2024-01-10T16:36:58.942Z</time>
</trkpt>
<trkpt lat="31.2227700" lon="35.2945900">
<ele>192.000000</ele>
<time>2024-01-10T16:36:58.942Z</time>
</trkpt>
<trkpt lat="31.2227400" lon="35.2946000">
<ele>191.970001</ele>
<time>2024-01-10T16:36:58.942Z</time>
</trkpt>
<trkpt lat="31.2227200" lon="35.2946300">
<ele>191.859985</ele>
<time>2024-01-10T16:36:58.942Z</time>
</trkpt>
<trkpt lat="31.2225800" lon="35.2947300">
<ele>190.489990</ele>
<time>2024-01-10T16:36:58.942Z</time>
</trkpt>
<trkpt lat="31.2225500" lon="35.2947600">
<ele>189.950012</ele>
<time>2024-01-10T16:36:58.942Z</time>
</trkpt>
<trkpt lat="31.2225000" lon="35.2948800">
<ele>188.300003</ele>
<time>2024-01-10T16:36:58.942Z</time>
</trkpt>
<trkpt lat="31.2224600" lon="35.2952000">
<ele>187.389999</ele>
<time>2024-01-10T16:36:58.942Z</time>
</trkpt>
<trkpt lat="31.2224300" lon="35.2954300">
<ele>188.560013</ele>
<time>2024-01-10T16:36:58.942Z</time>
</trkpt>
<trkpt lat="31.2224200" lon="35.2955500">
<ele>189.279999</ele>
<time>2024-01-10T16:36:58.942Z</time>
</trkpt>
<trkpt lat="31.2224500" lon="35.2957900">
<ele>189.820007</ele>
<time>2024-01-10T16:36:58.943Z</time>
</trkpt>
<trkpt lat="31.2224600" lon="35.2962200">
<ele>191.110016</ele>
<time>2024-01-10T16:36:58.943Z</time>
</trkpt>
<trkpt lat="31.2224400" lon="35.2965200">
<ele>191.100006</ele>
<time>2024-01-10T16:36:58.943Z</time>
</trkpt>
<trkpt lat="31.2223500" lon="35.2969000">
<ele>191.809998</ele>
<time>2024-01-10T16:36:58.943Z</time>
</trkpt>
<trkpt lat="31.2223000" lon="35.2971100">
<ele>191.089996</ele>
<time>2024-01-10T16:36:58.943Z</time>
</trkpt>
<trkpt lat="31.2222600" lon="35.2974700">
<ele>186.520004</ele>
<time>2024-01-10T16:36:58.943Z</time>
</trkpt>
<trkpt lat="31.2221600" lon="35.2977600">
<ele>183.550003</ele>
<time>2024-01-10T16:36:58.943Z</time>
</trkpt>
<trkpt lat="31.2221400" lon="35.2978300">
<ele>182.659988</ele>
<time>2024-01-10T16:36:58.943Z</time>
</trkpt>
<trkpt lat="31.2221300" lon="35.2981000">
<ele>181.229996</ele>
<time>2024-01-10T16:36:58.943Z</time>
</trkpt>
<trkpt lat="31.2221200" lon="35.2982100">
<ele>180.869995</ele>
<time>2024-01-10T16:36:58.943Z</time>
</trkpt>
<trkpt lat="31.2221100" lon="35.2982500">
<ele>180.709991</ele>
<time>2024-01-10T16:36:58.943Z</time>
</trkpt>
<trkpt lat="31.2220900" lon="35.2982900">
<ele>180.539993</ele>
<time>2024-01-10T16:36:58.943Z</time>
</trkpt>
<trkpt lat="31.2218900" lon="35.2984200">
<ele>178.950012</ele>
<time>2024-01-10T16:36:58.943Z</time>
</trkpt>
<trkpt lat="31.2214700" lon="35.2984700">
<ele>171.070007</ele>
<time>2024-01-10T16:36:58.943Z</time>
</trkpt>
<trkpt lat="31.2212400" lon="35.2984800">
<ele>160.929993</ele>
<time>2024-01-10T16:36:58.943Z</time>
</trkpt>
<trkpt lat="31.2212400" lon="35.2985200">
<ele>162.349991</ele>
<time>2024-01-10T16:36:58.943Z</time>
</trkpt>
<trkpt lat="31.2212700" lon="35.2985500">
<ele>164.919998</ele>
<time>2024-01-10T16:36:58.943Z</time>
</trkpt>
<trkpt lat="31.2212900" lon="35.2985800">
<ele>166.809998</ele>
<time>2024-01-10T16:36:58.943Z</time>
</trkpt>
<trkpt lat="31.2213600" lon="35.2985900">
<ele>170.300003</ele>
<time>2024-01-10T16:36:58.943Z</time>
</trkpt>
<trkpt lat="31.2214400" lon="35.2986000">
<ele>172.559998</ele>
<time>2024-01-10T16:36:58.943Z</time>
</trkpt>
<trkpt lat="31.2215000" lon="35.2986100">
<ele>173.579987</ele>
<time>2024-01-10T16:36:58.943Z</time>
</trkpt>
<trkpt lat="31.2216300" lon="35.2986100">
<ele>175.460007</ele>
<time>2024-01-10T16:36:58.943Z</time>
</trkpt>
<trkpt lat="31.2217800" lon="35.2986200">
<ele>177.639999</ele>
<time>2024-01-10T16:36:58.943Z</time>
</trkpt>
<trkpt lat="31.2218800" lon="35.2986500">
<ele>179.000000</ele>
<time>2024-01-10T16:36:58.943Z</time>
</trkpt>
<trkpt lat="31.2220200" lon="35.2987100">
<ele>178.459991</ele>
<time>2024-01-10T16:36:58.943Z</time>
</trkpt>
<trkpt lat="31.2220900" lon="35.2987700">
<ele>177.029999</ele>
<time>2024-01-10T16:36:58.943Z</time>
</trkpt>
<trkpt lat="31.2221000" lon="35.2988300">
<ele>176.529999</ele>
<time>2024-01-10T16:36:58.943Z</time>
</trkpt>
<trkpt lat="31.2221000" lon="35.2989800">
<ele>174.589996</ele>
<time>2024-01-10T16:36:58.944Z</time>
</trkpt>
<trkpt lat="31.2221000" lon="35.2992000">
<ele>171.089996</ele>
<time>2024-01-10T16:36:58.944Z</time>
</trkpt>
<trkpt lat="31.2220800" lon="35.2995600">
<ele>170.430008</ele>
<time>2024-01-10T16:36:58.944Z</time>
</trkpt>
<trkpt lat="31.2220700" lon="35.2997700">
<ele>170.790009</ele>
<time>2024-01-10T16:36:58.944Z</time>
</trkpt>
<trkpt lat="31.2220800" lon="35.3000200">
<ele>172.319992</ele>
<time>2024-01-10T16:36:58.944Z</time>
</trkpt>
<trkpt lat="31.2220800" lon="35.3003700">
<ele>176.819992</ele>
<time>2024-01-10T16:36:58.944Z</time>
</trkpt>
<trkpt lat="31.2221000" lon="35.3004300">
<ele>177.759995</ele>
<time>2024-01-10T16:36:58.944Z</time>
</trkpt>
<trkpt lat="31.2222800" lon="35.3009800">
<ele>180.500000</ele>
<time>2024-01-10T16:36:58.944Z</time>
</trkpt>
<trkpt lat="31.2223600" lon="35.3014500">
<ele>182.930008</ele>
<time>2024-01-10T16:36:58.944Z</time>
</trkpt>
<trkpt lat="31.2224000" lon="35.3015500">
<ele>184.080002</ele>
<time>2024-01-10T16:36:58.944Z</time>
</trkpt>
<trkpt lat="31.2224800" lon="35.3017000">
<ele>185.889999</ele>
<time>2024-01-10T16:36:58.944Z</time>
</trkpt>
<trkpt lat="31.2225500" lon="35.3017800">
<ele>186.690002</ele>
<time>2024-01-10T16:36:58.944Z</time>
</trkpt>
<trkpt lat="31.2229100" lon="35.3020200">
<ele>184.869995</ele>
<time>2024-01-10T16:36:58.944Z</time>
</trkpt>
<trkpt lat="31.2231400" lon="35.3023000">
<ele>181.649994</ele>
<time>2024-01-10T16:36:58.944Z</time>
</trkpt>
<trkpt lat="31.2232300" lon="35.3025100">
<ele>183.589996</ele>
<time>2024-01-10T16:36:58.944Z</time>
</trkpt>
<trkpt lat="31.2235600" lon="35.3029700">
<ele>178.719986</ele>
<time>2024-01-10T16:36:58.944Z</time>
</trkpt>
<trkpt lat="31.2236100" lon="35.3030100">
<ele>177.979996</ele>
<time>2024-01-10T16:36:58.944Z</time>
</trkpt>
<trkpt lat="31.2236500" lon="35.3030500">
<ele>176.830002</ele>
<time>2024-01-10T16:36:58.944Z</time>
</trkpt>
<trkpt lat="31.2237000" lon="35.3030900">
<ele>175.809998</ele>
<time>2024-01-10T16:36:58.944Z</time>
</trkpt>
<trkpt lat="31.2238400" lon="35.3032700">
<ele>173.900009</ele>
<time>2024-01-10T16:36:58.944Z</time>
</trkpt>
<trkpt lat="31.2239100" lon="35.3033700">
<ele>174.150009</ele>
<time>2024-01-10T16:36:58.944Z</time>
</trkpt>
<trkpt lat="31.2239600" lon="35.3034900">
<ele>174.169998</ele>
<time>2024-01-10T16:36:58.944Z</time>
</trkpt>
<trkpt lat="31.2239900" lon="35.3037200">
<ele>172.800003</ele>
<time>2024-01-10T16:36:58.944Z</time>
</trkpt>
<trkpt lat="31.2240000" lon="35.3040200">
<ele>170.739990</ele>
<time>2024-01-10T16:36:58.944Z</time>
</trkpt>
<trkpt lat="31.2240000" lon="35.3041900">
<ele>169.980011</ele>
<time>2024-01-10T16:36:58.944Z</time>
</trkpt>
<trkpt lat="31.2239600" lon="35.3043300">
<ele>170.139999</ele>
<time>2024-01-10T16:36:58.944Z</time>
</trkpt>
<trkpt lat="31.2239400" lon="35.3043600">
<ele>170.309998</ele>
<time>2024-01-10T16:36:58.944Z</time>
</trkpt>
<trkpt lat="31.2238500" lon="35.3046400">
<ele>171.139984</ele>
<time>2024-01-10T16:36:58.945Z</time>
</trkpt>
<trkpt lat="31.2234800" lon="35.3055300">
<ele>170.880005</ele>
<time>2024-01-10T16:36:58.945Z</time>
</trkpt>
<trkpt lat="31.2234400" lon="35.3055800">
<ele>170.750000</ele>
<time>2024-01-10T16:36:58.945Z</time>
</trkpt>
<trkpt lat="31.2234000" lon="35.3056300">
<ele>170.560013</ele>
<time>2024-01-10T16:36:58.945Z</time>
</trkpt>
<trkpt lat="31.2233600" lon="35.3056400">
<ele>170.020004</ele>
<time>2024-01-10T16:36:58.945Z</time>
</trkpt>
<trkpt lat="31.2232800" lon="35.3056600">
<ele>166.660004</ele>
<time>2024-01-10T16:36:58.945Z</time>
</trkpt>
<trkpt lat="31.2230800" lon="35.3056600">
<ele>155.039993</ele>
<time>2024-01-10T16:36:58.945Z</time>
</trkpt>
<trkpt lat="31.2229500" lon="35.3056700">
<ele>155.039993</ele>
<time>2024-01-10T16:36:58.945Z</time>
</trkpt>
<trkpt lat="31.2227600" lon="35.3056900">
<ele>157.449997</ele>
<time>2024-01-10T16:36:58.945Z</time>
</trkpt>
<trkpt lat="31.2226200" lon="35.3057000">
<ele>157.269989</ele>
<time>2024-01-10T16:36:58.945Z</time>
</trkpt>
<trkpt lat="31.2224000" lon="35.3057500">
<ele>158.299988</ele>
<time>2024-01-10T16:36:58.945Z</time>
</trkpt>
<trkpt lat="31.2223400" lon="35.3057700">
<ele>158.980011</ele>
<time>2024-01-10T16:36:58.945Z</time>
</trkpt>
<trkpt lat="31.2222200" lon="35.3058900">
<ele>160.929993</ele>
<time>2024-01-10T16:36:58.945Z</time>
</trkpt>
<trkpt lat="31.2221800" lon="35.3059500">
<ele>159.699997</ele>
<time>2024-01-10T16:36:58.945Z</time>
</trkpt>
<trkpt lat="31.2221200" lon="35.3060200">
<ele>157.940002</ele>
<time>2024-01-10T16:36:58.945Z</time>
</trkpt>
<trkpt lat="31.2220800" lon="35.3061100">
<ele>156.900009</ele>
<time>2024-01-10T16:36:58.945Z</time>
</trkpt>
<trkpt lat="31.2219800" lon="35.3063900">
<ele>151.360001</ele>
<time>2024-01-10T16:36:58.945Z</time>
</trkpt>
<trkpt lat="31.2218600" lon="35.3066800">
<ele>144.479996</ele>
<time>2024-01-10T16:36:58.945Z</time>
</trkpt>
<trkpt lat="31.2218400" lon="35.3067100">
<ele>143.520004</ele>
<time>2024-01-10T16:36:58.945Z</time>
</trkpt>
<trkpt lat="31.2217600" lon="35.3068300">
<ele>140.010010</ele>
<time>2024-01-10T16:36:58.945Z</time>
</trkpt>
<trkpt lat="31.2216300" lon="35.3069900">
<ele>135.460007</ele>
<time>2024-01-10T16:36:58.945Z</time>
</trkpt>
<trkpt lat="31.2215500" lon="35.3072800">
<ele>129.949997</ele>
<time>2024-01-10T16:36:58.945Z</time>
</trkpt>
<trkpt lat="31.2214900" lon="35.3073700">
<ele>127.500000</ele>
<time>2024-01-10T16:36:58.945Z</time>
</trkpt>
<trkpt lat="31.2214800" lon="35.3074100">
<ele>126.709999</ele>
<time>2024-01-10T16:36:58.945Z</time>
</trkpt>
<trkpt lat="31.2214100" lon="35.3074900">
<ele>124.450005</ele>
<time>2024-01-10T16:36:58.945Z</time>
</trkpt>
<trkpt lat="31.2213100" lon="35.3075700">
<ele>121.120003</ele>
<time>2024-01-10T16:36:58.945Z</time>
</trkpt>
<trkpt lat="31.2212400" lon="35.3076600">
<ele>118.599998</ele>
<time>2024-01-10T16:36:58.945Z</time>
</trkpt>
<trkpt lat="31.2212000" lon="35.3077200">
<ele>117.259995</ele>
<time>2024-01-10T16:36:58.945Z</time>
</trkpt>
<trkpt lat="31.2210100" lon="35.3082900">
<ele>107.500000</ele>
<time>2024-01-10T16:36:58.946Z</time>
</trkpt>
<trkpt lat="31.2209500" lon="35.3083700">
<ele>105.199997</ele>
<time>2024-01-10T16:36:58.946Z</time>
</trkpt>
<trkpt lat="31.2209300" lon="35.3084000">
<ele>104.520004</ele>
<time>2024-01-10T16:36:58.946Z</time>
</trkpt>
<trkpt lat="31.2208400" lon="35.3084600">
<ele>102.220001</ele>
<time>2024-01-10T16:36:58.946Z</time>
</trkpt>
<trkpt lat="31.2206700" lon="35.3085200">
<ele>99.300003</ele>
<time>2024-01-10T16:36:58.946Z</time>
</trkpt>
<trkpt lat="31.2206400" lon="35.3085500">
<ele>98.659996</ele>
<time>2024-01-10T16:36:58.946Z</time>
</trkpt>
<trkpt lat="31.2206100" lon="35.3087100">
<ele>97.070000</ele>
<time>2024-01-10T16:36:58.946Z</time>
</trkpt>
<trkpt lat="31.2205300" lon="35.3089200">
<ele>95.409996</ele>
<time>2024-01-10T16:36:58.946Z</time>
</trkpt>
<trkpt lat="31.2205100" lon="35.3091000">
<ele>96.849998</ele>
<time>2024-01-10T16:36:58.946Z</time>
</trkpt>
<trkpt lat="31.2205100" lon="35.3095100">
<ele>99.529999</ele>
<time>2024-01-10T16:36:58.946Z</time>
</trkpt>
<trkpt lat="31.2205000" lon="35.3095700">
<ele>99.760002</ele>
<time>2024-01-10T16:36:58.946Z</time>
</trkpt>
<trkpt lat="31.2204800" lon="35.3096800">
<ele>100.159996</ele>
<time>2024-01-10T16:36:58.946Z</time>
</trkpt>
<trkpt lat="31.2204500" lon="35.3101700">
<ele>98.159996</ele>
<time>2024-01-10T16:36:58.946Z</time>
</trkpt>
<trkpt lat="31.2204400" lon="35.3104000">
<ele>96.889999</ele>
<time>2024-01-10T16:36:58.946Z</time>
</trkpt>
<trkpt lat="31.2204200" lon="35.3106000">
<ele>96.070000</ele>
<time>2024-01-10T16:36:58.946Z</time>
</trkpt>
<trkpt lat="31.2204100" lon="35.3108500">
<ele>96.629997</ele>
<time>2024-01-10T16:36:58.946Z</time>
</trkpt>
<trkpt lat="31.2204000" lon="35.3111900">
<ele>97.830002</ele>
<time>2024-01-10T16:36:58.946Z</time>
</trkpt>
<trkpt lat="31.2204100" lon="35.3116000">
<ele>97.630005</ele>
<time>2024-01-10T16:36:58.946Z</time>
</trkpt>
<trkpt lat="31.2204100" lon="35.3117100">
<ele>97.460007</ele>
<time>2024-01-10T16:36:58.946Z</time>
</trkpt>
<trkpt lat="31.2204000" lon="35.3122500">
<ele>93.919998</ele>
<time>2024-01-10T16:36:58.946Z</time>
</trkpt>
<trkpt lat="31.2204100" lon="35.3125300">
<ele>91.949997</ele>
<time>2024-01-10T16:36:58.946Z</time>
</trkpt>
<trkpt lat="31.2204100" lon="35.3126900">
<ele>91.400002</ele>
<time>2024-01-10T16:36:58.946Z</time>
</trkpt>
<trkpt lat="31.2204000" lon="35.3128900">
<ele>91.639999</ele>
<time>2024-01-10T16:36:58.946Z</time>
</trkpt>
<trkpt lat="31.2204200" lon="35.3134300">
<ele>94.330002</ele>
<time>2024-01-10T16:36:58.946Z</time>
</trkpt>
<trkpt lat="31.2204100" lon="35.3136200">
<ele>95.050003</ele>
<time>2024-01-10T16:36:58.946Z</time>
</trkpt>
<trkpt lat="31.2203400" lon="35.3139100">
<ele>96.270004</ele>
<time>2024-01-10T16:36:58.946Z</time>
</trkpt>
<trkpt lat="31.2203400" lon="35.3140000">
<ele>96.440002</ele>
<time>2024-01-10T16:36:58.946Z</time>
</trkpt>
<trkpt lat="31.2203300" lon="35.3142400">
<ele>96.710007</ele>
<time>2024-01-10T16:36:58.947Z</time>
</trkpt>
<trkpt lat="31.2203600" lon="35.3142800">
<ele>96.459999</ele>
<time>2024-01-10T16:36:58.947Z</time>
</trkpt>
<trkpt lat="31.2203800" lon="35.3143300">
<ele>96.199997</ele>
<time>2024-01-10T16:36:58.947Z</time>
</trkpt>
<trkpt lat="31.2189200" lon="35.3168400">
<ele>86.919998</ele>
<time>2024-01-10T16:36:58.947Z</time>
</trkpt>
<trkpt lat="31.2182400" lon="35.3184800">
<ele>87.680000</ele>
<time>2024-01-10T16:36:58.947Z</time>
</trkpt>
<trkpt lat="31.2181100" lon="35.3190300">
<ele>85.880005</ele>
<time>2024-01-10T16:36:58.947Z</time>
</trkpt>
<trkpt lat="31.2181500" lon="35.3197000">
<ele>83.690002</ele>
<time>2024-01-10T16:36:58.947Z</time>
</trkpt>
<trkpt lat="31.2179700" lon="35.3206600">
<ele>82.209999</ele>
<time>2024-01-10T16:36:58.947Z</time>
</trkpt>
<trkpt lat="31.2174100" lon="35.3219900">
<ele>81.889999</ele>
<time>2024-01-10T16:36:58.947Z</time>
</trkpt>
<trkpt lat="31.2160600" lon="35.3229300">
<ele>82.639999</ele>
<time>2024-01-10T16:36:58.947Z</time>
</trkpt>
<trkpt lat="31.2154400" lon="35.3237000">
<ele>83.910004</ele>
<time>2024-01-10T16:36:58.947Z</time>
</trkpt>
<trkpt lat="31.2150100" lon="35.3248100">
<ele>74.320000</ele>
<time>2024-01-10T16:36:58.947Z</time>
</trkpt>
<trkpt lat="31.2139900" lon="35.3268000">
<ele>60.509998</ele>
<time>2024-01-10T16:36:58.947Z</time>
</trkpt>
<trkpt lat="31.2124200" lon="35.3284700">
<ele>54.419998</ele>
<time>2024-01-10T16:36:58.947Z</time>
</trkpt>
<trkpt lat="31.2112900" lon="35.3311400">
<ele>38.149998</ele>
<time>2024-01-10T16:36:58.947Z</time>
</trkpt>
<trkpt lat="31.2113200" lon="35.3317700">
<ele>34.220001</ele>
<time>2024-01-10T16:36:58.947Z</time>
</trkpt>
<trkpt lat="31.2115400" lon="35.3324500">
<ele>30.369999</ele>
<time>2024-01-10T16:36:58.947Z</time>
</trkpt>
<trkpt lat="31.2108600" lon="35.3352900">
<ele>33.880001</ele>
<time>2024-01-10T16:36:58.947Z</time>
</trkpt>
<trkpt lat="31.2105600" lon="35.3374400">
<ele>37.860001</ele>
<time>2024-01-10T16:36:58.947Z</time>
</trkpt>
<trkpt lat="31.2102800" lon="35.3402700">
<ele>24.070000</ele>
<time>2024-01-10T16:36:58.947Z</time>
</trkpt>
<trkpt lat="31.2098900" lon="35.3423700">
<ele>29.790001</ele>
<time>2024-01-10T16:36:58.947Z</time>
</trkpt>
<trkpt lat="31.2089500" lon="35.3452200">
<ele>24.439999</ele>
<time>2024-01-10T16:36:58.947Z</time>
</trkpt>
<trkpt lat="31.2080800" lon="35.3463600">
<ele>28.820000</ele>
<time>2024-01-10T16:36:58.947Z</time>
</trkpt>
<trkpt lat="31.2080700" lon="35.3485300">
<ele>9.680000</ele>
<time>2024-01-10T16:36:58.947Z</time>
</trkpt>
<trkpt lat="31.2077900" lon="35.3492100">
<ele>7.780000</ele>
<time>2024-01-10T16:36:58.947Z</time>
</trkpt>
<trkpt lat="31.2081000" lon="35.3504800">
<ele>-8.830000</ele>
<time>2024-01-10T16:36:58.947Z</time>
</trkpt>
<trkpt lat="31.2077900" lon="35.3491500">
<ele>7.730000</ele>
<time>2024-01-10T16:36:58.947Z</time>
</trkpt>
<trkpt lat="31.2080700" lon="35.3484800">
<ele>10.230000</ele>
<time>2024-01-10T16:36:58.948Z</time>
</trkpt>
<trkpt lat="31.2080400" lon="35.3463200">
<ele>28.570000</ele>
<time>2024-01-10T16:36:58.948Z</time>
</trkpt>
<trkpt lat="31.2089900" lon="35.3452300">
<ele>24.730000</ele>
<time>2024-01-10T16:36:58.948Z</time>
</trkpt>
<trkpt lat="31.2111700" lon="35.3444500">
<ele>13.690001</ele>
<time>2024-01-10T16:36:58.948Z</time>
</trkpt>
<trkpt lat="31.2130200" lon="35.3434500">
<ele>13.560000</ele>
<time>2024-01-10T16:36:58.948Z</time>
</trkpt>
<trkpt lat="31.2143000" lon="35.3435100">
<ele>18.170000</ele>
<time>2024-01-10T16:36:58.948Z</time>
</trkpt>
<trkpt lat="31.2151900" lon="35.3434800">
<ele>21.740002</ele>
<time>2024-01-10T16:36:58.948Z</time>
</trkpt>
<trkpt lat="31.2159800" lon="35.3434800">
<ele>25.550001</ele>
<time>2024-01-10T16:36:58.948Z</time>
</trkpt>
<trkpt lat="31.2173300" lon="35.3433100">
<ele>32.710003</ele>
<time>2024-01-10T16:36:58.948Z</time>
</trkpt>
<trkpt lat="31.2178800" lon="35.3428100">
<ele>31.029999</ele>
<time>2024-01-10T16:36:58.948Z</time>
</trkpt>
<trkpt lat="31.2184900" lon="35.3423300">
<ele>33.299999</ele>
<time>2024-01-10T16:36:58.948Z</time>
</trkpt>
<trkpt lat="31.2188600" lon="35.3421100">
<ele>35.470001</ele>
<time>2024-01-10T16:36:58.948Z</time>
</trkpt>
<trkpt lat="31.2202200" lon="35.3410500">
<ele>36.200001</ele>
<time>2024-01-10T16:36:58.948Z</time>
</trkpt>
<trkpt lat="31.2211900" lon="35.3403800">
<ele>36.470001</ele>
<time>2024-01-10T16:36:58.948Z</time>
</trkpt>
<trkpt lat="31.2221900" lon="35.3401300">
<ele>28.800001</ele>
<time>2024-01-10T16:36:58.948Z</time>
</trkpt>
<trkpt lat="31.2227200" lon="35.3398500">
<ele>26.680000</ele>
<time>2024-01-10T16:36:58.948Z</time>
</trkpt>
<trkpt lat="31.2238100" lon="35.3396400">
<ele>31.750000</ele>
<time>2024-01-10T16:36:58.948Z</time>
</trkpt>
<trkpt lat="31.2255300" lon="35.3394800">
<ele>41.209999</ele>
<time>2024-01-10T16:36:58.948Z</time>
</trkpt>
<trkpt lat="31.2260000" lon="35.3395100">
<ele>36.360001</ele>
<time>2024-01-10T16:36:58.948Z</time>
</trkpt>
<trkpt lat="31.2268900" lon="35.3392300">
<ele>39.579998</ele>
<time>2024-01-10T16:36:58.948Z</time>
</trkpt>
<trkpt lat="31.2273900" lon="35.3390400">
<ele>39.220001</ele>
<time>2024-01-10T16:36:58.948Z</time>
</trkpt>
<trkpt lat="31.2280300" lon="35.3387100">
<ele>39.360001</ele>
<time>2024-01-10T16:36:58.948Z</time>
</trkpt>
<trkpt lat="31.2287600" lon="35.3384200">
<ele>42.689999</ele>
<time>2024-01-10T16:36:58.949Z</time>
</trkpt>
<trkpt lat="31.2289700" lon="35.3384200">
<ele>42.889999</ele>
<time>2024-01-10T16:36:58.949Z</time>
</trkpt>
<trkpt lat="31.2290100" lon="35.3399100">
<ele>40.200001</ele>
<time>2024-01-10T16:36:58.949Z</time>
</trkpt>
<trkpt lat="31.2290400" lon="35.3400000">
<ele>40.459999</ele>
<time>2024-01-10T16:36:58.949Z</time>
</trkpt>
<trkpt lat="31.2291300" lon="35.3403500">
<ele>40.770000</ele>
<time>2024-01-10T16:36:58.949Z</time>
</trkpt>
<trkpt lat="31.2291600" lon="35.3405600">
<ele>40.009998</ele>
<time>2024-01-10T16:36:58.949Z</time>
</trkpt>
<trkpt lat="31.2291900" lon="35.3410800">
<ele>37.469997</ele>
<time>2024-01-10T16:36:58.949Z</time>
</trkpt>
<trkpt lat="31.2292700" lon="35.3414300">
<ele>36.689999</ele>
<time>2024-01-10T16:36:58.949Z</time>
</trkpt>
<trkpt lat="31.2294400" lon="35.3424000">
<ele>36.990002</ele>
<time>2024-01-10T16:36:58.949Z</time>
</trkpt>
<trkpt lat="31.2295300" lon="35.3426300">
<ele>39.060001</ele>
<time>2024-01-10T16:36:58.949Z</time>
</trkpt>
<trkpt lat="31.2295700" lon="35.3427100">
<ele>39.520000</ele>
<time>2024-01-10T16:36:58.949Z</time>
</trkpt>
<trkpt lat="31.2296200" lon="35.3427900">
<ele>39.590004</ele>
<time>2024-01-10T16:36:58.949Z</time>
</trkpt>
<trkpt lat="31.2296500" lon="35.3428200">
<ele>39.590004</ele>
<time>2024-01-10T16:36:58.949Z</time>
</trkpt>
<trkpt lat="31.2297700" lon="35.3430800">
<ele>38.829998</ele>
<time>2024-01-10T16:36:58.949Z</time>
</trkpt>
<trkpt lat="31.2298200" lon="35.3431500">
<ele>38.649998</ele>
<time>2024-01-10T16:36:58.949Z</time>
</trkpt>
<trkpt lat="31.2298700" lon="35.3432200">
<ele>38.470001</ele>
<time>2024-01-10T16:36:58.949Z</time>
</trkpt>
<trkpt lat="31.2300100" lon="35.3434200">
<ele>37.360001</ele>
<time>2024-01-10T16:36:58.949Z</time>
</trkpt>
<trkpt lat="31.2301500" lon="35.3436200">
<ele>36.480000</ele>
<time>2024-01-10T16:36:58.949Z</time>
</trkpt>
<trkpt lat="31.2301700" lon="35.3436500">
<ele>36.330002</ele>
<time>2024-01-10T16:36:58.949Z</time>
</trkpt>
<trkpt lat="31.2301700" lon="35.3436500">
<ele>36.330002</ele>
<time>2024-01-10T16:36:58.949Z</time>
</trkpt>
<trkpt lat="31.2301700" lon="35.3436500">
<ele>36.330002</ele>
<time>2024-01-10T16:36:58.949Z</time>
</trkpt>
<trkpt lat="31.2305600" lon="35.3444200">
<ele>33.020000</ele>
<time>2024-01-10T16:36:58.950Z</time>
</trkpt>
<trkpt lat="31.2313800" lon="35.3453500">
<ele>29.119999</ele>
<time>2024-01-10T16:36:58.950Z</time>
</trkpt>
<trkpt lat="31.2315600" lon="35.3455000">
<ele>29.230000</ele>
<time>2024-01-10T16:36:58.950Z</time>
</trkpt>
<trkpt lat="31.2315800" lon="35.3456100">
<ele>29.520000</ele>
<time>2024-01-10T16:36:58.950Z</time>
</trkpt>
<trkpt lat="31.2315500" lon="35.3457200">
<ele>30.369999</ele>
<time>2024-01-10T16:36:58.950Z</time>
</trkpt>
<trkpt lat="31.2311900" lon="35.3460300">
<ele>34.450001</ele>
<time>2024-01-10T16:36:58.950Z</time>
</trkpt>
<trkpt lat="31.2310800" lon="35.3460900">
<ele>35.840000</ele>
<time>2024-01-10T16:36:58.950Z</time>
</trkpt>
<trkpt lat="31.2309700" lon="35.3461500">
<ele>35.790001</ele>
<time>2024-01-10T16:36:58.950Z</time>
</trkpt>
<trkpt lat="31.2309000" lon="35.3462300">
<ele>35.470001</ele>
<time>2024-01-10T16:36:58.950Z</time>
</trkpt>
<trkpt lat="31.2308800" lon="35.3463600">
<ele>34.950001</ele>
<time>2024-01-10T16:36:58.950Z</time>
</trkpt>
<trkpt lat="31.2308800" lon="35.3463600">
<ele>34.950001</ele>
<time>2024-01-10T16:36:58.950Z</time>
</trkpt>
<trkpt lat="31.2308800" lon="35.3463600">
<ele>34.950001</ele>
<time>2024-01-10T16:36:58.950Z</time>
</trkpt>
<trkpt lat="31.2308700" lon="35.3464200">
<ele>34.170002</ele>
<time>2024-01-10T16:36:58.950Z</time>
</trkpt>
<trkpt lat="31.2309300" lon="35.3465300">
<ele>31.250000</ele>
<time>2024-01-10T16:36:58.950Z</time>
</trkpt>
<trkpt lat="31.2310100" lon="35.3465800">
<ele>29.360001</ele>
<time>2024-01-10T16:36:58.950Z</time>
</trkpt>
<trkpt lat="31.2311300" lon="35.3465500">
<ele>28.680000</ele>
<time>2024-01-10T16:36:58.950Z</time>
</trkpt>
<trkpt lat="31.2314200" lon="35.3465600">
<ele>19.290001</ele>
<time>2024-01-10T16:36:58.950Z</time>
</trkpt>
<trkpt lat="31.2314200" lon="35.3465600">
<ele>19.290001</ele>
<time>2024-01-10T16:36:58.950Z</time>
</trkpt>
<trkpt lat="31.2311300" lon="35.3465500">
<ele>28.680000</ele>
<time>2024-01-10T16:36:58.950Z</time>
</trkpt>
<trkpt lat="31.2311300" lon="35.3461800">
<ele>35.200001</ele>
<time>2024-01-10T16:36:58.950Z</time>
</trkpt>
<trkpt lat="31.2311900" lon="35.3460300">
<ele>34.450001</ele>
<time>2024-01-10T16:36:58.950Z</time>
</trkpt>
<trkpt lat="31.2315500" lon="35.3457200">
<ele>30.369999</ele>
<time>2024-01-10T16:36:58.950Z</time>
</trkpt>
<trkpt lat="31.2319100" lon="35.3454600">
<ele>29.750000</ele>
<time>2024-01-10T16:36:58.950Z</time>
</trkpt>
<trkpt lat="31.2321100" lon="35.3453400">
<ele>30.200001</ele>
<time>2024-01-10T16:36:58.950Z</time>
</trkpt>
<trkpt lat="31.2326100" lon="35.3451400">
<ele>29.600000</ele>
<time>2024-01-10T16:36:58.951Z</time>
</trkpt>
<trkpt lat="31.2328100" lon="35.3449700">
<ele>29.490000</ele>
<time>2024-01-10T16:36:58.951Z</time>
</trkpt>
<trkpt lat="31.2330700" lon="35.3449200">
<ele>27.650002</ele>
<time>2024-01-10T16:36:58.951Z</time>
</trkpt>
<trkpt lat="31.2331900" lon="35.3448500">
<ele>28.530001</ele>
<time>2024-01-10T16:36:58.951Z</time>
</trkpt>
<trkpt lat="31.2334400" lon="35.3448700">
<ele>30.379999</ele>
<time>2024-01-10T16:36:58.951Z</time>
</trkpt>
<trkpt lat="31.2336400" lon="35.3449500">
<ele>33.410000</ele>
<time>2024-01-10T16:36:58.951Z</time>
</trkpt>
<trkpt lat="31.2337400" lon="35.3449200">
<ele>33.070000</ele>
<time>2024-01-10T16:36:58.951Z</time>
</trkpt>
<trkpt lat="31.2341000" lon="35.3444900">
<ele>34.549999</ele>
<time>2024-01-10T16:36:58.951Z</time>
</trkpt>
<trkpt lat="31.2343700" lon="35.3442500">
<ele>36.059998</ele>
<time>2024-01-10T16:36:58.951Z</time>
</trkpt>
<trkpt lat="31.2345500" lon="35.3441700">
<ele>36.380001</ele>
<time>2024-01-10T16:36:58.951Z</time>
</trkpt>
<trkpt lat="31.2348200" lon="35.3441000">
<ele>36.450001</ele>
<time>2024-01-10T16:36:58.951Z</time>
</trkpt>
<trkpt lat="31.2351400" lon="35.3439500">
<ele>38.619999</ele>
<time>2024-01-10T16:36:58.951Z</time>
</trkpt>
<trkpt lat="31.2353800" lon="35.3439700">
<ele>34.989998</ele>
<time>2024-01-10T16:36:58.951Z</time>
</trkpt>
<trkpt lat="31.2356300" lon="35.3440400">
<ele>31.770000</ele>
<time>2024-01-10T16:36:58.951Z</time>
</trkpt>
<trkpt lat="31.2360200" lon="35.3439700">
<ele>27.900000</ele>
<time>2024-01-10T16:36:58.951Z</time>
</trkpt>
<trkpt lat="31.2365800" lon="35.3440200">
<ele>25.100000</ele>
<time>2024-01-10T16:36:58.951Z</time>
</trkpt>
<trkpt lat="31.2367600" lon="35.3439600">
<ele>25.920000</ele>
<time>2024-01-10T16:36:58.951Z</time>
</trkpt>
<trkpt lat="31.2369700" lon="35.3439400">
<ele>25.760000</ele>
<time>2024-01-10T16:36:58.951Z</time>
</trkpt>
<trkpt lat="31.2370400" lon="35.3439600">
<ele>24.710001</ele>
<time>2024-01-10T16:36:58.951Z</time>
</trkpt>
<trkpt lat="31.2371100" lon="35.3439900">
<ele>23.820000</ele>
<time>2024-01-10T16:36:58.951Z</time>
</trkpt>
<trkpt lat="31.2371600" lon="35.3440700">
<ele>23.779999</ele>
<time>2024-01-10T16:36:58.951Z</time>
</trkpt>
<trkpt lat="31.2371500" lon="35.3441700">
<ele>24.720001</ele>
<time>2024-01-10T16:36:58.951Z</time>
</trkpt>
<trkpt lat="31.2370000" lon="35.3444100">
<ele>23.950001</ele>
<time>2024-01-10T16:36:58.951Z</time>
</trkpt>
<trkpt lat="31.2369100" lon="35.3444700">
<ele>24.230000</ele>
<time>2024-01-10T16:36:58.951Z</time>
</trkpt>
<trkpt lat="31.2367300" lon="35.3447700">
<ele>18.110001</ele>
<time>2024-01-10T16:36:58.951Z</time>
</trkpt>
<trkpt lat="31.2360600" lon="35.3453100">
<ele>4.850000</ele>
<time>2024-01-10T16:36:58.951Z</time>
</trkpt>
<trkpt lat="31.2358900" lon="35.3456200">
<ele>-5.040000</ele>
<time>2024-01-10T16:36:58.952Z</time>
</trkpt>
<trkpt lat="31.2357300" lon="35.3460800">
<ele>-10.670000</ele>
<time>2024-01-10T16:36:58.952Z</time>
</trkpt>
<trkpt lat="31.2355900" lon="35.3461800">
<ele>-15.980000</ele>
<time>2024-01-10T16:36:58.952Z</time>
</trkpt>
<trkpt lat="31.2355100" lon="35.3462100">
<ele>-18.080000</ele>
<time>2024-01-10T16:36:58.952Z</time>
</trkpt>
<trkpt lat="31.2353900" lon="35.3463100">
<ele>-21.210001</ele>
<time>2024-01-10T16:36:58.952Z</time>
</trkpt>
<trkpt lat="31.2352600" lon="35.3463700">
<ele>-24.610001</ele>
<time>2024-01-10T16:36:58.952Z</time>
</trkpt>
<trkpt lat="31.2349700" lon="35.3464300">
<ele>-25.600000</ele>
<time>2024-01-10T16:36:58.952Z</time>
</trkpt>
<trkpt lat="31.2348200" lon="35.3464100">
<ele>-29.559999</ele>
<time>2024-01-10T16:36:58.952Z</time>
</trkpt>
<trkpt lat="31.2346000" lon="35.3464200">
<ele>-35.400002</ele>
<time>2024-01-10T16:36:58.952Z</time>
</trkpt>
<trkpt lat="31.2343600" lon="35.3464800">
<ele>-42.469997</ele>
<time>2024-01-10T16:36:58.952Z</time>
</trkpt>
<trkpt lat="31.2342000" lon="35.3465700">
<ele>-48.269997</ele>
<time>2024-01-10T16:36:58.952Z</time>
</trkpt>
<trkpt lat="31.2340600" lon="35.3467200">
<ele>-51.910000</ele>
<time>2024-01-10T16:36:58.952Z</time>
</trkpt>
<trkpt lat="31.2335800" lon="35.3468800">
<ele>-58.260002</ele>
<time>2024-01-10T16:36:58.952Z</time>
</trkpt>
<trkpt lat="31.2332400" lon="35.3472700">
<ele>-70.049995</ele>
<time>2024-01-10T16:36:58.952Z</time>
</trkpt>
<trkpt lat="31.2330800" lon="35.3473600">
<ele>-72.889999</ele>
<time>2024-01-10T16:36:58.952Z</time>
</trkpt>
<trkpt lat="31.2329800" lon="35.3475300">
<ele>-72.260002</ele>
<time>2024-01-10T16:36:58.952Z</time>
</trkpt>
<trkpt lat="31.2329600" lon="35.3476500">
<ele>-71.639999</ele>
<time>2024-01-10T16:36:58.952Z</time>
</trkpt>
<trkpt lat="31.2329100" lon="35.3477500">
<ele>-72.119995</ele>
<time>2024-01-10T16:36:58.952Z</time>
</trkpt>
<trkpt lat="31.2324300" lon="35.3479300">
<ele>-76.659996</ele>
<time>2024-01-10T16:36:58.952Z</time>
</trkpt>
<trkpt lat="31.2323400" lon="35.3480600">
<ele>-78.870003</ele>
<time>2024-01-10T16:36:58.952Z</time>
</trkpt>
<trkpt lat="31.2322200" lon="35.3483300">
<ele>-79.989998</ele>
<time>2024-01-10T16:36:58.952Z</time>
</trkpt>
<trkpt lat="31.2321700" lon="35.3483600">
<ele>-80.740005</ele>
<time>2024-01-10T16:36:58.952Z</time>
</trkpt>
<trkpt lat="31.2319400" lon="35.3483400">
<ele>-81.989998</ele>
<time>2024-01-10T16:36:58.952Z</time>
</trkpt>
<trkpt lat="31.2318600" lon="35.3483700">
<ele>-80.999992</ele>
<time>2024-01-10T16:36:58.952Z</time>
</trkpt>
<trkpt lat="31.2317700" lon="35.3485500">
<ele>-82.669998</ele>
<time>2024-01-10T16:36:58.952Z</time>
</trkpt>
<trkpt lat="31.2316300" lon="35.3486700">
<ele>-83.029999</ele>
<time>2024-01-10T16:36:58.952Z</time>
</trkpt>
<trkpt lat="31.2315500" lon="35.3487900">
<ele>-83.029999</ele>
<time>2024-01-10T16:36:58.952Z</time>
</trkpt>
<trkpt lat="31.2314400" lon="35.3490600">
<ele>-85.910004</ele>
<time>2024-01-10T16:36:58.953Z</time>
</trkpt>
<trkpt lat="31.2313800" lon="35.3491200">
<ele>-87.049995</ele>
<time>2024-01-10T16:36:58.953Z</time>
</trkpt>
<trkpt lat="31.2308000" lon="35.3492400">
<ele>-94.600006</ele>
<time>2024-01-10T16:36:58.953Z</time>
</trkpt>
<trkpt lat="31.2306200" lon="35.3492600">
<ele>-94.260002</ele>
<time>2024-01-10T16:36:58.953Z</time>
</trkpt>
<trkpt lat="31.2304200" lon="35.3492400">
<ele>-95.609993</ele>
<time>2024-01-10T16:36:58.953Z</time>
</trkpt>
<trkpt lat="31.2303200" lon="35.3492700">
<ele>-98.700005</ele>
<time>2024-01-10T16:36:58.953Z</time>
</trkpt>
<trkpt lat="31.2301700" lon="35.3494400">
<ele>-107.189995</ele>
<time>2024-01-10T16:36:58.953Z</time>
</trkpt>
<trkpt lat="31.2299100" lon="35.3496100">
<ele>-116.639999</ele>
<time>2024-01-10T16:36:58.953Z</time>
</trkpt>
<trkpt lat="31.2297400" lon="35.3496400">
<ele>-120.550003</ele>
<time>2024-01-10T16:36:58.953Z</time>
</trkpt>
<trkpt lat="31.2296000" lon="35.3496100">
<ele>-120.720001</ele>
<time>2024-01-10T16:36:58.953Z</time>
</trkpt>
<trkpt lat="31.2295100" lon="35.3496100">
<ele>-122.340004</ele>
<time>2024-01-10T16:36:58.953Z</time>
</trkpt>
<trkpt lat="31.2291400" lon="35.3498300">
<ele>-141.070007</ele>
<time>2024-01-10T16:36:58.953Z</time>
</trkpt>
<trkpt lat="31.2284800" lon="35.3499900">
<ele>-146.479996</ele>
<time>2024-01-10T16:36:58.953Z</time>
</trkpt>
<trkpt lat="31.2282000" lon="35.3501100">
<ele>-154.529999</ele>
<time>2024-01-10T16:36:58.953Z</time>
</trkpt>
<trkpt lat="31.2279000" lon="35.3501100">
<ele>-152.830002</ele>
<time>2024-01-10T16:36:58.953Z</time>
</trkpt>
<trkpt lat="31.2276000" lon="35.3502700">
<ele>-160.009995</ele>
<time>2024-01-10T16:36:58.953Z</time>
</trkpt>
<trkpt lat="31.2273600" lon="35.3503400">
<ele>-163.969986</ele>
<time>2024-01-10T16:36:58.953Z</time>
</trkpt>
<trkpt lat="31.2269300" lon="35.3502800">
<ele>-167.990005</ele>
<time>2024-01-10T16:36:58.953Z</time>
</trkpt>
<trkpt lat="31.2265100" lon="35.3503400">
<ele>-166.199997</ele>
<time>2024-01-10T16:36:58.953Z</time>
</trkpt>
<trkpt lat="31.2263700" lon="35.3504100">
<ele>-168.079987</ele>
<time>2024-01-10T16:36:58.953Z</time>
</trkpt>
<trkpt lat="31.2261600" lon="35.3504300">
<ele>-169.320007</ele>
<time>2024-01-10T16:36:58.953Z</time>
</trkpt>
<trkpt lat="31.2258800" lon="35.3505300">
<ele>-175.650009</ele>
<time>2024-01-10T16:36:58.953Z</time>
</trkpt>
<trkpt lat="31.2256300" lon="35.3505600">
<ele>-172.060013</ele>
<time>2024-01-10T16:36:58.953Z</time>
</trkpt>
<trkpt lat="31.2251600" lon="35.3508400">
<ele>-172.389999</ele>
<time>2024-01-10T16:36:58.953Z</time>
</trkpt>
<trkpt lat="31.2248900" lon="35.3509500">
<ele>-175.800003</ele>
<time>2024-01-10T16:36:58.953Z</time>
</trkpt>
<trkpt lat="31.2245400" lon="35.3512600">
<ele>-197.410004</ele>
<time>2024-01-10T16:36:58.953Z</time>
</trkpt>
<trkpt lat="31.2243100" lon="35.3513600">
<ele>-196.789993</ele>
<time>2024-01-10T16:36:58.953Z</time>
</trkpt>
<trkpt lat="31.2242000" lon="35.3513300">
<ele>-189.559998</ele>
<time>2024-01-10T16:36:58.954Z</time>
</trkpt>
<trkpt lat="31.2239800" lon="35.3511200">
<ele>-175.470001</ele>
<time>2024-01-10T16:36:58.954Z</time>
</trkpt>
<trkpt lat="31.2238600" lon="35.3510600">
<ele>-173.380005</ele>
<time>2024-01-10T16:36:58.954Z</time>
</trkpt>
<trkpt lat="31.2236900" lon="35.3510900">
<ele>-170.529999</ele>
<time>2024-01-10T16:36:58.954Z</time>
</trkpt>
<trkpt lat="31.2235700" lon="35.3511700">
<ele>-173.330002</ele>
<time>2024-01-10T16:36:58.954Z</time>
</trkpt>
<trkpt lat="31.2234700" lon="35.3513800">
<ele>-189.839996</ele>
<time>2024-01-10T16:36:58.954Z</time>
</trkpt>
<trkpt lat="31.2233600" lon="35.3514500">
<ele>-195.430008</ele>
<time>2024-01-10T16:36:58.954Z</time>
</trkpt>
<trkpt lat="31.2231500" lon="35.3515000">
<ele>-196.419998</ele>
<time>2024-01-10T16:36:58.954Z</time>
</trkpt>
<trkpt lat="31.2227800" lon="35.3516800">
<ele>-199.710007</ele>
<time>2024-01-10T16:36:58.954Z</time>
</trkpt>
<trkpt lat="31.2224800" lon="35.3520800">
<ele>-208.860001</ele>
<time>2024-01-10T16:36:58.954Z</time>
</trkpt>
<trkpt lat="31.2222600" lon="35.3522600">
<ele>-218.760010</ele>
<time>2024-01-10T16:36:58.954Z</time>
</trkpt>
<trkpt lat="31.2218100" lon="35.3527600">
<ele>-230.100006</ele>
<time>2024-01-10T16:36:58.954Z</time>
</trkpt>
<trkpt lat="31.2215600" lon="35.3529500">
<ele>-236.669998</ele>
<time>2024-01-10T16:36:58.954Z</time>
</trkpt>
<trkpt lat="31.2211900" lon="35.3530800">
<ele>-245.240005</ele>
<time>2024-01-10T16:36:58.954Z</time>
</trkpt>
<trkpt lat="31.2211400" lon="35.3531300">
<ele>-246.679993</ele>
<time>2024-01-10T16:36:58.954Z</time>
</trkpt>
<trkpt lat="31.2211800" lon="35.3532000">
<ele>-247.220001</ele>
<time>2024-01-10T16:36:58.954Z</time>
</trkpt>
<trkpt lat="31.2214300" lon="35.3532900">
<ele>-246.780014</ele>
<time>2024-01-10T16:36:58.954Z</time>
</trkpt>
<trkpt lat="31.2215000" lon="35.3533600">
<ele>-250.919998</ele>
<time>2024-01-10T16:36:58.954Z</time>
</trkpt>
<trkpt lat="31.2214800" lon="35.3534300">
<ele>-255.349991</ele>
<time>2024-01-10T16:36:58.954Z</time>
</trkpt>
<trkpt lat="31.2212900" lon="35.3535800">
<ele>-261.330017</ele>
<time>2024-01-10T16:36:58.954Z</time>
</trkpt>
<trkpt lat="31.2206300" lon="35.3536900">
<ele>-262.320007</ele>
<time>2024-01-10T16:36:58.954Z</time>
</trkpt>
<trkpt lat="31.2205900" lon="35.3537400">
<ele>-262.570007</ele>
<time>2024-01-10T16:36:58.954Z</time>
</trkpt>
<trkpt lat="31.2204900" lon="35.3540300">
<ele>-267.489990</ele>
<time>2024-01-10T16:36:58.954Z</time>
</trkpt>
<trkpt lat="31.2203600" lon="35.3541500">
<ele>-270.540009</ele>
<time>2024-01-10T16:36:58.954Z</time>
</trkpt>
<trkpt lat="31.2198100" lon="35.3546000">
<ele>-279.270020</ele>
<time>2024-01-10T16:36:58.954Z</time>
</trkpt>
<trkpt lat="31.2196000" lon="35.3546300">
<ele>-280.660004</ele>
<time>2024-01-10T16:36:58.954Z</time>
</trkpt>
<trkpt lat="31.2195000" lon="35.3547100">
<ele>-283.869995</ele>
<time>2024-01-10T16:36:58.954Z</time>
</trkpt>
<trkpt lat="31.2193800" lon="35.3549400">
<ele>-288.640015</ele>
<time>2024-01-10T16:36:58.954Z</time>
</trkpt>
<trkpt lat="31.2191500" lon="35.3551100">
<ele>-291.500000</ele>
<time>2024-01-10T16:36:58.955Z</time>
</trkpt>
<trkpt lat="31.2190000" lon="35.3552900">
<ele>-291.589996</ele>
<time>2024-01-10T16:36:58.955Z</time>
</trkpt>
<trkpt lat="31.2188500" lon="35.3555300">
<ele>-293.779999</ele>
<time>2024-01-10T16:36:58.955Z</time>
</trkpt>
<trkpt lat="31.2185300" lon="35.3558500">
<ele>-299.130005</ele>
<time>2024-01-10T16:36:58.955Z</time>
</trkpt>
<trkpt lat="31.2183700" lon="35.3559600">
<ele>-295.359985</ele>
<time>2024-01-10T16:36:58.955Z</time>
</trkpt>
<trkpt lat="31.2181300" lon="35.3562700">
<ele>-303.489990</ele>
<time>2024-01-10T16:36:58.955Z</time>
</trkpt>
<trkpt lat="31.2180500" lon="35.3563200">
<ele>-303.720001</ele>
<time>2024-01-10T16:36:58.955Z</time>
</trkpt>
<trkpt lat="31.2178000" lon="35.3563600">
<ele>-301.959991</ele>
<time>2024-01-10T16:36:58.955Z</time>
</trkpt>
<trkpt lat="31.2176900" lon="35.3564200">
<ele>-301.290009</ele>
<time>2024-01-10T16:36:58.955Z</time>
</trkpt>
<trkpt lat="31.2176500" lon="35.3564800">
<ele>-301.920013</ele>
<time>2024-01-10T16:36:58.955Z</time>
</trkpt>
<trkpt lat="31.2176600" lon="35.3565400">
<ele>-303.169983</ele>
<time>2024-01-10T16:36:58.955Z</time>
</trkpt>
<trkpt lat="31.2178600" lon="35.3566600">
<ele>-307.950012</ele>
<time>2024-01-10T16:36:58.955Z</time>
</trkpt>
<trkpt lat="31.2178700" lon="35.3567100">
<ele>-311.440002</ele>
<time>2024-01-10T16:36:58.955Z</time>
</trkpt>
<trkpt lat="31.2178400" lon="35.3567500">
<ele>-313.469971</ele>
<time>2024-01-10T16:36:58.955Z</time>
</trkpt>
<trkpt lat="31.2177300" lon="35.3567300">
<ele>-309.889984</ele>
<time>2024-01-10T16:36:58.955Z</time>
</trkpt>
<trkpt lat="31.2175200" lon="35.3567500">
<ele>-308.820007</ele>
<time>2024-01-10T16:36:58.955Z</time>
</trkpt>
<trkpt lat="31.2172500" lon="35.3567200">
<ele>-308.029999</ele>
<time>2024-01-10T16:36:58.955Z</time>
</trkpt>
<trkpt lat="31.2171200" lon="35.3567700">
<ele>-312.209991</ele>
<time>2024-01-10T16:36:58.955Z</time>
</trkpt>
<trkpt lat="31.2169900" lon="35.3568700">
<ele>-317.069977</ele>
<time>2024-01-10T16:36:58.955Z</time>
</trkpt>
<trkpt lat="31.2168700" lon="35.3569900">
<ele>-323.319977</ele>
<time>2024-01-10T16:36:58.955Z</time>
</trkpt>
<trkpt lat="31.2166600" lon="35.3574600">
<ele>-348.750000</ele>
<time>2024-01-10T16:36:58.955Z</time>
</trkpt>
<trkpt lat="31.2166900" lon="35.3575300">
<ele>-351.640015</ele>
<time>2024-01-10T16:36:58.955Z</time>
</trkpt>
<trkpt lat="31.2168200" lon="35.3575500">
<ele>-352.649994</ele>
<time>2024-01-10T16:36:58.955Z</time>
</trkpt>
<trkpt lat="31.2168900" lon="35.3576000">
<ele>-354.180023</ele>
<time>2024-01-10T16:36:58.955Z</time>
</trkpt>
<trkpt lat="31.2168900" lon="35.3576700">
<ele>-355.849976</ele>
<time>2024-01-10T16:36:58.955Z</time>
</trkpt>
<trkpt lat="31.2168200" lon="35.3577200">
<ele>-356.390015</ele>
<time>2024-01-10T16:36:58.955Z</time>
</trkpt>
<trkpt lat="31.2165000" lon="35.3578300">
<ele>-354.019989</ele>
<time>2024-01-10T16:36:58.955Z</time>
</trkpt>
<trkpt lat="31.2164600" lon="35.3578900">
<ele>-355.070007</ele>
<time>2024-01-10T16:36:58.956Z</time>
</trkpt>
<trkpt lat="31.2164500" lon="35.3581700">
<ele>-362.929993</ele>
<time>2024-01-10T16:36:58.956Z</time>
</trkpt>
<trkpt lat="31.2163900" lon="35.3582700">
<ele>-363.660004</ele>
<time>2024-01-10T16:36:58.956Z</time>
</trkpt>
<trkpt lat="31.2162600" lon="35.3584600">
<ele>-367.720001</ele>
<time>2024-01-10T16:36:58.956Z</time>
</trkpt>
<trkpt lat="31.2160000" lon="35.3585800">
<ele>-372.549988</ele>
<time>2024-01-10T16:36:58.956Z</time>
</trkpt>
<trkpt lat="31.2158500" lon="35.3587400">
<ele>-379.109985</ele>
<time>2024-01-10T16:36:58.956Z</time>
</trkpt>
<trkpt lat="31.2156900" lon="35.3589900">
<ele>-380.750000</ele>
<time>2024-01-10T16:36:58.956Z</time>
</trkpt>
<trkpt lat="31.2156200" lon="35.3591700">
<ele>-379.619995</ele>
<time>2024-01-10T16:36:58.956Z</time>
</trkpt>
<trkpt lat="31.2156200" lon="35.3594400">
<ele>-379.319977</ele>
<time>2024-01-10T16:36:58.956Z</time>
</trkpt>
<trkpt lat="31.2156900" lon="35.3595800">
<ele>-381.860016</ele>
<time>2024-01-10T16:36:58.956Z</time>
</trkpt>
<trkpt lat="31.2160400" lon="35.3601100">
<ele>-389.849976</ele>
<time>2024-01-10T16:36:58.956Z</time>
</trkpt>
<trkpt lat="31.2161100" lon="35.3602500">
<ele>-389.199982</ele>
<time>2024-01-10T16:36:58.956Z</time>
</trkpt>
<trkpt lat="31.2163500" lon="35.3600200">
<ele>-390.980011</ele>
<time>2024-01-10T16:36:58.956Z</time>
</trkpt>
<trkpt lat="31.2166200" lon="35.3598200">
<ele>-391.720001</ele>
<time>2024-01-10T16:36:58.956Z</time>
</trkpt>
<trkpt lat="31.2167300" lon="35.3597800">
<ele>-392.010010</ele>
<time>2024-01-10T16:36:58.956Z</time>
</trkpt>
<trkpt lat="31.2168100" lon="35.3598200">
<ele>-392.390015</ele>
<time>2024-01-10T16:36:58.956Z</time>
</trkpt>
<trkpt lat="31.2161800" lon="35.3603800">
<ele>-391.240021</ele>
<time>2024-01-10T16:36:58.956Z</time>
</trkpt>
<trkpt lat="31.2158100" lon="35.3606900">
<ele>-389.669983</ele>
<time>2024-01-10T16:36:58.956Z</time>
</trkpt>
<trkpt lat="31.2154000" lon="35.3609700">
<ele>-392.940002</ele>
<time>2024-01-10T16:36:58.956Z</time>
</trkpt>
<trkpt lat="31.2145900" lon="35.3614300">
<ele>-392.660004</ele>
<time>2024-01-10T16:36:58.956Z</time>
</trkpt>
<trkpt lat="31.2142700" lon="35.3615800">
<ele>-397.790009</ele>
<time>2024-01-10T16:36:58.956Z</time>
</trkpt>
<trkpt lat="31.2137900" lon="35.3617500">
<ele>-399.670013</ele>
<time>2024-01-10T16:36:58.956Z</time>
</trkpt>
<trkpt lat="31.2133800" lon="35.3618900">
<ele>-396.699982</ele>
<time>2024-01-10T16:36:58.956Z</time>
</trkpt>
<trkpt lat="31.2129900" lon="35.3619800">
<ele>-397.429993</ele>
<time>2024-01-10T16:36:58.956Z</time>
</trkpt>
<trkpt lat="31.2124300" lon="35.3620800">
<ele>-390.520020</ele>
<time>2024-01-10T16:36:58.956Z</time>
</trkpt>
<trkpt lat="31.2120400" lon="35.3621200">
<ele>-395.870026</ele>
<time>2024-01-10T16:36:58.956Z</time>
</trkpt>
<trkpt lat="31.2114700" lon="35.3621500">
<ele>-404.540009</ele>
<time>2024-01-10T16:36:58.956Z</time>
</trkpt>
<trkpt lat="31.2111500" lon="35.3621600">
<ele>-401.500000</ele>
<time>2024-01-10T16:36:58.957Z</time>
</trkpt>
<trkpt lat="31.2108000" lon="35.3621300">
<ele>-398.640015</ele>
<time>2024-01-10T16:36:58.957Z</time>
</trkpt>
<trkpt lat="31.2102700" lon="35.3620400">
<ele>-398.390015</ele>
<time>2024-01-10T16:36:58.957Z</time>
</trkpt>
<trkpt lat="31.2098000" lon="35.3619500">
<ele>-398.659973</ele>
<time>2024-01-10T16:36:58.957Z</time>
</trkpt>
<trkpt lat="31.2093300" lon="35.3618200">
<ele>-391.230011</ele>
<time>2024-01-10T16:36:58.957Z</time>
</trkpt>
<trkpt lat="31.2089100" lon="35.3616900">
<ele>-392.960022</ele>
<time>2024-01-10T16:36:58.957Z</time>
</trkpt>
<trkpt lat="31.2078400" lon="35.3613900">
<ele>-389.119995</ele>
<time>2024-01-10T16:36:58.957Z</time>
</trkpt>
<trkpt lat="31.2076500" lon="35.3613300">
<ele>-390.890015</ele>
<time>2024-01-10T16:36:58.957Z</time>
</trkpt>
<trkpt lat="31.2065100" lon="35.3609600">
<ele>-389.750000</ele>
<time>2024-01-10T16:36:58.957Z</time>
</trkpt>
<trkpt lat="31.2055200" lon="35.3606100">
<ele>-386.260010</ele>
<time>2024-01-10T16:36:58.957Z</time>
</trkpt>
<trkpt lat="31.2054700" lon="35.3606000">
<ele>-386.230011</ele>
<time>2024-01-10T16:36:58.957Z</time>
</trkpt>
<trkpt lat="31.2054200" lon="35.3605900">
<ele>-386.299988</ele>
<time>2024-01-10T16:36:58.957Z</time>
</trkpt>
<trkpt lat="31.2053700" lon="35.3605900">
<ele>-386.500031</ele>
<time>2024-01-10T16:36:58.957Z</time>
</trkpt>
<trkpt lat="31.2053300" lon="35.3606000">
<ele>-386.670013</ele>
<time>2024-01-10T16:36:58.957Z</time>
</trkpt>
<trkpt lat="31.2053200" lon="35.3606200">
<ele>-386.710022</ele>
<time>2024-01-10T16:36:58.957Z</time>
</trkpt>
<trkpt lat="31.2052900" lon="35.3606400">
<ele>-386.700012</ele>
<time>2024-01-10T16:36:58.957Z</time>
</trkpt>
<trkpt lat="31.2052600" lon="35.3606500">
<ele>-386.750000</ele>
<time>2024-01-10T16:36:58.957Z</time>
</trkpt>
<trkpt lat="31.2052300" lon="35.3606500">
<ele>-386.889984</ele>
<time>2024-01-10T16:36:58.957Z</time>
</trkpt>
<trkpt lat="31.2052100" lon="35.3606500">
<ele>-386.989990</ele>
<time>2024-01-10T16:36:58.957Z</time>
</trkpt>
<trkpt lat="31.2051900" lon="35.3606500">
<ele>-387.079987</ele>
<time>2024-01-10T16:36:58.957Z</time>
</trkpt>
<trkpt lat="31.2051500" lon="35.3606800">
<ele>-387.220001</ele>
<time>2024-01-10T16:36:58.957Z</time>
</trkpt>
<trkpt lat="31.2051200" lon="35.3607300">
<ele>-387.300018</ele>
<time>2024-01-10T16:36:58.957Z</time>
</trkpt>
<trkpt lat="31.2050900" lon="35.3608300">
<ele>-387.359985</ele>
<time>2024-01-10T16:36:58.957Z</time>
</trkpt>
<trkpt lat="31.2050500" lon="35.3609500">
<ele>-388.139984</ele>
<time>2024-01-10T16:36:58.957Z</time>
</trkpt>
<trkpt lat="31.2050200" lon="35.3610700">
<ele>-388.769989</ele>
<time>2024-01-10T16:36:58.957Z</time>
</trkpt>
<trkpt lat="31.2049700" lon="35.3612000">
<ele>-389.849976</ele>
<time>2024-01-10T16:36:58.957Z</time>
</trkpt>
<trkpt lat="31.2048900" lon="35.3613600">
<ele>-391.290009</ele>
<time>2024-01-10T16:36:58.957Z</time>
</trkpt>
<trkpt lat="31.2048100" lon="35.3614800">
<ele>-391.639984</ele>
<time>2024-01-10T16:36:58.958Z</time>
</trkpt>
<trkpt lat="31.2047200" lon="35.3615900">
<ele>-391.720001</ele>
<time>2024-01-10T16:36:58.958Z</time>
</trkpt>
<trkpt lat="31.2046100" lon="35.3616900">
<ele>-392.740021</ele>
<time>2024-01-10T16:36:58.958Z</time>
</trkpt>
<trkpt lat="31.2045900" lon="35.3617000">
<ele>-392.960022</ele>
<time>2024-01-10T16:36:58.958Z</time>
</trkpt>
<trkpt lat="31.2045000" lon="35.3617500">
<ele>-394.000000</ele>
<time>2024-01-10T16:36:58.958Z</time>
</trkpt>
<trkpt lat="31.2043900" lon="35.3618100">
<ele>-394.580017</ele>
<time>2024-01-10T16:36:58.958Z</time>
</trkpt>
<trkpt lat="31.2043000" lon="35.3618400">
<ele>-394.389984</ele>
<time>2024-01-10T16:36:58.958Z</time>
</trkpt>
<trkpt lat="31.2042000" lon="35.3618700">
<ele>-394.339996</ele>
<time>2024-01-10T16:36:58.958Z</time>
</trkpt>
<trkpt lat="31.2040700" lon="35.3618700">
<ele>-392.660004</ele>
<time>2024-01-10T16:36:58.958Z</time>
</trkpt>
<trkpt lat="31.2038400" lon="35.3618500">
<ele>-388.760010</ele>
<time>2024-01-10T16:36:58.958Z</time>
</trkpt>
<trkpt lat="31.2036700" lon="35.3618500">
<ele>-385.699982</ele>
<time>2024-01-10T16:36:58.958Z</time>
</trkpt>
<trkpt lat="31.2035100" lon="35.3618700">
<ele>-383.930023</ele>
<time>2024-01-10T16:36:58.958Z</time>
</trkpt>
<trkpt lat="31.2033700" lon="35.3619100">
<ele>-383.010010</ele>
<time>2024-01-10T16:36:58.958Z</time>
</trkpt>
<trkpt lat="31.2032300" lon="35.3619800">
<ele>-382.349976</ele>
<time>2024-01-10T16:36:58.958Z</time>
</trkpt>
<trkpt lat="31.2031900" lon="35.3620000">
<ele>-382.170013</ele>
<time>2024-01-10T16:36:58.958Z</time>
</trkpt>
<trkpt lat="31.2031600" lon="35.3620300">
<ele>-382.139984</ele>
<time>2024-01-10T16:36:58.958Z</time>
</trkpt>
<trkpt lat="31.2030500" lon="35.3621000">
<ele>-382.099976</ele>
<time>2024-01-10T16:36:58.958Z</time>
</trkpt>
<trkpt lat="31.2029700" lon="35.3621700">
<ele>-382.510010</ele>
<time>2024-01-10T16:36:58.958Z</time>
</trkpt>
<trkpt lat="31.2024900" lon="35.3626000">
<ele>-389.660004</ele>
<time>2024-01-10T16:36:58.958Z</time>
</trkpt>
<trkpt lat="31.2024500" lon="35.3626400">
<ele>-391.000000</ele>
<time>2024-01-10T16:36:58.958Z</time>
</trkpt>
<trkpt lat="31.2023400" lon="35.3627400">
<ele>-393.579987</ele>
<time>2024-01-10T16:36:58.958Z</time>
</trkpt>
<trkpt lat="31.2021200" lon="35.3629500">
<ele>-392.750031</ele>
<time>2024-01-10T16:36:58.958Z</time>
</trkpt>
<trkpt lat="31.2020500" lon="35.3630200">
<ele>-392.050018</ele>
<time>2024-01-10T16:36:58.958Z</time>
</trkpt>
<trkpt lat="31.2020000" lon="35.3630900">
<ele>-391.059998</ele>
<time>2024-01-10T16:36:58.958Z</time>
</trkpt>
<trkpt lat="31.2018500" lon="35.3632900">
<ele>-389.679993</ele>
<time>2024-01-10T16:36:58.958Z</time>
</trkpt>
<trkpt lat="31.2014700" lon="35.3641900">
<ele>-392.799988</ele>
<time>2024-01-10T16:36:58.958Z</time>
</trkpt>
<trkpt lat="31.2013900" lon="35.3643300">
<ele>-393.220032</ele>
<time>2024-01-10T16:36:58.958Z</time>
</trkpt>
<trkpt lat="31.2012900" lon="35.3644700">
<ele>-392.879974</ele>
<time>2024-01-10T16:36:58.959Z</time>
</trkpt>
<trkpt lat="31.2012300" lon="35.3645300">
<ele>-392.879974</ele>
<time>2024-01-10T16:36:58.959Z</time>
</trkpt>
<trkpt lat="31.2011500" lon="35.3646000">
<ele>-392.579987</ele>
<time>2024-01-10T16:36:58.959Z</time>
</trkpt>
<trkpt lat="31.2010600" lon="35.3646600">
<ele>-391.939972</ele>
<time>2024-01-10T16:36:58.959Z</time>
</trkpt>
<trkpt lat="31.2009900" lon="35.3647000">
<ele>-391.350006</ele>
<time>2024-01-10T16:36:58.959Z</time>
</trkpt>
<trkpt lat="31.2009000" lon="35.3647400">
<ele>-390.739990</ele>
<time>2024-01-10T16:36:58.959Z</time>
</trkpt>
<trkpt lat="31.2007900" lon="35.3647700">
<ele>-390.290009</ele>
<time>2024-01-10T16:36:58.959Z</time>
</trkpt>
<trkpt lat="31.2007000" lon="35.3647800">
<ele>-390.070007</ele>
<time>2024-01-10T16:36:58.959Z</time>
</trkpt>
<trkpt lat="31.2006200" lon="35.3647800">
<ele>-390.010010</ele>
<time>2024-01-10T16:36:58.959Z</time>
</trkpt>
<trkpt lat="31.2005300" lon="35.3647800">
<ele>-389.700012</ele>
<time>2024-01-10T16:36:58.959Z</time>
</trkpt>
<trkpt lat="31.2004500" lon="35.3647700">
<ele>-389.069977</ele>
<time>2024-01-10T16:36:58.959Z</time>
</trkpt>
<trkpt lat="31.2003700" lon="35.3647500">
<ele>-388.559998</ele>
<time>2024-01-10T16:36:58.959Z</time>
</trkpt>
<trkpt lat="31.2002700" lon="35.3647200">
<ele>-387.879974</ele>
<time>2024-01-10T16:36:58.959Z</time>
</trkpt>
<trkpt lat="31.2001800" lon="35.3646800">
<ele>-386.800018</ele>
<time>2024-01-10T16:36:58.959Z</time>
</trkpt>
<trkpt lat="31.2001000" lon="35.3646200">
<ele>-386.379974</ele>
<time>2024-01-10T16:36:58.959Z</time>
</trkpt>
<trkpt lat="31.2000300" lon="35.3645600">
<ele>-386.329987</ele>
<time>2024-01-10T16:36:58.959Z</time>
</trkpt>
<trkpt lat="31.1998000" lon="35.3642500">
<ele>-386.979980</ele>
<time>2024-01-10T16:36:58.959Z</time>
</trkpt>
<trkpt lat="31.1997500" lon="35.3641700">
<ele>-387.440002</ele>
<time>2024-01-10T16:36:58.959Z</time>
</trkpt>
<trkpt lat="31.1994900" lon="35.3638100">
<ele>-392.450012</ele>
<time>2024-01-10T16:36:58.959Z</time>
</trkpt>
<trkpt lat="31.1993500" lon="35.3636200">
<ele>-393.619995</ele>
<time>2024-01-10T16:36:58.959Z</time>
</trkpt>
<trkpt lat="31.1992600" lon="35.3635200">
<ele>-392.790009</ele>
<time>2024-01-10T16:36:58.959Z</time>
</trkpt>
<trkpt lat="31.1991600" lon="35.3634200">
<ele>-391.559998</ele>
<time>2024-01-10T16:36:58.959Z</time>
</trkpt>
<trkpt lat="31.1990400" lon="35.3633200">
<ele>-390.109985</ele>
<time>2024-01-10T16:36:58.959Z</time>
</trkpt>
<trkpt lat="31.1989100" lon="35.3632200">
<ele>-389.179993</ele>
<time>2024-01-10T16:36:58.959Z</time>
</trkpt>
<trkpt lat="31.1986000" lon="35.3630400">
<ele>-389.010010</ele>
<time>2024-01-10T16:36:58.959Z</time>
</trkpt>
<trkpt lat="31.1981000" lon="35.3627600">
<ele>-390.160004</ele>
<time>2024-01-10T16:36:58.959Z</time>
</trkpt>
<trkpt lat="31.1973500" lon="35.3623500">
<ele>-385.670013</ele>
<time>2024-01-10T16:36:58.959Z</time>
</trkpt>
<trkpt lat="31.1971100" lon="35.3622100">
<ele>-385.489990</ele>
<time>2024-01-10T16:36:58.959Z</time>
</trkpt>
<trkpt lat="31.1969900" lon="35.3621400">
<ele>-384.799988</ele>
<time>2024-01-10T16:36:58.960Z</time>
</trkpt>
<trkpt lat="31.1969500" lon="35.3621200">
<ele>-384.740021</ele>
<time>2024-01-10T16:36:58.960Z</time>
</trkpt>
<trkpt lat="31.1969100" lon="35.3621000">
<ele>-384.950012</ele>
<time>2024-01-10T16:36:58.960Z</time>
</trkpt>
<trkpt lat="31.1968700" lon="35.3621100">
<ele>-385.810028</ele>
<time>2024-01-10T16:36:58.960Z</time>
</trkpt>
<trkpt lat="31.1968300" lon="35.3621300">
<ele>-386.790009</ele>
<time>2024-01-10T16:36:58.960Z</time>
</trkpt>
<trkpt lat="31.1967900" lon="35.3621400">
<ele>-387.549988</ele>
<time>2024-01-10T16:36:58.960Z</time>
</trkpt>
<trkpt lat="31.1967500" lon="35.3621300">
<ele>-388.040009</ele>
<time>2024-01-10T16:36:58.960Z</time>
</trkpt>
<trkpt lat="31.1967100" lon="35.3621100">
<ele>-388.470032</ele>
<time>2024-01-10T16:36:58.960Z</time>
</trkpt>
<trkpt lat="31.1966800" lon="35.3620700">
<ele>-388.649994</ele>
<time>2024-01-10T16:36:58.960Z</time>
</trkpt>
<trkpt lat="31.1966600" lon="35.3620300">
<ele>-388.640015</ele>
<time>2024-01-10T16:36:58.960Z</time>
</trkpt>
<trkpt lat="31.1966500" lon="35.3620100">
<ele>-388.529999</ele>
<time>2024-01-10T16:36:58.960Z</time>
</trkpt>
<trkpt lat="31.1966200" lon="35.3619800">
<ele>-388.420013</ele>
<time>2024-01-10T16:36:58.960Z</time>
</trkpt>
<trkpt lat="31.1965700" lon="35.3619500">
<ele>-388.389984</ele>
<time>2024-01-10T16:36:58.960Z</time>
</trkpt>
<trkpt lat="31.1965000" lon="35.3619300">
<ele>-388.110016</ele>
<time>2024-01-10T16:36:58.960Z</time>
</trkpt>
<trkpt lat="31.1964500" lon="35.3619100">
<ele>-387.640015</ele>
<time>2024-01-10T16:36:58.960Z</time>
</trkpt>
<trkpt lat="31.1963700" lon="35.3618900">
<ele>-387.140015</ele>
<time>2024-01-10T16:36:58.960Z</time>
</trkpt>
<trkpt lat="31.1963300" lon="35.3618800">
<ele>-386.600006</ele>
<time>2024-01-10T16:36:58.960Z</time>
</trkpt>
<trkpt lat="31.1963000" lon="35.3618800">
<ele>-386.440002</ele>
<time>2024-01-10T16:36:58.960Z</time>
</trkpt>
<trkpt lat="31.1962100" lon="35.3618600">
<ele>-385.229980</ele>
<time>2024-01-10T16:36:58.960Z</time>
</trkpt>
<trkpt lat="31.1959800" lon="35.3618500">
<ele>-382.070007</ele>
<time>2024-01-10T16:36:58.960Z</time>
</trkpt>
<trkpt lat="31.1957500" lon="35.3618600">
<ele>-379.339996</ele>
<time>2024-01-10T16:36:58.960Z</time>
</trkpt>
<trkpt lat="31.1951800" lon="35.3619100">
<ele>-378.020020</ele>
<time>2024-01-10T16:36:58.960Z</time>
</trkpt>
<trkpt lat="31.1951400" lon="35.3619200">
<ele>-378.280029</ele>
<time>2024-01-10T16:36:58.960Z</time>
</trkpt>
<trkpt lat="31.1950900" lon="35.3619300">
<ele>-378.559998</ele>
<time>2024-01-10T16:36:58.960Z</time>
</trkpt>
<trkpt lat="31.1950600" lon="35.3619600">
<ele>-379.000000</ele>
<time>2024-01-10T16:36:58.960Z</time>
</trkpt>
<trkpt lat="31.1950400" lon="35.3619800">
<ele>-379.350006</ele>
<time>2024-01-10T16:36:58.960Z</time>
</trkpt>
<trkpt lat="31.1950100" lon="35.3619800">
<ele>-379.470001</ele>
<time>2024-01-10T16:36:58.960Z</time>
</trkpt>
<trkpt lat="31.1949900" lon="35.3619800">
<ele>-379.510010</ele>
<time>2024-01-10T16:36:58.961Z</time>
</trkpt>
<trkpt lat="31.1949600" lon="35.3619800">
<ele>-379.510010</ele>
<time>2024-01-10T16:36:58.961Z</time>
</trkpt>
<trkpt lat="31.1949300" lon="35.3619600">
<ele>-379.220001</ele>
<time>2024-01-10T16:36:58.961Z</time>
</trkpt>
<trkpt lat="31.1949100" lon="35.3619300">
<ele>-378.809998</ele>
<time>2024-01-10T16:36:58.961Z</time>
</trkpt>
<trkpt lat="31.1948800" lon="35.3619100">
<ele>-378.480011</ele>
<time>2024-01-10T16:36:58.961Z</time>
</trkpt>
<trkpt lat="31.1948100" lon="35.3618800">
<ele>-377.739990</ele>
<time>2024-01-10T16:36:58.961Z</time>
</trkpt>
<trkpt lat="31.1946600" lon="35.3618900">
<ele>-377.540009</ele>
<time>2024-01-10T16:36:58.961Z</time>
</trkpt>
<trkpt lat="31.1944100" lon="35.3619200">
<ele>-378.470001</ele>
<time>2024-01-10T16:36:58.961Z</time>
</trkpt>
<trkpt lat="31.1939900" lon="35.3619400">
<ele>-381.539978</ele>
<time>2024-01-10T16:36:58.961Z</time>
</trkpt>
<trkpt lat="31.1934700" lon="35.3619800">
<ele>-381.190002</ele>
<time>2024-01-10T16:36:58.961Z</time>
</trkpt>
<trkpt lat="31.1932500" lon="35.3620000">
<ele>-381.199982</ele>
<time>2024-01-10T16:36:58.961Z</time>
</trkpt>
<trkpt lat="31.1931300" lon="35.3620100">
<ele>-381.239990</ele>
<time>2024-01-10T16:36:58.961Z</time>
</trkpt>
<trkpt lat="31.1929900" lon="35.3620400">
<ele>-381.970001</ele>
<time>2024-01-10T16:36:58.961Z</time>
</trkpt>
<trkpt lat="31.1928800" lon="35.3620700">
<ele>-383.059998</ele>
<time>2024-01-10T16:36:58.961Z</time>
</trkpt>
<trkpt lat="31.1927900" lon="35.3621100">
<ele>-383.889984</ele>
<time>2024-01-10T16:36:58.961Z</time>
</trkpt>
<trkpt lat="31.1926700" lon="35.3621500">
<ele>-384.290009</ele>
<time>2024-01-10T16:36:58.961Z</time>
</trkpt>
<trkpt lat="31.1925300" lon="35.3622100">
<ele>-384.850006</ele>
<time>2024-01-10T16:36:58.961Z</time>
</trkpt>
<trkpt lat="31.1921000" lon="35.3624200">
<ele>-384.839996</ele>
<time>2024-01-10T16:36:58.961Z</time>
</trkpt>
<trkpt lat="31.1919000" lon="35.3624800">
<ele>-385.179993</ele>
<time>2024-01-10T16:36:58.961Z</time>
</trkpt>
<trkpt lat="31.1917200" lon="35.3625700">
<ele>-385.949982</ele>
<time>2024-01-10T16:36:58.961Z</time>
</trkpt>
<trkpt lat="31.1917300" lon="35.3625500">
<ele>-385.900024</ele>
<time>2024-01-10T16:36:58.961Z</time>
</trkpt>
<trkpt lat="31.1917300" lon="35.3625300">
<ele>-385.850006</ele>
<time>2024-01-10T16:36:58.961Z</time>
</trkpt>
<trkpt lat="31.1917300" lon="35.3625100">
<ele>-385.800018</ele>
<time>2024-01-10T16:36:58.961Z</time>
</trkpt>
<trkpt lat="31.1917300" lon="35.3624900">
<ele>-385.829987</ele>
<time>2024-01-10T16:36:58.961Z</time>
</trkpt>
<trkpt lat="31.1917300" lon="35.3624700">
<ele>-385.940002</ele>
<time>2024-01-10T16:36:58.961Z</time>
</trkpt>
<trkpt lat="31.1917200" lon="35.3624500">
<ele>-386.100006</ele>
<time>2024-01-10T16:36:58.961Z</time>
</trkpt>
<trkpt lat="31.1917200" lon="35.3624400">
<ele>-386.159973</ele>
<time>2024-01-10T16:36:58.961Z</time>
</trkpt>
<trkpt lat="31.1917100" lon="35.3624200">
<ele>-386.329987</ele>
<time>2024-01-10T16:36:58.962Z</time>
</trkpt>
<trkpt lat="31.1916900" lon="35.3624000">
<ele>-386.580017</ele>
<time>2024-01-10T16:36:58.962Z</time>
</trkpt>
<trkpt lat="31.1916700" lon="35.3623800">
<ele>-386.840027</ele>
<time>2024-01-10T16:36:58.962Z</time>
</trkpt>
<trkpt lat="31.1916500" lon="35.3623700">
<ele>-387.000000</ele>
<time>2024-01-10T16:36:58.962Z</time>
</trkpt>
<trkpt lat="31.1916300" lon="35.3623600">
<ele>-387.140015</ele>
<time>2024-01-10T16:36:58.962Z</time>
</trkpt>
<trkpt lat="31.1916000" lon="35.3623600">
<ele>-387.250000</ele>
<time>2024-01-10T16:36:58.962Z</time>
</trkpt>
<trkpt lat="31.1915800" lon="35.3623600">
<ele>-387.319977</ele>
<time>2024-01-10T16:36:58.962Z</time>
</trkpt>
<trkpt lat="31.1915600" lon="35.3623700">
<ele>-387.319977</ele>
<time>2024-01-10T16:36:58.962Z</time>
</trkpt>
<trkpt lat="31.1915400" lon="35.3623900">
<ele>-387.250000</ele>
<time>2024-01-10T16:36:58.962Z</time>
</trkpt>
<trkpt lat="31.1915200" lon="35.3624000">
<ele>-387.250000</ele>
<time>2024-01-10T16:36:58.962Z</time>
</trkpt>
<trkpt lat="31.1915000" lon="35.3624200">
<ele>-387.180023</ele>
<time>2024-01-10T16:36:58.962Z</time>
</trkpt>
<trkpt lat="31.1914300" lon="35.3624500">
<ele>-387.209991</ele>
<time>2024-01-10T16:36:58.962Z</time>
</trkpt>
<trkpt lat="31.1913100" lon="35.3624500">
<ele>-387.160004</ele>
<time>2024-01-10T16:36:58.962Z</time>
</trkpt>
<trkpt lat="31.1911800" lon="35.3624500">
<ele>-386.820007</ele>
<time>2024-01-10T16:36:58.962Z</time>
</trkpt>
<trkpt lat="31.1884300" lon="35.3623600">
<ele>-366.509979</ele>
<time>2024-01-10T16:36:58.962Z</time>
</trkpt>
<trkpt lat="31.1881600" lon="35.3623600">
<ele>-364.740021</ele>
<time>2024-01-10T16:36:58.962Z</time>
</trkpt>
<trkpt lat="31.1881300" lon="35.3623600">
<ele>-364.519989</ele>
<time>2024-01-10T16:36:58.962Z</time>
</trkpt>
<trkpt lat="31.1881100" lon="35.3623600">
<ele>-364.380005</ele>
<time>2024-01-10T16:36:58.962Z</time>
</trkpt>
<trkpt lat="31.1881000" lon="35.3623600">
<ele>-364.309998</ele>
<time>2024-01-10T16:36:58.962Z</time>
</trkpt>
<trkpt lat="31.1880800" lon="35.3623500">
<ele>-364.020020</ele>
<time>2024-01-10T16:36:58.962Z</time>
</trkpt>
<trkpt lat="31.1880600" lon="35.3623500">
<ele>-363.869995</ele>
<time>2024-01-10T16:36:58.962Z</time>
</trkpt>
<trkpt lat="31.1880500" lon="35.3623400">
<ele>-363.649994</ele>
<time>2024-01-10T16:36:58.962Z</time>
</trkpt>
<trkpt lat="31.1880300" lon="35.3623300">
<ele>-363.349976</ele>
<time>2024-01-10T16:36:58.962Z</time>
</trkpt>
<trkpt lat="31.1880100" lon="35.3623100">
<ele>-362.880005</ele>
<time>2024-01-10T16:36:58.962Z</time>
</trkpt>
<trkpt lat="31.1879900" lon="35.3622900">
<ele>-362.380005</ele>
<time>2024-01-10T16:36:58.962Z</time>
</trkpt>
<trkpt lat="31.1879700" lon="35.3622700">
<ele>-361.869995</ele>
<time>2024-01-10T16:36:58.962Z</time>
</trkpt>
<trkpt lat="31.1879600" lon="35.3622600">
<ele>-361.610016</ele>
<time>2024-01-10T16:36:58.962Z</time>
</trkpt>
<trkpt lat="31.1879400" lon="35.3622500">
<ele>-361.240021</ele>
<time>2024-01-10T16:36:58.963Z</time>
</trkpt>
<trkpt lat="31.1879200" lon="35.3622400">
<ele>-360.850006</ele>
<time>2024-01-10T16:36:58.963Z</time>
</trkpt>
<trkpt lat="31.1879000" lon="35.3622400">
<ele>-360.649994</ele>
<time>2024-01-10T16:36:58.963Z</time>
</trkpt>
<trkpt lat="31.1878800" lon="35.3622400">
<ele>-360.440002</ele>
<time>2024-01-10T16:36:58.963Z</time>
</trkpt>
<trkpt lat="31.1878600" lon="35.3622500">
<ele>-360.430023</ele>
<time>2024-01-10T16:36:58.963Z</time>
</trkpt>
<trkpt lat="31.1878400" lon="35.3622600">
<ele>-360.430023</ele>
<time>2024-01-10T16:36:58.963Z</time>
</trkpt>
<trkpt lat="31.1878200" lon="35.3622700">
<ele>-360.440002</ele>
<time>2024-01-10T16:36:58.963Z</time>
</trkpt>
<trkpt lat="31.1878000" lon="35.3622900">
<ele>-360.660004</ele>
<time>2024-01-10T16:36:58.963Z</time>
</trkpt>
<trkpt lat="31.1877900" lon="35.3623100">
<ele>-361.000000</ele>
<time>2024-01-10T16:36:58.963Z</time>
</trkpt>
<trkpt lat="31.1877800" lon="35.3623300">
<ele>-361.350006</ele>
<time>2024-01-10T16:36:58.963Z</time>
</trkpt>
<trkpt lat="31.1877700" lon="35.3623500">
<ele>-361.720001</ele>
<time>2024-01-10T16:36:58.963Z</time>
</trkpt>
<trkpt lat="31.1877700" lon="35.3623700">
<ele>-362.149994</ele>
<time>2024-01-10T16:36:58.963Z</time>
</trkpt>
<trkpt lat="31.1873500" lon="35.3623000">
<ele>-357.200012</ele>
<time>2024-01-10T16:36:58.963Z</time>
</trkpt>
<trkpt lat="31.1858700" lon="35.3622500">
<ele>-359.250000</ele>
<time>2024-01-10T16:36:58.963Z</time>
</trkpt>
<trkpt lat="31.1858300" lon="35.3622500">
<ele>-359.429993</ele>
<time>2024-01-10T16:36:58.963Z</time>
</trkpt>
<trkpt lat="31.1856400" lon="35.3622500">
<ele>-361.279999</ele>
<time>2024-01-10T16:36:58.963Z</time>
</trkpt>
<trkpt lat="31.1854400" lon="35.3622600">
<ele>-360.529999</ele>
<time>2024-01-10T16:36:58.963Z</time>
</trkpt>
<trkpt lat="31.1852500" lon="35.3622700">
<ele>-358.529999</ele>
<time>2024-01-10T16:36:58.963Z</time>
</trkpt>
<trkpt lat="31.1850600" lon="35.3622700">
<ele>-359.779999</ele>
<time>2024-01-10T16:36:58.963Z</time>
</trkpt>
<trkpt lat="31.1848700" lon="35.3622900">
<ele>-361.049988</ele>
<time>2024-01-10T16:36:58.963Z</time>
</trkpt>
<trkpt lat="31.1846800" lon="35.3623000">
<ele>-361.899994</ele>
<time>2024-01-10T16:36:58.963Z</time>
</trkpt>
<trkpt lat="31.1845000" lon="35.3623200">
<ele>-361.370026</ele>
<time>2024-01-10T16:36:58.963Z</time>
</trkpt>
<trkpt lat="31.1843100" lon="35.3623500">
<ele>-360.750000</ele>
<time>2024-01-10T16:36:58.963Z</time>
</trkpt>
<trkpt lat="31.1841200" lon="35.3623800">
<ele>-360.489990</ele>
<time>2024-01-10T16:36:58.963Z</time>
</trkpt>
<trkpt lat="31.1839300" lon="35.3624200">
<ele>-361.809998</ele>
<time>2024-01-10T16:36:58.963Z</time>
</trkpt>
<trkpt lat="31.1837300" lon="35.3624600">
<ele>-362.600006</ele>
<time>2024-01-10T16:36:58.963Z</time>
</trkpt>
<trkpt lat="31.1835300" lon="35.3625100">
<ele>-362.899994</ele>
<time>2024-01-10T16:36:58.963Z</time>
</trkpt>
<trkpt lat="31.1833400" lon="35.3625700">
<ele>-363.529999</ele>
<time>2024-01-10T16:36:58.964Z</time>
</trkpt>
<trkpt lat="31.1831600" lon="35.3626200">
<ele>-361.470001</ele>
<time>2024-01-10T16:36:58.964Z</time>
</trkpt>
<trkpt lat="31.1829900" lon="35.3626800">
<ele>-360.259979</ele>
<time>2024-01-10T16:36:58.964Z</time>
</trkpt>
<trkpt lat="31.1828200" lon="35.3627400">
<ele>-359.759979</ele>
<time>2024-01-10T16:36:58.964Z</time>
</trkpt>
<trkpt lat="31.1826500" lon="35.3628000">
<ele>-358.200012</ele>
<time>2024-01-10T16:36:58.964Z</time>
</trkpt>
<trkpt lat="31.1824800" lon="35.3628600">
<ele>-356.029999</ele>
<time>2024-01-10T16:36:58.964Z</time>
</trkpt>
<trkpt lat="31.1823200" lon="35.3629300">
<ele>-355.939972</ele>
<time>2024-01-10T16:36:58.964Z</time>
</trkpt>
<trkpt lat="31.1821500" lon="35.3630000">
<ele>-354.929993</ele>
<time>2024-01-10T16:36:58.964Z</time>
</trkpt>
<trkpt lat="31.1819700" lon="35.3630900">
<ele>-354.329987</ele>
<time>2024-01-10T16:36:58.964Z</time>
</trkpt>
<trkpt lat="31.1817700" lon="35.3632000">
<ele>-354.739990</ele>
<time>2024-01-10T16:36:58.964Z</time>
</trkpt>
<trkpt lat="31.1815500" lon="35.3633200">
<ele>-355.000000</ele>
<time>2024-01-10T16:36:58.964Z</time>
</trkpt>
<trkpt lat="31.1813200" lon="35.3634500">
<ele>-353.459991</ele>
<time>2024-01-10T16:36:58.964Z</time>
</trkpt>
<trkpt lat="31.1810800" lon="35.3635900">
<ele>-350.660004</ele>
<time>2024-01-10T16:36:58.964Z</time>
</trkpt>
<trkpt lat="31.1808300" lon="35.3637400">
<ele>-351.410004</ele>
<time>2024-01-10T16:36:58.964Z</time>
</trkpt>
<trkpt lat="31.1805900" lon="35.3638800">
<ele>-353.809998</ele>
<time>2024-01-10T16:36:58.964Z</time>
</trkpt>
<trkpt lat="31.1803400" lon="35.3640300">
<ele>-353.069977</ele>
<time>2024-01-10T16:36:58.964Z</time>
</trkpt>
<trkpt lat="31.1801000" lon="35.3641700">
<ele>-351.720001</ele>
<time>2024-01-10T16:36:58.964Z</time>
</trkpt>
<trkpt lat="31.1798600" lon="35.3643100">
<ele>-349.250000</ele>
<time>2024-01-10T16:36:58.964Z</time>
</trkpt>
<trkpt lat="31.1797400" lon="35.3643700">
<ele>-348.579987</ele>
<time>2024-01-10T16:36:58.964Z</time>
</trkpt>
<trkpt lat="31.1796200" lon="35.3644400">
<ele>-349.330017</ele>
<time>2024-01-10T16:36:58.964Z</time>
</trkpt>
<trkpt lat="31.1795000" lon="35.3645000">
<ele>-350.240021</ele>
<time>2024-01-10T16:36:58.964Z</time>
</trkpt>
<trkpt lat="31.1793800" lon="35.3645600">
<ele>-350.869995</ele>
<time>2024-01-10T16:36:58.964Z</time>
</trkpt>
<trkpt lat="31.1792500" lon="35.3646200">
<ele>-351.080017</ele>
<time>2024-01-10T16:36:58.964Z</time>
</trkpt>
<trkpt lat="31.1791200" lon="35.3646700">
<ele>-351.140015</ele>
<time>2024-01-10T16:36:58.964Z</time>
</trkpt>
<trkpt lat="31.1789900" lon="35.3647200">
<ele>-351.630005</ele>
<time>2024-01-10T16:36:58.964Z</time>
</trkpt>
<trkpt lat="31.1788600" lon="35.3647600">
<ele>-352.299988</ele>
<time>2024-01-10T16:36:58.964Z</time>
</trkpt>
<trkpt lat="31.1787200" lon="35.3647900">
<ele>-352.779999</ele>
<time>2024-01-10T16:36:58.965Z</time>
</trkpt>
<trkpt lat="31.1785800" lon="35.3648100">
<ele>-354.050018</ele>
<time>2024-01-10T16:36:58.965Z</time>
</trkpt>
<trkpt lat="31.1783500" lon="35.3648300">
<ele>-360.130005</ele>
<time>2024-01-10T16:36:58.965Z</time>
</trkpt>
<trkpt lat="31.1772500" lon="35.3649500">
<ele>-361.779999</ele>
<time>2024-01-10T16:36:58.965Z</time>
</trkpt>
<trkpt lat="31.1771500" lon="35.3649600">
<ele>-360.100006</ele>
<time>2024-01-10T16:36:58.965Z</time>
</trkpt>
<trkpt lat="31.1765500" lon="35.3650200">
<ele>-356.079987</ele>
<time>2024-01-10T16:36:58.965Z</time>
</trkpt>
<trkpt lat="31.1762700" lon="35.3650400">
<ele>-354.229980</ele>
<time>2024-01-10T16:36:58.965Z</time>
</trkpt>
<trkpt lat="31.1760700" lon="35.3650700">
<ele>-351.899994</ele>
<time>2024-01-10T16:36:58.965Z</time>
</trkpt>
<trkpt lat="31.1759000" lon="35.3651100">
<ele>-352.810028</ele>
<time>2024-01-10T16:36:58.965Z</time>
</trkpt>
<trkpt lat="31.1757000" lon="35.3651500">
<ele>-353.839996</ele>
<time>2024-01-10T16:36:58.965Z</time>
</trkpt>
<trkpt lat="31.1754600" lon="35.3652100">
<ele>-355.279999</ele>
<time>2024-01-10T16:36:58.965Z</time>
</trkpt>
<trkpt lat="31.1753100" lon="35.3652500">
<ele>-356.660004</ele>
<time>2024-01-10T16:36:58.965Z</time>
</trkpt>
<trkpt lat="31.1750800" lon="35.3653800">
<ele>-362.740021</ele>
<time>2024-01-10T16:36:58.965Z</time>
</trkpt>
<trkpt lat="31.1750100" lon="35.3654200">
<ele>-364.830017</ele>
<time>2024-01-10T16:36:58.965Z</time>
</trkpt>
<trkpt lat="31.1748100" lon="35.3654900">
<ele>-366.420013</ele>
<time>2024-01-10T16:36:58.965Z</time>
</trkpt>
<trkpt lat="31.1747900" lon="35.3654700">
<ele>-366.059998</ele>
<time>2024-01-10T16:36:58.965Z</time>
</trkpt>
<trkpt lat="31.1747800" lon="35.3654600">
<ele>-365.869995</ele>
<time>2024-01-10T16:36:58.965Z</time>
</trkpt>
<trkpt lat="31.1747600" lon="35.3654500">
<ele>-365.690002</ele>
<time>2024-01-10T16:36:58.965Z</time>
</trkpt>
<trkpt lat="31.1747500" lon="35.3654400">
<ele>-365.489990</ele>
<time>2024-01-10T16:36:58.965Z</time>
</trkpt>
<trkpt lat="31.1747300" lon="35.3654300">
<ele>-365.290009</ele>
<time>2024-01-10T16:36:58.965Z</time>
</trkpt>
<trkpt lat="31.1747100" lon="35.3654300">
<ele>-365.160004</ele>
<time>2024-01-10T16:36:58.965Z</time>
</trkpt>
<trkpt lat="31.1746900" lon="35.3654300">
<ele>-364.940002</ele>
<time>2024-01-10T16:36:58.965Z</time>
</trkpt>
<trkpt lat="31.1746700" lon="35.3654400">
<ele>-364.940002</ele>
<time>2024-01-10T16:36:58.965Z</time>
</trkpt>
<trkpt lat="31.1746500" lon="35.3654500">
<ele>-364.940002</ele>
<time>2024-01-10T16:36:58.965Z</time>
</trkpt>
<trkpt lat="31.1746400" lon="35.3654600">
<ele>-365.050018</ele>
<time>2024-01-10T16:36:58.965Z</time>
</trkpt>
<trkpt lat="31.1746200" lon="35.3654700">
<ele>-365.050018</ele>
<time>2024-01-10T16:36:58.965Z</time>
</trkpt>
<trkpt lat="31.1746100" lon="35.3654900">
<ele>-365.369995</ele>
<time>2024-01-10T16:36:58.965Z</time>
</trkpt>
<trkpt lat="31.1746000" lon="35.3655100">
<ele>-365.699982</ele>
<time>2024-01-10T16:36:58.966Z</time>
</trkpt>
<trkpt lat="31.1745900" lon="35.3655300">
<ele>-366.019989</ele>
<time>2024-01-10T16:36:58.966Z</time>
</trkpt>
<trkpt lat="31.1745900" lon="35.3655500">
<ele>-366.450012</ele>
<time>2024-01-10T16:36:58.966Z</time>
</trkpt>
<trkpt lat="31.1745900" lon="35.3655700">
<ele>-366.939972</ele>
<time>2024-01-10T16:36:58.966Z</time>
</trkpt>
<trkpt lat="31.1745900" lon="35.3656000">
<ele>-367.700012</ele>
<time>2024-01-10T16:36:58.966Z</time>
</trkpt>
<trkpt lat="31.1745900" lon="35.3656200">
<ele>-368.210022</ele>
<time>2024-01-10T16:36:58.966Z</time>
</trkpt>
<trkpt lat="31.1735300" lon="35.3661600">
<ele>-382.420013</ele>
<time>2024-01-10T16:36:58.966Z</time>
</trkpt>
<trkpt lat="31.1732900" lon="35.3662700">
<ele>-380.690002</ele>
<time>2024-01-10T16:36:58.966Z</time>
</trkpt>
<trkpt lat="31.1731300" lon="35.3663400">
<ele>-379.540009</ele>
<time>2024-01-10T16:36:58.966Z</time>
</trkpt>
<trkpt lat="31.1730200" lon="35.3664400">
<ele>-379.489990</ele>
<time>2024-01-10T16:36:58.966Z</time>
</trkpt>
<trkpt lat="31.1728700" lon="35.3665200">
<ele>-380.690002</ele>
<time>2024-01-10T16:36:58.966Z</time>
</trkpt>
<trkpt lat="31.1727600" lon="35.3665700">
<ele>-381.929993</ele>
<time>2024-01-10T16:36:58.966Z</time>
</trkpt>
<trkpt lat="31.1725900" lon="35.3666600">
<ele>-384.500000</ele>
<time>2024-01-10T16:36:58.966Z</time>
</trkpt>
<trkpt lat="31.1723400" lon="35.3667600">
<ele>-385.959991</ele>
<time>2024-01-10T16:36:58.966Z</time>
</trkpt>
<trkpt lat="31.1717900" lon="35.3668600">
<ele>-386.039978</ele>
<time>2024-01-10T16:36:58.966Z</time>
</trkpt>
<trkpt lat="31.1717900" lon="35.3668900">
<ele>-386.580017</ele>
<time>2024-01-10T16:36:58.966Z</time>
</trkpt>
<trkpt lat="31.1718000" lon="35.3669100">
<ele>-386.899994</ele>
<time>2024-01-10T16:36:58.966Z</time>
</trkpt>
<trkpt lat="31.1717900" lon="35.3669400">
<ele>-387.480011</ele>
<time>2024-01-10T16:36:58.966Z</time>
</trkpt>
<trkpt lat="31.1717900" lon="35.3669600">
<ele>-387.520020</ele>
<time>2024-01-10T16:36:58.966Z</time>
</trkpt>
<trkpt lat="31.1717800" lon="35.3669800">
<ele>-387.489990</ele>
<time>2024-01-10T16:36:58.966Z</time>
</trkpt>
<trkpt lat="31.1717700" lon="35.3670000">
<ele>-387.449982</ele>
<time>2024-01-10T16:36:58.966Z</time>
</trkpt>
<trkpt lat="31.1717600" lon="35.3670100">
<ele>-387.429993</ele>
<time>2024-01-10T16:36:58.966Z</time>
</trkpt>
<trkpt lat="31.1717400" lon="35.3670300">
<ele>-387.359985</ele>
<time>2024-01-10T16:36:58.966Z</time>
</trkpt>
<trkpt lat="31.1717300" lon="35.3670400">
<ele>-387.319977</ele>
<time>2024-01-10T16:36:58.966Z</time>
</trkpt>
<trkpt lat="31.1717100" lon="35.3670500">
<ele>-387.260010</ele>
<time>2024-01-10T16:36:58.966Z</time>
</trkpt>
<trkpt lat="31.1716900" lon="35.3670600">
<ele>-387.189972</ele>
<time>2024-01-10T16:36:58.966Z</time>
</trkpt>
<trkpt lat="31.1716700" lon="35.3670600">
<ele>-387.170013</ele>
<time>2024-01-10T16:36:58.966Z</time>
</trkpt>
<trkpt lat="31.1716500" lon="35.3670600">
<ele>-387.220001</ele>
<time>2024-01-10T16:36:58.967Z</time>
</trkpt>
<trkpt lat="31.1716300" lon="35.3670500">
<ele>-387.339996</ele>
<time>2024-01-10T16:36:58.967Z</time>
</trkpt>
<trkpt lat="31.1716100" lon="35.3670400">
<ele>-387.449982</ele>
<time>2024-01-10T16:36:58.967Z</time>
</trkpt>
<trkpt lat="31.1716000" lon="35.3670300">
<ele>-387.529968</ele>
<time>2024-01-10T16:36:58.967Z</time>
</trkpt>
<trkpt lat="31.1715800" lon="35.3670100">
<ele>-387.679993</ele>
<time>2024-01-10T16:36:58.967Z</time>
</trkpt>
<trkpt lat="31.1715700" lon="35.3670000">
<ele>-387.740021</ele>
<time>2024-01-10T16:36:58.967Z</time>
</trkpt>
<trkpt lat="31.1715600" lon="35.3669800">
<ele>-387.839996</ele>
<time>2024-01-10T16:36:58.967Z</time>
</trkpt>
<trkpt lat="31.1715500" lon="35.3669600">
<ele>-387.940002</ele>
<time>2024-01-10T16:36:58.967Z</time>
</trkpt>
<trkpt lat="31.1713800" lon="35.3669400">
<ele>-387.970001</ele>
<time>2024-01-10T16:36:58.967Z</time>
</trkpt>
<trkpt lat="31.1710300" lon="35.3669100">
<ele>-388.369995</ele>
<time>2024-01-10T16:36:58.967Z</time>
</trkpt>
<trkpt lat="31.1707400" lon="35.3669100">
<ele>-387.459991</ele>
<time>2024-01-10T16:36:58.967Z</time>
</trkpt>
<trkpt lat="31.1706200" lon="35.3669000">
<ele>-387.029999</ele>
<time>2024-01-10T16:36:58.967Z</time>
</trkpt>
<trkpt lat="31.1704000" lon="35.3669000">
<ele>-387.959991</ele>
<time>2024-01-10T16:36:58.967Z</time>
</trkpt>
<trkpt lat="31.1701300" lon="35.3669200">
<ele>-391.529999</ele>
<time>2024-01-10T16:36:58.967Z</time>
</trkpt>
<trkpt lat="31.1689800" lon="35.3670200">
<ele>-387.489990</ele>
<time>2024-01-10T16:36:58.967Z</time>
</trkpt>
<trkpt lat="31.1687600" lon="35.3670300">
<ele>-387.209991</ele>
<time>2024-01-10T16:36:58.967Z</time>
</trkpt>
<trkpt lat="31.1685600" lon="35.3670300">
<ele>-389.240021</ele>
<time>2024-01-10T16:36:58.967Z</time>
</trkpt>
<trkpt lat="31.1682100" lon="35.3670700">
<ele>-391.509979</ele>
<time>2024-01-10T16:36:58.967Z</time>
</trkpt>
<trkpt lat="31.1678500" lon="35.3670700">
<ele>-394.820007</ele>
<time>2024-01-10T16:36:58.967Z</time>
</trkpt>
<trkpt lat="31.1656200" lon="35.3670400">
<ele>-389.380005</ele>
<time>2024-01-10T16:36:58.967Z</time>
</trkpt>
<trkpt lat="31.1635500" lon="35.3669600">
<ele>-393.449982</ele>
<time>2024-01-10T16:36:58.967Z</time>
</trkpt>
<trkpt lat="31.1631800" lon="35.3669500">
<ele>-396.399994</ele>
<time>2024-01-10T16:36:58.967Z</time>
</trkpt>
<trkpt lat="31.1621100" lon="35.3668100">
<ele>-395.570007</ele>
<time>2024-01-10T16:36:58.967Z</time>
</trkpt>
<trkpt lat="31.1619600" lon="35.3667800">
<ele>-395.209991</ele>
<time>2024-01-10T16:36:58.967Z</time>
</trkpt>
<trkpt lat="31.1618300" lon="35.3667500">
<ele>-395.309998</ele>
<time>2024-01-10T16:36:58.967Z</time>
</trkpt>
<trkpt lat="31.1617100" lon="35.3667100">
<ele>-395.309998</ele>
<time>2024-01-10T16:36:58.967Z</time>
</trkpt>
<trkpt lat="31.1615900" lon="35.3666600">
<ele>-394.139984</ele>
<time>2024-01-10T16:36:58.967Z</time>
</trkpt>
<trkpt lat="31.1614600" lon="35.3665900">
<ele>-389.920013</ele>
<time>2024-01-10T16:36:58.967Z</time>
</trkpt>
<trkpt lat="31.1611900" lon="35.3664200">
<ele>-380.580017</ele>
<time>2024-01-10T16:36:58.968Z</time>
</trkpt>
<trkpt lat="31.1610800" lon="35.3663400">
<ele>-379.369995</ele>
<time>2024-01-10T16:36:58.968Z</time>
</trkpt>
<trkpt lat="31.1609900" lon="35.3663000">
<ele>-378.969971</ele>
<time>2024-01-10T16:36:58.968Z</time>
</trkpt>
<trkpt lat="31.1609200" lon="35.3664400">
<ele>-379.090027</ele>
<time>2024-01-10T16:36:58.968Z</time>
</trkpt>
<trkpt lat="31.1608600" lon="35.3665100">
<ele>-381.480011</ele>
<time>2024-01-10T16:36:58.968Z</time>
</trkpt>
<trkpt lat="31.1607700" lon="35.3665500">
<ele>-383.480011</ele>
<time>2024-01-10T16:36:58.968Z</time>
</trkpt>
<trkpt lat="31.1605600" lon="35.3665300">
<ele>-384.530029</ele>
<time>2024-01-10T16:36:58.968Z</time>
</trkpt>
<trkpt lat="31.1603500" lon="35.3665200">
<ele>-386.200012</ele>
<time>2024-01-10T16:36:58.968Z</time>
</trkpt>
<trkpt lat="31.1601200" lon="35.3664200">
<ele>-386.519989</ele>
<time>2024-01-10T16:36:58.968Z</time>
</trkpt>
<trkpt lat="31.1599600" lon="35.3663200">
<ele>-386.480011</ele>
<time>2024-01-10T16:36:58.968Z</time>
</trkpt>
<trkpt lat="31.1598100" lon="35.3661500">
<ele>-386.200012</ele>
<time>2024-01-10T16:36:58.968Z</time>
</trkpt>
<trkpt lat="31.1558300" lon="35.3661000">
<ele>-395.950012</ele>
<time>2024-01-10T16:36:58.968Z</time>
</trkpt>
<trkpt lat="31.1555000" lon="35.3660300">
<ele>-394.790009</ele>
<time>2024-01-10T16:36:58.968Z</time>
</trkpt>
<trkpt lat="31.1547700" lon="35.3660500">
<ele>-394.200012</ele>
<time>2024-01-10T16:36:58.968Z</time>
</trkpt>
<trkpt lat="31.1539100" lon="35.3660900">
<ele>-387.220001</ele>
<time>2024-01-10T16:36:58.968Z</time>
</trkpt>
<trkpt lat="31.1538500" lon="35.3660600">
<ele>-387.449982</ele>
<time>2024-01-10T16:36:58.968Z</time>
</trkpt>
<trkpt lat="31.1534100" lon="35.3661200">
<ele>-390.750000</ele>
<time>2024-01-10T16:36:58.968Z</time>
</trkpt>
<trkpt lat="31.1532200" lon="35.3661500">
<ele>-390.380005</ele>
<time>2024-01-10T16:36:58.968Z</time>
</trkpt>
<trkpt lat="31.1529300" lon="35.3661800">
<ele>-388.479980</ele>
<time>2024-01-10T16:36:58.968Z</time>
</trkpt>
<trkpt lat="31.1528400" lon="35.3661800">
<ele>-387.750000</ele>
<time>2024-01-10T16:36:58.968Z</time>
</trkpt>
<trkpt lat="31.1527000" lon="35.3662000">
<ele>-387.510010</ele>
<time>2024-01-10T16:36:58.968Z</time>
</trkpt>
<trkpt lat="31.1519600" lon="35.3666400">
<ele>-390.699982</ele>
<time>2024-01-10T16:36:58.968Z</time>
</trkpt>
<trkpt lat="31.1518600" lon="35.3667200">
<ele>-391.250031</ele>
<time>2024-01-10T16:36:58.968Z</time>
</trkpt>
<trkpt lat="31.1517900" lon="35.3668100">
<ele>-391.800018</ele>
<time>2024-01-10T16:36:58.968Z</time>
</trkpt>
<trkpt lat="31.1517200" lon="35.3670000">
<ele>-392.809998</ele>
<time>2024-01-10T16:36:58.968Z</time>
</trkpt>
<trkpt lat="31.1516500" lon="35.3670600">
<ele>-393.000000</ele>
<time>2024-01-10T16:36:58.968Z</time>
</trkpt>
<trkpt lat="31.1515500" lon="35.3670900">
<ele>-393.000000</ele>
<time>2024-01-10T16:36:58.968Z</time>
</trkpt>
<trkpt lat="31.1513400" lon="35.3670500">
<ele>-392.709991</ele>
<time>2024-01-10T16:36:58.968Z</time>
</trkpt>
<trkpt lat="31.1510800" lon="35.3669400">
<ele>-390.760010</ele>
<time>2024-01-10T16:36:58.968Z</time>
</trkpt>
<trkpt lat="31.1509000" lon="35.3668200">
<ele>-389.710022</ele>
<time>2024-01-10T16:36:58.969Z</time>
</trkpt>
<trkpt lat="31.1508200" lon="35.3667700">
<ele>-389.589996</ele>
<time>2024-01-10T16:36:58.969Z</time>
</trkpt>
<trkpt lat="31.1507500" lon="35.3667100">
<ele>-389.380005</ele>
<time>2024-01-10T16:36:58.969Z</time>
</trkpt>
<trkpt lat="31.1506000" lon="35.3666800">
<ele>-388.389984</ele>
<time>2024-01-10T16:36:58.969Z</time>
</trkpt>
<trkpt lat="31.1504200" lon="35.3666300">
<ele>-387.870026</ele>
<time>2024-01-10T16:36:58.969Z</time>
</trkpt>
<trkpt lat="31.1502900" lon="35.3665700">
<ele>-387.329987</ele>
<time>2024-01-10T16:36:58.969Z</time>
</trkpt>
<trkpt lat="31.1500800" lon="35.3665900">
<ele>-388.550018</ele>
<time>2024-01-10T16:36:58.969Z</time>
</trkpt>
<trkpt lat="31.1500400" lon="35.3666100">
<ele>-388.800018</ele>
<time>2024-01-10T16:36:58.969Z</time>
</trkpt>
<trkpt lat="31.1500100" lon="35.3666500">
<ele>-388.959991</ele>
<time>2024-01-10T16:36:58.969Z</time>
</trkpt>
<trkpt lat="31.1499900" lon="35.3666900">
<ele>-389.130005</ele>
<time>2024-01-10T16:36:58.969Z</time>
</trkpt>
<trkpt lat="31.1499700" lon="35.3668600">
<ele>-390.279999</ele>
<time>2024-01-10T16:36:58.969Z</time>
</trkpt>
<trkpt lat="31.1499700" lon="35.3670100">
<ele>-391.149994</ele>
<time>2024-01-10T16:36:58.969Z</time>
</trkpt>
<trkpt lat="31.1499400" lon="35.3671700">
<ele>-391.769989</ele>
<time>2024-01-10T16:36:58.969Z</time>
</trkpt>
<trkpt lat="31.1498500" lon="35.3674600">
<ele>-393.779968</ele>
<time>2024-01-10T16:36:58.969Z</time>
</trkpt>
<trkpt lat="31.1497800" lon="35.3675300">
<ele>-394.630005</ele>
<time>2024-01-10T16:36:58.969Z</time>
</trkpt>
<trkpt lat="31.1497000" lon="35.3675800">
<ele>-394.660004</ele>
<time>2024-01-10T16:36:58.969Z</time>
</trkpt>
<trkpt lat="31.1487300" lon="35.3680900">
<ele>-390.619995</ele>
<time>2024-01-10T16:36:58.969Z</time>
</trkpt>
<trkpt lat="31.1483700" lon="35.3683100">
<ele>-392.629974</ele>
<time>2024-01-10T16:36:58.969Z</time>
</trkpt>
<trkpt lat="31.1481500" lon="35.3684900">
<ele>-391.389984</ele>
<time>2024-01-10T16:36:58.969Z</time>
</trkpt>
<trkpt lat="31.1480200" lon="35.3686300">
<ele>-390.679993</ele>
<time>2024-01-10T16:36:58.969Z</time>
</trkpt>
<trkpt lat="31.1479200" lon="35.3687800">
<ele>-389.710022</ele>
<time>2024-01-10T16:36:58.969Z</time>
</trkpt>
<trkpt lat="31.1478000" lon="35.3690600">
<ele>-390.260010</ele>
<time>2024-01-10T16:36:58.969Z</time>
</trkpt>
<trkpt lat="31.1477800" lon="35.3692300">
<ele>-391.220001</ele>
<time>2024-01-10T16:36:58.969Z</time>
</trkpt>
<trkpt lat="31.1477400" lon="35.3693900">
<ele>-392.190002</ele>
<time>2024-01-10T16:36:58.969Z</time>
</trkpt>
<trkpt lat="31.1476900" lon="35.3695900">
<ele>-393.309998</ele>
<time>2024-01-10T16:36:58.969Z</time>
</trkpt>
<trkpt lat="31.1476500" lon="35.3699200">
<ele>-394.580017</ele>
<time>2024-01-10T16:36:58.969Z</time>
</trkpt>
<trkpt lat="31.1479400" lon="35.3702200">
<ele>-395.960022</ele>
<time>2024-01-10T16:36:58.969Z</time>
</trkpt>
<trkpt lat="31.1479400" lon="35.3702200">
<ele>-395.960022</ele>
<time>2024-01-10T16:36:58.969Z</time>
</trkpt>
</trkseg>
</trk>
</gpx>
